[[{"header":{"parameterUnit":"m.s-1","parameterCategory":1,"la1":30.6,"la2":28.766,"lo1":-90.7593,"lo2":-88.6598,"dy":0.0162,"dx":0.0183,"nx":116,"ny":114,"refTime":"2024-04-22T12:00:00:Z","depth":0,"parameterNumber":2,"parameterNumberName":"U-component_of_WINDS"},"data":[0.0,0.0,0.0,0.0,0.0,0.0,0.0,0.0,0.0,0.0,0.0,0.0,0.0,0.0,0.0,0.0,0.0,0.0,0.0,0.0,0.0,0.0,0.0,0.0,0.0,0.0,0.0,0.0,0.0,0.0,0.0,0.0,0.0,0.0,0.0,0.0,0.0,0.0,0.0,0.0,0.0,0.0,0.0,0.0,0.0,0.0,0.0,0.0,0.0,0.0,0.0,0.0,0.0,0.0,0.0,0.0,0.0,0.0,0.0,0.0,0.0,0.0,0.0,0.0,0.0,0.0,0.0,0.0,0.0,0.0,0.0,0.0,0.0,0.0,0.0,0.0,0.0,0.0,0.0,0.0,0.0,0.0,0.0,0.0,0.0,0.0,0.0,0.0,0.0,0.0,0.0,0.0,0.0,0.0,0.0,0.0,0.0,0.0,0.0,0.0,0.0,0.0,0.0,0.0,0.0,0.0,0.0,0.0,0.0,0.0,0.0,0.0,0.0,0.0,0.0,0.0,0.0,0.0,0.0,0.0,0.0,0.0,0.0,0.0,0.0,0.0,0.0,0.0,0.0,0.0,0.0,0.0,0.0,0.0,0.0,0.0,0.0,0.0,0.0,0.0,0.0,0.0,0.0,0.0,0.0,0.0,0.0,0.0,0.0,0.0,0.0,0.0,0.0,0.0,0.0,0.0,0.0,0.0,0.0,0.0,0.0,0.0,0.0,0.0,0.0,0.0,0.0,0.0,0.0,0.0,0.0,0.0,0.0,0.0,0.0,0.0,0.0,0.0,0.0,0.0,0.0,0.0,0.0,0.0,0.0,0.0,0.0,0.0,0.0,0.0,0.0,0.0,0.0,0.0,0.0,0.0,0.0,0.0,0.0,0.0,0.0,0.0,0.0,0.0,0.0,0.0,0.0,0.0,0.0,0.0,0.0,0.0,0.0,0.0,0.0,0.0,0.0,0.0,0.0,0.0,0.0,0.0,0.0,0.0,0.0,0.0,0.0,0.0,0.0,0.0,0.0,0.0,0.0,0.0,0.0,0.0,0.0,0.0,0.0,0.0,0.0,0.0,0.0,0.0,0.0,0.0,0.0,0.0,0.0,0.0,0.0,0.0,0.0,0.0,0.0,0.0,0.0,0.0,0.0,0.0,0.0,0.0,0.0,0.0,0.0,0.0,0.0,0.0,0.0,0.0,0.0,0.0,0.0,0.0,0.0,0.0,0.0,0.0,0.0,0.0,0.0,0.0,0.0,0.0,0.0,0.0,0.0,0.0,0.0,0.0,0.0,0.0,0.0,0.0,0.0,0.0,0.0,0.0,0.0,0.0,0.0,0.0,0.0,0.0,0.0,0.0,0.0,0.0,0.0,0.0,0.0,0.0,0.0,0.0,0.0,0.0,0.0,0.0,0.0,0.0,0.0,0.0,0.0,0.0,0.0,0.0,0.0,0.0,0.0,0.0,0.0,0.0,0.0,0.0,0.0,0.0,0.0,0.0,0.0,0.0,0.0,0.0,0.0,0.0,0.0,0.0,0.0,0.0,0.0,0.0,0.0,0.0,0.0,0.0,0.0,0.0,0.0,0.0,0.0,0.0,0.0,0.0,0.0,0.0,0.0,0.0,0.0,0.0,0.0,0.0,0.0,0.0,0.0,0.0,0.0,0.0,0.0,0.0,0.0,0.0,0.0,0.0,0.0,0.0,0.0,0.0,0.0,0.0,0.0,0.0,0.0,0.0,0.0,0.0,0.0,0.0,0.0,0.0,0.0,0.0,0.0,0.0,0.0,0.0,0.0,0.0,0.0,0.0,0.0,0.0,0.0,0.0,0.0,0.0,0.0,0.0,0.0,0.0,0.0,0.0,0.0,0.0,0.0,0.0,0.0,0.0,0.0,0.0,0.0,0.0,0.0,0.0,0.0,0.0,0.0,0.0,0.0,0.0,0.0,0.0,0.0,0.0,0.0,0.0,0.0,0.0,0.0,0.0,0.0,0.0,0.0,0.0,0.0,0.0,0.0,0.0,0.0,0.0,0.0,0.0,0.0,0.0,0.0,0.0,0.0,0.0,0.0,0.0,0.0,0.0,0.0,0.0,0.0,0.0,0.0,0.0,0.0,0.0,0.0,0.0,0.0,0.0,0.0,0.0,0.0,0.0,0.0,0.0,0.0,0.0,0.0,0.0,0.0,0.0,0.0,0.0,0.0,0.0,0.0,0.0,0.0,0.0,0.0,0.0,0.0,0.0,0.0,0.0,0.0,0.0,0.0,0.0,0.0,0.0,0.0,0.0,0.0,0.0,0.0,0.0,0.0,0.0,0.0,0.0,0.0,0.0,0.0,0.0,0.0,0.0,0.0,0.0,0.0,0.0,0.0,0.0,0.0,0.0,0.0,0.0,0.0,0.0,0.0,0.0,0.0,0.0,0.0,0.0,0.0,0.0,0.0,0.0,0.0,0.0,0.0,0.0,0.0,0.0,0.0,0.0,0.0,0.0,0.0,0.0,0.0,0.0,0.0,0.0,0.0,0.0,0.0,0.0,0.0,0.0,0.0,0.0,0.0,0.0,0.0,0.0,0.0,0.0,0.0,0.0,0.0,0.0,0.0,0.0,0.0,0.0,0.0,0.0,0.0,0.0,0.0,0.0,0.0,0.0,0.0,0.0,0.0,0.0,0.0,0.0,0.0,0.0,0.0,0.0,0.0,0.0,0.0,0.0,0.0,0.0,0.0,0.0,0.0,0.0,0.0,0.0,0.0,0.0,0.0,0.0,0.0,0.0,0.0,0.0,0.0,0.0,0.0,0.0,0.0,0.0,0.0,0.0,0.0,0.0,0.0,0.0,0.0,0.0,0.0,0.0,0.0,0.0,0.0,0.0,0.0,0.0,0.0,0.0,0.0,0.0,0.0,0.0,0.0,0.0,0.0,0.0,0.0,0.0,0.0,0.0,0.0,0.0,0.0,0.0,0.0,0.0,0.0,0.0,0.0,0.0,0.0,0.0,0.0,0.0,0.0,0.0,0.0,0.0,0.0,0.0,0.0,0.0,0.0,0.0,0.0,0.0,0.0,0.0,0.0,0.0,0.0,0.0,0.0,0.0,0.0,0.0,0.0,0.0,0.0,0.0,0.0,0.0,0.0,0.0,0.0,0.0,0.0,0.0,0.0,0.0,0.0,0.0,0.0,0.0,0.0,0.0,0.0,0.0,0.0,0.0,0.0,0.0,0.0,0.0,0.0,0.0,0.0,0.0,0.0,0.0,0.0,0.0,0.0,0.0,0.0,0.0,0.0,0.0,0.0,0.0,0.0,0.0,0.0,0.0,0.0,0.0,0.0,0.0,0.0,0.0,0.0,0.0,0.0,0.0,0.0,0.0,0.0,0.0,0.0,0.0,0.0,0.0,0.0,0.0,0.0,0.0,0.0,0.0,0.0,0.0,0.0,0.0,0.0,0.0,0.0,0.0,0.0,0.0,0.0,0.0,0.0,0.0,0.0,0.0,0.0,0.0,0.0,0.0,0.0,0.0,0.0,0.0,0.0,0.0,0.0,0.0,0.0,0.0,0.0,0.0,0.0,0.0,0.0,0.0,0.0,0.0,0.0,0.0,0.0,0.0,0.0,0.0,0.0,0.0,0.0,0.0,0.0,0.0,0.0,0.0,0.0,0.0,0.0,0.0,0.0,0.0,0.0,0.0,0.0,0.0,0.0,0.0,0.0,0.0,0.0,0.0,0.0,0.0,0.0,0.0,0.0,0.0,0.0,0.0,0.0,0.0,0.0,0.0,0.0,0.0,0.0,0.0,0.0,0.0,0.0,0.0,0.0,0.0,0.0,0.0,0.0,0.0,0.0,0.0,0.0,0.0,0.0,0.0,0.0,0.0,0.0,0.0,0.0,0.0,0.0,0.0,0.0,0.0,0.0,0.0,0.0,0.0,0.0,0.0,0.0,0.0,0.0,0.0,0.0,0.0,0.0,0.0,0.0,0.0,0.0,0.0,0.0,0.0,0.0,0.0,0.0,0.0,0.0,0.0,0.0,0.0,0.0,0.0,0.0,0.0,0.0,0.0,0.0,0.0,0.0,0.0,0.0,0.0,0.0,0.0,0.0,0.0,0.0,0.0,0.0,0.0,0.0,0.0,0.0,0.0,0.0,0.0,0.0,0.0,0.0,0.0,0.0,0.0,0.0,0.0,0.0,0.0,0.0,0.0,0.0,0.0,0.0,0.0,0.0,0.0,0.0,0.0,0.0,0.0,0.0,0.0,0.0,0.0,0.0,0.0,0.0,0.0,0.0,0.0,0.0,0.0,0.0,0.0,0.0,0.0,0.0,0.0,0.0,0.0,0.0,0.0,0.0,0.0,0.0,0.0,0.0,0.0,0.0,0.0,0.0,0.0,0.0,0.0,0.0,0.0,0.0,0.0,0.0,0.0,0.0,0.0,0.0,0.0,0.0,0.0,0.0,0.0,0.0,0.0,0.0,0.0,0.0,0.0,0.0,0.0,0.0,0.0,0.0,0.0,0.0,0.0,0.0,0.0,0.0,0.0,0.0,0.0,0.0,0.0,0.0,0.0,0.0,0.0,0.0,0.0,0.0,0.0,0.0,0.0,0.0,0.0,0.0,0.0,0.0,0.0,0.0,0.0,0.0,0.0,0.0,0.0,0.0,0.0,0.0,0.0,0.0,0.0,0.0,0.0,0.0,0.0,0.0,0.0,0.0,0.0,0.0,0.0,0.0,0.0,0.0,0.0,0.0,0.0,0.0,0.0,0.0,0.0,0.0,0.0,0.0,0.0,0.0,0.0,0.0,0.0,0.0,0.0,0.0,0.0,0.0,0.0,0.0,0.0,0.0,0.0,0.0,0.0,0.0,0.0,0.0,0.0,0.0,0.0,0.0,0.0,0.0,0.0,0.0,0.0,0.0,0.0,0.0,0.0,0.0,0.0,0.0,0.0,0.0,0.0,0.0,0.0,0.0,0.0,0.0,0.0,0.0,0.0,0.0,0.0,0.0,0.0,0.0,0.0,0.0,0.0,0.0,0.0,0.0,0.0,0.0,0.0,0.0,0.0,0.0,0.0,0.0,0.0,0.0,0.0,0.0,0.0,0.0,0.0,0.0,0.0,0.0,0.0,0.0,0.0,0.0,0.0,0.0,0.0,0.0,0.0,0.0,0.0,0.0,0.0,0.0,0.0,0.0,0.0,0.0,0.0,0.0,0.0,0.0,0.0,0.0,0.0,0.0,0.0,0.0,0.0,0.0,0.0,0.0,0.0,0.0,0.0,0.0,0.0,0.0,0.0,0.0,0.0,0.0,0.0,0.0,0.0,0.0,0.0,0.0,0.0,0.0,0.0,0.0,0.0,0.0,0.0,0.0,0.0,0.0,0.0,0.0,0.0,0.0,0.0,0.0,0.0,0.0,0.0,0.0,0.0,0.0,0.0,0.0,0.0,0.0,0.0,0.0,0.0,0.0,0.0,0.0,0.0,0.0,0.0,0.0,0.0,0.0,0.0,0.0,0.0,0.0,0.0,0.0,0.0,0.0,0.0,0.0,0.0,0.0,0.0,0.0,0.0,0.0,0.0,0.0,0.0,0.0,0.0,0.0,0.0,0.0,0.0,0.0,0.0,0.0,0.0,0.0,0.0,0.0,0.0,0.0,0.0,0.0,0.0,0.0,0.0,0.0,0.0,0.0,0.0,0.0,0.0,0.0,0.0,0.0,0.0,0.0,0.0,0.0,0.0,0.0,0.0,0.0,0.0,0.0,0.0,0.0,0.0,0.0,0.0,0.0,0.0,0.0,0.0,0.0,0.0,0.0,0.0,0.0,0.0,0.0,0.0,0.0,0.0,0.0,0.0,0.0,0.0,0.0,0.0,0.0,0.0,0.0,0.0,0.0,0.0,0.0,0.0,0.0,0.0,0.0,0.0,0.0,0.0,0.0,0.0,0.0,0.0,0.0,0.0,0.0,0.0,0.0,0.0,0.0,0.0,0.0,0.0,0.0,0.0,0.0,0.0,0.0,0.0,0.0,0.0,0.0,0.0,0.0,0.0,0.0,0.0,0.0,0.0,0.0,0.0,0.0,0.0,0.0,0.0,0.0,0.0,0.0,0.0,0.0,0.0,1.3322,0.0,0.0,0.0,0.0,0.0,0.0,0.0,0.0,0.0,0.0,0.0,0.0,0.0,0.0,0.0,0.0,0.0,0.0,0.0,0.0,0.0,0.0,0.0,0.0,0.6374,0.657,0.6766,0.6608,0.6412,0.6198,0.0,0.0,0.0,0.0,0.0,0.679,0.7557,0.805,0.821,0.863,0.9133,0.9727,0.9853,1.0425,1.1375,0.0,0.0,0.0,0.0,0.0,0.0,0.0,0.0,0.0,0.0,0.0,0.0,0.0,0.0,0.0,0.0,0.0,0.0,0.0,0.0,0.0,0.0,0.0,0.0,0.0,0.0,0.0,0.0,0.0,0.0,0.0,0.0,0.0,0.0,0.0,0.0,0.0,0.0,0.0,0.0,0.0,0.0,0.0,0.0,0.0,0.0,0.0,0.0,0.0,0.0,0.0,0.0,0.0,0.0,0.0,0.0,0.0,0.0,0.0,0.0,0.0,0.0,0.0,0.0,0.0,0.0,0.0,0.0,0.0,0.0,0.0,1.2587,0.0,0.0,0.0,0.0,0.0,0.0,0.0,0.0,0.0,0.0,0.0,0.0,0.0,0.0,0.0,0.0,0.0,0.0,0.0,0.0,0.0,0.6106,0.6366,0.6526,0.6736,0.7072,0.6729,0.6533,0.6601,0.6221,0.6152,0.6488,0.6571,0.6748,0.7058,0.7348,0.7695,0.8083,0.8309,0.8761,0.942,0.9754,1.0574,1.176,0.0,0.0,0.0,0.0,0.0,0.0,0.0,0.0,0.0,0.0,0.0,0.0,0.0,0.0,0.0,0.0,0.0,0.0,0.0,0.0,0.0,0.0,0.0,0.0,0.0,0.0,0.0,0.0,0.0,0.0,0.0,0.0,0.0,0.0,0.0,0.0,0.0,0.0,0.0,0.0,0.0,0.0,0.0,0.0,0.0,0.0,0.0,0.0,0.0,0.0,0.0,0.0,0.0,0.0,0.0,0.0,0.0,0.0,0.0,0.0,0.0,0.0,0.0,0.0,1.6044,1.5585,1.4426,1.4751,1.4746,1.4433,1.3567,1.2701,1.1901,1.1982,0.0,0.0,0.0,0.0,0.0,0.0,0.0,0.0,0.0,0.0,0.0,0.0,0.0,0.0,0.0,0.0,0.0,0.0,0.0,0.6305,0.6014,0.6609,0.7035,0.7094,0.6729,0.6654,0.6998,0.6647,0.645,0.6503,0.6834,0.699,0.6925,0.731,0.7808,0.8435,0.9542,1.028,1.0685,1.13,1.1698,1.1858,1.163,0.0,0.0,0.0,0.0,0.0,0.0,0.0,0.0,0.0,0.0,0.0,0.0,0.0,0.0,0.0,0.0,0.0,0.0,0.0,0.0,0.0,0.0,0.0,0.0,0.0,0.0,0.0,0.0,0.0,0.0,0.0,0.0,0.0,0.0,0.0,0.0,0.0,0.0,0.0,0.0,0.0,0.0,0.0,1.2992,1.2917,0.0,0.0,0.0,0.0,0.0,0.0,0.0,0.0,0.0,0.0,0.0,0.0,0.0,1.7244,1.6968,1.7218,1.6611,1.5104,1.5915,1.5798,1.4888,1.4603,1.4739,1.5114,1.4005,0.0,1.2691,1.1969,0.0,0.0,0.0,0.0,0.0,0.0,0.0,0.0,0.0,0.0,0.0,0.0,0.0,0.0,0.0,0.0,0.0,0.0,0.0,0.0,0.0,0.6811,0.7324,0.7474,0.7848,0.785,0.7298,0.7246,0.7107,0.6853,0.6717,0.6835,0.7229,0.7446,0.7921,0.8668,0.9724,1.0307,1.0458,1.0941,1.1166,1.1183,1.1371,1.2054,1.3067,1.3016,0.0,0.0,0.0,0.0,0.0,0.0,0.0,0.0,0.0,0.0,0.0,0.0,0.0,0.0,0.0,0.0,0.0,0.0,0.0,0.0,0.0,0.0,0.0,0.0,0.0,0.0,0.0,0.0,0.0,0.0,0.0,0.0,0.0,0.0,0.0,0.0,0.0,0.0,0.0,1.3934,1.4033,1.332,1.401,1.4326,0.0,0.0,0.0,0.0,0.0,0.0,0.0,0.0,0.0,1.6663,1.654,1.6413,1.6256,1.7041,1.6891,1.5799,1.6747,1.6676,1.5726,1.5712,1.5846,1.6058,1.5404,1.4811,1.4207,1.3,1.2996,1.3688,0.0,0.0,0.0,0.0,1.5594,1.6658,0.0,0.0,0.0,0.0,0.0,0.0,0.0,0.0,0.0,0.0,0.0,0.0,0.6253,0.6918,0.7456,0.7731,0.8336,0.8419,0.7755,0.7423,0.7214,0.7101,0.6522,0.6506,0.7156,0.7586,0.82,0.9031,0.9913,1.0439,1.0665,1.1015,1.1196,1.1286,1.1718,1.2002,1.2164,1.2146,1.2585,0.0,0.0,0.0,0.0,0.0,0.0,0.0,0.0,0.0,0.0,0.0,0.0,0.0,0.0,0.0,0.0,0.0,0.0,0.0,0.0,0.0,0.0,0.0,0.0,0.0,0.0,0.0,0.0,0.0,0.0,0.0,0.0,0.0,0.0,0.0,0.0,0.0,0.0,1.4172,1.4554,1.3381,1.4265,1.4518,0.0,0.0,0.0,0.0,0.0,0.0,1.6262,1.6579,1.663,1.6385,1.6012,1.5702,1.5468,1.6183,1.6107,1.5322,1.6082,1.604,1.5307,1.5507,1.5638,1.5714,1.5793,1.5632,1.521,1.3954,1.3901,1.4522,1.3663,1.4592,1.6353,1.584,1.6472,1.7626,0.0,0.0,0.0,0.0,0.0,0.0,0.0,0.0,0.0,0.0,0.0,0.5983,0.6184,0.6808,0.7319,0.7584,0.7301,0.752,0.8472,0.6827,0.6194,0.7065,0.634,0.6031,0.6256,0.7641,0.8784,0.9654,1.0537,1.1376,1.2198,1.2536,1.2831,1.3066,1.2842,1.2996,1.3336,1.2213,1.2842,1.4499,0.0,0.0,0.0,0.0,0.0,0.0,0.0,0.0,0.0,0.0,0.0,0.0,0.0,0.0,0.0,0.0,0.0,0.0,0.0,0.0,0.0,0.0,0.0,0.0,0.0,0.0,0.0,0.0,0.0,0.0,0.0,0.0,0.0,0.0,0.0,0.0,0.0,0.0,0.0,1.2665,1.3277,0.0,0.0,0.0,0.0,1.5898,1.6792,1.7128,1.6786,1.7203,1.726,1.6875,1.661,1.6032,1.5138,1.4488,1.3586,1.2412,1.2473,1.2531,1.2587,1.2597,1.277,1.3058,1.4123,1.4753,1.4978,1.4327,1.4372,1.483,1.4193,1.4641,1.5616,1.5192,1.5605,1.6277,0.0,0.0,0.0,0.0,0.0,0.3854,0.4388,0.4429,0.4368,0.4281,0.5332,0.615,0.6307,0.731,0.8084,0.8357,0.8914,0.9051,0.8565,0.781,0.7525,0.7861,0.69,0.6829,0.7847,0.8764,0.966,1.0544,1.1239,1.1828,1.2311,1.2643,1.2844,1.2951,1.3026,1.3158,1.3255,1.2535,1.2398,1.2707,1.2724,1.2774,0.0,0.0,0.0,0.0,0.0,0.0,0.0,0.0,0.0,0.0,0.0,0.0,0.0,0.0,0.0,0.0,0.0,0.0,0.0,0.0,0.0,0.0,0.0,0.0,0.0,0.0,0.0,0.0,0.0,0.0,0.0,0.0,0.0,0.0,0.0,0.0,0.0,1.3891,1.476,0.0,1.4188,1.5049,1.558,1.5411,1.6679,1.7489,1.7575,1.7253,1.6875,1.6471,1.5574,1.4496,1.3253,1.3153,1.2793,1.2199,1.2677,1.2773,1.253,1.2843,1.3019,1.3133,1.3331,1.3423,1.3434,1.3039,1.4164,1.6002,1.4797,1.5198,1.6381,1.5888,1.6487,1.7516,0.0,0.0,0.0,0.0,0.0,0.3644,0.4067,0.4147,0.4106,0.3952,0.5121,0.6136,0.6591,0.7699,0.8543,0.8905,0.9458,0.9396,0.8495,0.7983,0.7767,0.7852,0.6928,0.6942,0.8099,0.8583,0.9254,1.0121,1.0981,1.1587,1.1947,1.2625,1.2972,1.3079,1.3367,1.3507,1.3487,1.3044,1.2551,1.2053,1.2137,1.2538,1.3072,0.0,0.0,0.0,0.0,0.0,0.0,0.0,0.0,0.0,0.0,0.0,0.0,0.0,0.0,0.0,0.0,0.0,0.0,0.0,0.0,0.0,0.0,0.0,0.0,0.0,0.0,0.0,0.0,0.0,0.0,0.0,0.0,0.0,0.0,0.0,1.4451,1.4405,1.5167,1.5453,1.4869,1.5726,1.6286,1.6162,1.7453,1.8007,1.7485,1.6941,1.5912,1.424,1.2954,1.16,1.0133,0.9876,0.9674,0.9517,1.0007,1.0108,0.9871,1.0183,1.0317,1.034,1.0599,1.0653,1.0594,1.0816,1.2131,1.3949,1.372,1.4266,1.5178,1.4803,1.5266,1.6173,0.0,0.0,0.0,0.0,0.0,0.371,0.4295,0.3992,0.3859,0.4306,0.5019,0.5885,0.6931,0.7833,0.8572,0.911,0.8658,0.8328,0.8294,0.7224,0.6713,0.7003,0.6389,0.6304,0.6848,0.7039,0.7549,0.8413,0.9767,1.0659,1.1169,1.2543,1.332,1.3559,1.3927,1.4109,1.4089,1.3767,1.3362,1.2835,1.1648,1.2563,1.4426,0.0,0.0,0.0,0.0,0.0,0.0,0.0,0.0,0.0,0.0,0.0,0.0,0.0,0.0,0.0,0.0,0.0,0.0,0.0,0.0,0.0,0.0,0.0,0.0,0.0,0.0,0.0,0.0,0.0,0.0,0.0,0.0,0.0,1.4069,1.4332,1.4324,1.4084,1.4365,1.454,1.4475,1.5813,1.7113,1.8196,1.9092,1.862,1.6344,1.6214,1.4338,1.0222,0.8961,0.7561,0.5955,0.4794,0.4193,0.4191,0.4203,0.4313,0.449,0.4494,0.4494,0.4573,0.5946,0.652,0.6621,0.7799,0.8265,0.8499,1.0855,1.177,1.177,1.177,1.177,1.1959,0.0,0.0,0.0,0.4345,0.4033,0.3844,0.4013,0.3842,0.3679,0.361,0.4628,0.5474,0.5758,0.6794,0.763,0.8078,0.7576,0.7459,0.7973,0.695,0.6627,0.7328,0.7193,0.7408,0.8092,0.797,0.816,0.8689,1.0036,1.0387,0.9875,1.2134,1.2842,1.2283,1.3543,1.4109,1.4116,1.4207,1.4073,1.3714,1.2988,1.2859,1.3119,0.0,0.0,0.0,0.0,0.0,0.0,0.0,0.0,0.0,0.0,0.0,0.0,0.0,0.0,0.0,0.0,0.0,0.0,0.0,0.0,0.0,0.0,0.0,0.0,0.0,0.0,0.0,0.0,0.0,0.0,0.0,1.2373,1.2424,1.4434,1.4574,1.4671,1.5245,1.5762,1.6077,1.6058,1.7222,1.7318,1.576,1.6676,1.582,1.2375,1.2177,1.0727,0.7543,0.7131,0.6234,0.472,0.437,0.4193,0.4193,0.4337,0.4361,0.4276,0.444,0.4491,0.4516,0.4906,0.4996,0.4884,0.5216,0.5299,0.5457,0.8006,0.8993,0.8993,0.8993,0.8993,0.9063,0.0,0.0,0.0,0.4491,0.4247,0.4027,0.3921,0.369,0.3497,0.34,0.4286,0.504,0.5354,0.618,0.6844,0.7129,0.6707,0.6449,0.6512,0.6244,0.6366,0.7009,0.7036,0.7161,0.7426,0.717,0.7194,0.7549,0.8808,0.9126,0.8604,1.1308,1.2253,1.1766,1.3379,1.4155,1.4282,1.4427,1.4496,1.446,1.4145,1.4,1.4037,1.4279,1.5002,1.5879,1.5712,1.6259,1.6928,1.6188,0.0,0.0,0.0,0.0,0.0,0.0,0.0,0.0,0.0,0.0,0.0,0.0,0.0,0.0,0.0,0.0,0.0,0.0,0.0,0.0,0.0,0.0,0.0,0.0,1.1038,1.0916,1.2435,1.2887,1.3384,1.419,1.4538,1.475,1.489,1.5576,1.5179,1.3152,1.3717,1.234,0.823,0.8048,0.6463,0.2915,0.2842,0.2433,0.1524,0.1507,0.1556,0.1616,0.1672,0.1333,0.0688,0.0802,0.0855,0.0847,0.0926,0.0864,0.0772,0.0772,0.0713,0.0,0.0,0.0,0.0,0.0,0.5913,0.5434,0.0,0.0,0.0,0.4741,0.4522,0.4257,0.3981,0.355,0.3286,0.3397,0.3865,0.4431,0.5091,0.5588,0.5939,0.6113,0.5828,0.5349,0.4677,0.5387,0.5993,0.6367,0.6311,0.6136,0.5854,0.5547,0.5522,0.58,0.695,0.7495,0.7559,1.0389,1.1702,1.1766,1.3379,1.4249,1.4501,1.4534,1.4743,1.5062,1.5073,1.5414,1.5877,1.5541,1.6473,1.7915,1.764,1.7357,1.7092,1.673,0.0,0.0,0.0,0.0,0.0,0.0,0.0,0.0,0.0,0.0,0.0,0.0,0.0,0.0,0.0,0.0,0.0,0.0,0.0,0.0,0.0,0.0,0.0,0.0,0.8919,0.8414,0.8646,0.9349,1.0329,1.1627,1.1633,1.1658,1.1979,1.211,1.158,1.0176,1.0199,0.8255,0.3654,0.0,0.0,0.0,0.0,-0.2466,-0.2393,-0.2405,-0.2361,-0.2239,-0.2388,-0.3089,-0.4229,-0.4221,-0.4212,-0.4204,-0.4062,-0.3995,-0.3988,-0.3988,-0.4001,-0.3537,0.1227,0.3108,0.3108,0.3108,0.2252,0.1098,0.0,0.0,0.5025,0.5025,0.4804,0.4527,0.4267,0.3468,0.2888,0.2855,0.2858,0.2922,0.3063,0.3551,0.4024,0.4426,0.4205,0.4271,0.4803,0.5199,0.5661,0.6212,0.5779,0.5706,0.6109,0.565,0.5522,0.58,0.695,0.7495,0.7559,1.0389,1.1702,1.1766,1.3379,1.4249,1.4514,1.4798,1.5066,1.5331,1.5565,1.5311,1.4939,1.624,1.6824,1.7093,1.8036,1.8996,1.966,1.8357,1.8497,1.8934,1.7398,0.0,0.0,0.0,0.0,0.0,0.0,0.0,0.0,0.0,0.0,0.0,0.0,0.0,0.0,0.0,0.0,0.0,0.0,0.0,0.0,0.5862,0.4876,0.4099,0.3673,0.277,0.388,0.8567,0.9298,0.9422,0.9479,0.9514,0.8437,0.5829,0.567,0.3216,-0.2386,-0.2683,-0.3571,-0.5534,-0.5571,-0.4947,-0.3652,-0.3771,-0.3791,-0.3768,0.0,0.0,-0.4442,-0.4271,-0.421,-0.42,-0.4062,-0.4001,-0.4013,-0.4013,-0.4004,-0.389,-0.2858,-0.2455,-0.2455,-0.2455,-0.3297,-0.4455,0.0,0.5098,0.5098,0.5098,0.4991,0.476,0.4356,0.35,0.2849,0.2713,0.2321,0.2101,0.2233,0.2431,0.2673,0.2971,0.2752,0.3155,0.4467,0.4607,0.4951,0.5624,0.5592,0.552,0.5457,0.5318,0.5372,0.56,0.6301,0.695,0.754,0.9703,1.1056,1.176,1.3203,1.4188,1.475,1.4926,1.524,1.5601,1.5748,1.5541,1.5377,1.7489,1.8214,1.8322,1.9962,2.0693,2.0723,1.9509,1.9236,1.9151,1.7785,1.6689,1.5788,0.0,0.0,0.0,0.0,0.0,0.0,0.0,0.0,0.0,0.0,0.0,0.0,0.0,0.0,0.6655,0.4754,0.0,0.3077,0.2239,0.0603,-0.0623,-0.087,-0.2658,-0.189,0.3626,0.4347,0.4396,0.4396,0.4391,0.3165,0.0211,0.0,-0.2254,-0.7417,-0.7517,-0.8076,-0.9561,-0.9531,-0.8793,-0.731,-0.7505,-0.7561,-0.7513,-0.766,-0.8101,-0.8745,-0.8643,-0.819,-0.744,-0.7281,-0.6743,-0.6046,-0.6733,-0.7003,-0.7077,-0.7709,-0.6735,-0.4999,-0.4999,-0.6253,-0.7943,0.0,0.0,0.502,0.502,0.502,0.4844,0.4308,0.3488,0.2823,0.2559,0.1982,0.1651,0.1776,0.1813,0.1861,0.1913,0.1748,0.2233,0.0,0.3762,0.4075,0.4718,0.5268,0.5281,0.472,0.4906,0.5135,0.5351,0.5603,0.6319,0.7504,0.8966,1.039,1.1754,1.3034,1.408,1.4899,1.4899,1.5217,1.5715,1.5661,1.5675,1.596,1.8283,1.9274,1.9611,2.1376,2.1541,2.0849,2.0137,1.9327,1.8471,1.7744,1.6979,1.6174,1.5259,1.503,0.0,0.0,0.0,0.0,0.0,0.0,0.0,0.0,0.0,0.996,0.7588,0.5498,0.3336,0.0941,-0.0278,-0.1222,-0.2189,-0.4098,-0.5525,-0.5614,-0.7439,-0.7118,-0.2683,-0.1777,-0.1565,-0.162,-0.1639,-0.2764,-0.5476,-0.5681,-0.75,-1.1639,-1.1559,-1.1954,-1.322,-1.3174,-1.2438,-1.105,-1.1261,-1.1327,-1.1229,-1.1376,-1.202,-1.3066,-1.302,-1.2328,-1.1148,-1.0936,-1.0142,-0.9014,-1.0103,-1.055,-1.0645,-1.1614,-1.0194,-0.7564,-0.727,-0.8637,-1.0672,0.0,0.0,0.0,0.4741,0.4741,0.4562,0.4022,0.3208,0.2466,0.1968,0.1727,0.1455,0.1068,0.159,0.1889,0.1664,0.1727,0.1858,0.2052,0.2665,0.3165,0.3482,0.4239,0.4661,0.4702,0.4721,0.4877,0.5139,0.5345,0.6093,0.7357,0.8836,1.031,1.1754,1.3034,1.3967,1.4569,1.4569,1.491,1.5424,1.5186,1.524,1.5638,1.7347,1.84,1.9087,1.9965,2.0181,2.003,1.9932,1.9327,1.852,1.8069,1.7617,1.7032,1.5916,1.5355,1.5108,1.5129,1.5246,1.5303,1.5025,1.3715,1.2479,0.0,0.0,0.5641,0.3931,0.1331,-0.1364,-0.3718,-0.4967,-0.6428,-0.8873,-0.9721,-1.0395,-1.1325,-1.1715,-1.1553,-1.0656,-0.8455,-0.7143,-0.7434,-0.745,-0.824,-1.0114,-1.0253,-1.1611,-1.4742,-1.4862,-1.486,-1.4923,-1.4914,-1.416,-1.2572,-1.2699,-1.2763,-1.277,-1.2946,-1.3109,-1.3246,-1.3091,-1.2906,-1.2744,-1.2586,-1.2429,-1.2276,-1.2429,-1.2485,-1.2486,-1.2369,-1.277,-1.3196,-1.1776,-1.2192,-1.3452,0.0,0.0,0.0,0.4517,0.4466,0.4344,0.3963,0.3296,0.264,0.2102,0.1849,0.1565,0.1175,0.1585,0.1557,0.0741,0.0861,0.0,0.115,0.1447,0.1933,0.2634,0.2977,0.3184,0.3244,0.3785,0.4148,0.4348,0.5049,0.6021,0.7203,0.7979,0.9393,1.1321,1.2123,1.3145,1.4282,1.4427,1.4763,1.516,1.5062,1.4952,1.4925,1.5454,1.6004,1.6789,1.8845,1.9239,0.0,0.0,1.8359,1.8176,1.7773,1.7353,1.6805,1.5804,1.5248,1.4857,1.453,1.3781,1.3045,1.2842,1.1799,1.0428,0.8918,0.6323,0.3305,0.0021,-0.2605,-0.5033,-0.738,-0.8946,-1.0265,0.0,-1.243,-1.3221,-1.3471,-1.4167,-1.4491,-1.3998,-1.3732,-1.2839,-1.0913,-1.1502,-1.2415,-1.3367,-1.4277,-1.534,-1.6599,-1.6538,-1.6425,-1.6368,-1.6362,-1.6041,-1.5377,-1.558,-1.568,-1.568,-1.5768,-1.5796,-1.5796,-1.5728,-1.5176,-1.4236,-1.322,-1.2812,-1.2864,-1.3625,-1.3956,-1.4027,-1.4662,-1.5226,-1.5475,-1.3709,-1.3878,-1.5022,0.0,0.0,0.0,0.4366,0.4181,0.4012,0.3817,0.3355,0.2852,0.2372,0.2155,0.1953,0.1712,0.1818,0.146,0.0344,0.034,0.0,0.0,0.0537,0.1026,0.1748,0.205,0.2203,0.2202,0.287,0.329,0.3444,0.442,0.5386,0.6311,0.7017,0.8451,1.0509,1.1203,1.2344,1.3755,1.4035,1.4329,1.4618,1.4538,1.4317,1.4002,1.3851,1.3852,1.4315,1.6964,1.7489,0.0,0.0,1.6885,1.6918,1.6855,1.6621,1.6205,1.5444,1.4658,1.3784,1.2671,1.1496,1.0372,0.9466,0.858,0.7238,0.4501,0.2227,-0.0305,-0.3866,-0.6363,-0.8541,-1.0621,-1.2129,-1.3173,-1.3524,-1.4698,-1.5441,-1.5016,-1.5807,-1.6197,-1.5585,-1.6807,-1.6594,-1.3743,-1.5152,-1.6249,-1.6259,-1.74,-1.7934,-1.7628,-1.7408,-1.732,-1.732,-1.732,-1.732,-1.732,-1.7501,-1.7608,-1.7608,-1.7608,-1.7608,-1.7615,-1.7669,-1.7041,-1.5813,-1.4717,-1.4179,-1.4195,-1.5173,-1.5558,-1.566,-1.6519,-1.6827,-1.666,-1.5207,-1.5249,-1.6082,0.0,0.0,0.0,0.0,0.3869,0.3522,0.3511,0.3277,0.2971,0.2634,0.2638,0.267,0.2659,0.2373,0.1834,0.0948,0.058,0.0047,-0.0793,0.012,0.0715,0.0743,0.168,0.2204,0.2199,0.2233,0.2343,0.2539,0.3292,0.387,0.4323,0.6099,0.7716,0.9215,1.046,1.1702,1.2863,1.3139,1.34,1.362,1.336,1.3092,1.2858,1.2905,1.2503,1.2116,1.3844,0.0,0.0,0.0,1.4917,1.4367,1.52,1.5444,0.0,1.4946,1.3515,1.1607,0.9373,0.0,0.7611,0.4748,0.3511,0.2285,-0.0534,-0.3737,-0.6435,-0.7614,-0.9934,-1.2162,-1.3519,-1.4308,-1.5122,-1.6355,-1.7097,-1.7303,-1.6723,-1.6668,-1.6448,-1.5861,-1.6913,-1.7308,0.0,-1.8754,-1.9988,-1.8968,-1.9294,-1.8961,-1.7661,-1.7602,-1.7595,-1.7595,-1.7595,-1.7595,-1.7595,-1.7608,-1.7608,-1.7608,-1.7608,-1.7608,-1.7622,-1.7869,-1.7809,-1.7529,-1.7742,-1.7695,-1.745,-1.7503,-1.7529,-1.7496,-1.7274,-1.7186,-1.7146,-1.6762,-1.663,-1.668,0.0,0.0,0.0,0.0,0.0,0.4176,0.3817,0.3692,0.3521,0.3235,0.3371,0.0,0.0,0.0,0.0,0.0,0.0536,-0.0161,-0.0853,-0.0733,-0.0547,-0.0368,-0.0118,-0.0034,-0.0121,0.0619,0.0995,0.0974,0.2244,0.3195,0.3826,0.4608,0.5885,0.7536,0.832,0.9626,1.1229,1.1583,1.2254,1.3026,1.2537,1.2276,1.2116,1.1339,1.075,1.0403,0.0,0.0,0.0,1.2813,1.3164,1.3756,1.4053,1.4137,1.3823,1.2269,1.0516,0.8558,0.6189,0.0,0.3549,0.1828,-0.0302,-0.2421,-0.4065,-0.6664,-0.9256,-1.1196,-1.2425,-1.3587,-1.4957,-1.6164,-1.7253,-1.8269,-1.9232,-1.9436,-1.8197,-1.8228,-1.7654,-1.5769,-1.6977,0.0,0.0,0.0,0.0,-1.7937,-1.8746,-1.8821,-1.7648,-1.7776,-1.7769,-1.7615,-1.7782,-1.7789,-1.7615,-1.7608,-1.7608,-1.7608,-1.7608,-1.7608,-1.7615,-1.7689,-1.7796,-1.7869,-1.7976,-1.7962,-1.7862,-1.7862,-1.7769,-1.7595,-1.7501,-1.7468,-1.7448,-1.7347,-1.7314,-1.7261,0.0,0.0,0.0,0.0,0.0,0.0,0.0,0.0,0.0,0.0,0.0,0.0,0.0,0.0,0.0,0.0,0.0,-0.0157,-0.0854,0.0,-0.1121,-0.1049,-0.1035,-0.1074,-0.1153,-0.0438,-0.0046,-0.0012,0.1248,0.2175,0.2792,0.3389,0.4534,0.6087,0.6698,0.7854,0.9394,0.974,1.0314,1.0957,1.0611,1.0285,0.9953,0.939,0.8931,0.0,0.0,0.0,0.0,1.1363,1.2129,1.3064,1.3232,1.3074,1.2285,0.9503,0.7618,0.5681,0.225,0.039,-0.1049,-0.2939,-0.49,-0.6638,-0.7711,-0.9807,-1.1869,-1.3115,-1.4074,-1.4915,-1.5666,-1.6638,-1.761,-1.8473,-1.9063,-1.9198,-1.8518,-1.8277,-1.7569,-1.5917,-1.7118,-1.7785,0.0,0.0,0.0,-1.7743,-1.8713,-1.8829,-1.7648,-1.7849,-1.7929,-1.7756,-1.8022,-1.8029,-1.7749,-1.7749,-1.7695,-1.7608,-1.7608,-1.7608,-1.7615,-1.7695,-1.7829,-1.7995,-1.7995,-1.7995,-1.7982,-1.7896,-1.7762,-1.7608,-1.7608,-1.7608,-1.7608,-1.7608,-1.7608,-1.7582,0.0,0.0,0.0,0.0,0.0,0.0,0.0,0.0,0.0,0.0,0.0,0.0,0.0,0.0,0.0,0.0,0.0,0.0,0.0,0.0,0.0,-0.1269,-0.1045,-0.0914,-0.0922,-0.0897,-0.0737,-0.043,0.0306,0.0873,0.1314,0.2461,0.3635,0.4815,0.5518,0.64,0.7372,0.7638,0.7722,0.7667,0.7775,0.7345,0.6694,0.7221,0.0,0.0,0.0,0.0,0.0,1.0719,1.1663,1.2223,1.2636,1.21,1.0584,0.677,0.4816,0.2782,-0.2337,-0.4433,-0.5947,-0.9199,-1.0042,-1.0343,-1.1404,-1.3072,-1.4228,-1.3537,-1.488,-1.6063,0.0,0.0,-1.6521,-1.7451,-1.7272,-1.7244,-1.7965,-1.7214,-1.6522,0.0,0.0,0.0,0.0,0.0,0.0,-1.8454,0.0,-1.8928,-1.7681,-1.7889,-1.8029,-1.8042,-1.8343,-1.8343,-1.7995,-1.7975,-1.7849,-1.7608,-1.7608,-1.7615,-1.7642,-1.7882,-1.8009,-1.8035,-1.8035,-1.8029,-1.8022,-1.7749,-1.7635,-1.7608,-1.7608,-1.7608,-1.7608,-1.7608,-1.7608,-1.7608,0.0,0.0,0.0,0.0,0.0,0.0,0.0,0.0,0.0,0.0,0.0,0.0,0.0,0.0,0.0,0.0,0.0,0.0,0.0,0.0,0.0,0.0,0.0,0.0,0.0,0.0,0.0,0.0,0.0,0.0514,0.1157,0.1465,0.2198,0.3271,0.3565,0.4304,0.5361,0.5678,0.6283,0.7,0.0,0.6837,0.7062,0.0,0.0,0.0,0.0,0.0,0.0,0.0,1.0425,1.1442,1.1018,0.9398,0.7114,0.4369,0.1148,-0.2298,-0.5888,-0.773,-0.9062,-1.0924,-1.1939,-1.2702,-1.3477,-1.4156,-1.4637,-1.4702,-1.4736,-1.4832,0.0,0.0,0.0,-1.997,-2.1472,0.0,-2.0549,-2.0348,0.0,-1.6889,0.0,-1.7539,-1.7023,-1.7422,0.0,0.0,-1.7929,-1.784,-1.7903,-1.8389,-1.8569,-1.8384,-1.845,-1.8343,-1.7995,-1.7789,-1.7662,-1.7608,-1.7608,-1.7702,-1.7902,-1.7955,-1.8256,-1.8669,-1.8669,-1.8549,-1.837,-1.829,-1.8023,-1.7608,-1.7608,-1.7608,-1.7608,-1.7608,-1.7608,-1.7608,0.0,0.0,0.0,0.0,0.0,0.0,0.0,0.0,0.0,0.0,0.0,0.0,0.0,0.0,0.0,0.0,0.0,0.0,0.0,0.0,0.0,0.0,0.0,0.0,0.0,0.0,0.0,0.0,0.0,0.0,0.0,0.1399,0.1924,0.2715,0.2964,0.3395,0.3959,0.4201,0.0,0.0,0.0,0.0,0.0,0.0,0.0,0.0,0.0,0.0,0.0,0.0,0.0,1.0531,0.8872,0.6588,0.3773,0.0038,-0.3364,-0.662,-0.9807,-1.1237,-1.2099,-1.3173,-1.376,-1.415,-1.4283,-1.4288,-1.423,-1.4171,-1.384,-1.3722,-1.4144,-1.5789,0.0,0.0,0.0,0.0,-2.0704,-2.0587,-1.9727,0.0,-1.7502,0.0,-1.7562,-1.7695,-1.7909,0.0,-1.7802,-1.7749,-1.8189,-1.8649,-1.8816,-1.8684,-1.8684,-1.8449,-1.7995,-1.7842,-1.7716,-1.7608,-1.7608,-1.7749,-1.7995,-1.7995,-1.8343,-1.8883,-1.8623,-1.8489,-1.847,-1.8203,-1.7916,-1.7608,-1.7608,-1.7608,-1.7608,-1.7608,-1.7608,-1.7608,0.0,0.0,0.0,0.0,0.0,0.0,0.0,0.0,0.0,0.0,0.4586,0.0,0.0,0.0,0.0,0.0,0.0,0.0,0.0,0.0,0.0,0.0,0.0,0.0,0.0,0.0,0.0,0.0,0.0,0.0,0.0,0.0,0.0,0.0,0.0,0.0,0.0,0.0,0.0,0.0,0.0,0.0,0.0,0.0,0.0,0.0,0.0,0.0,0.0,0.0,0.7728,0.9179,0.6482,0.3738,0.0508,-0.4572,-0.7744,-1.0274,-1.3268,-1.4291,-1.4631,-1.5245,-1.523,-1.4927,-1.443,-1.4015,-1.3546,-1.2956,-1.2743,-1.2705,-1.2868,-1.4101,-1.5759,-1.7719,0.0,-1.9759,-1.9865,-1.9668,-1.9033,-1.7759,-1.7902,-1.8123,-1.8083,-1.8089,-1.8256,-1.8584,-1.8303,-1.8249,-1.8537,-1.8824,-1.8936,-1.8896,-1.8856,-1.8576,-1.7995,-1.7955,-1.7842,-1.7642,-1.7642,-1.7829,-1.8109,-1.8109,-1.8416,-1.8863,-1.8356,-1.8236,-1.839,-1.7862,-1.7615,-1.7608,-1.7608,-1.7608,-1.7608,-1.7608,-1.7608,-1.7608,0.0,0.0,0.0,0.0,0.0,0.0,0.0,0.0,0.0,0.0,0.4483,0.4155,0.0,0.0,0.0,0.0,0.0,0.0,0.0,0.0,0.0,0.0,0.0,0.0,0.0,0.0,0.0,0.0,0.0,0.0,0.0,0.0,0.0,0.0,0.0,0.0,0.0,0.0,0.0,0.0,0.0,0.0,0.0,0.0,0.0,0.0,0.0,0.0,0.0,0.0,0.5812,0.6388,0.4398,0.1035,-0.2729,-0.5507,-0.9431,-1.3053,-1.3742,-1.4718,-1.5527,-1.5408,-1.5327,-1.5222,-1.506,-1.4383,0.0,0.0,-1.2471,-1.192,-1.1801,-1.3598,-1.5792,-1.7892,-2.0059,-2.1309,-2.0838,-2.0963,-2.0246,0.0,-1.8283,-1.8649,-1.8437,-1.8603,0.0,0.0,-1.8938,-1.8763,-1.8816,-1.9125,-1.9178,-1.8903,-1.8691,-1.8397,-1.7995,-1.7796,-1.7762,-1.7936,-1.7936,-1.8223,-1.8743,-1.8743,-1.8803,-1.889,-1.8783,0.0,-1.8089,-1.7982,-1.7789,-1.7608,-1.7608,-1.7608,-1.7608,-1.7608,-1.7608,-1.7608,0.0,0.0,0.0,0.0,0.0,0.0,0.0,0.5091,0.509,0.5098,0.4606,0.4401,0.4776,0.446,0.4189,0.0,0.0,0.0,0.0,0.0,0.0,0.0,0.0,0.0,0.0,0.0,0.0,0.0,0.0,0.0,0.0,0.0,0.0,0.0,0.0,0.0,0.0,0.0,0.0,0.0,0.0,0.0,0.0,0.0,0.0,0.0,0.0,0.0,0.0,0.0,0.3548,0.2653,0.1371,-0.2058,-0.6097,-0.8676,-1.2085,-1.5078,-1.5133,-1.5588,-1.6055,-1.6022,-1.5362,-1.4791,-1.5076,0.0,0.0,0.0,-1.1537,-1.089,-1.1318,-1.2601,0.0,-1.6767,-1.8704,-2.0201,-2.096,-2.0722,-2.0119,-1.9232,-1.8995,-1.8931,0.0,-1.9072,-1.9241,-1.9388,-1.9951,-2.0309,-2.0309,-2.0451,-1.9989,-1.8739,-1.8711,-1.8424,-1.7809,-1.7969,-1.805,-1.7995,-1.8176,-1.8476,-1.8896,-1.8896,-1.8896,-1.889,-1.8736,-1.8423,-1.7975,-1.7842,-1.7716,-1.7608,-1.7608,-1.7608,-1.7608,-1.7608,-1.7608,-1.7608,0.0,0.0,0.0,0.0,0.0,0.0,0.0,0.4876,0.4796,0.5069,0.478,0.4679,0.5054,0.478,0.4519,0.0,0.0,0.0,0.0,0.0,0.0,0.0,0.0,0.0,0.0,0.0,0.0,0.3355,0.0,0.0,0.0,0.0,0.0,0.0,0.0,0.0,0.0,0.0,0.0,0.0,0.0,0.0,0.0,0.0,0.0,0.0,0.0,0.0,0.0,0.0,0.1634,-0.0307,-0.1229,-0.4523,-0.8573,-1.118,-1.3915,-1.6123,-1.619,-1.6203,-1.6211,-1.6258,-1.5372,-1.4551,-1.4723,-1.3328,0.0,-1.1636,-1.0688,-1.0098,-1.0731,-1.1489,-1.2797,0.0,-1.6679,-1.8159,-2.0004,-1.9652,-1.9363,0.0,-1.9306,0.0,-1.9281,-1.9415,0.0,-1.9962,-2.1669,-2.2356,-2.1643,-2.1242,-2.0259,-1.8653,-1.8656,-1.8396,-1.7809,-1.819,-1.8343,-1.8209,-1.847,-1.8738,-1.9018,-1.9018,-1.8951,-1.879,-1.8591,-1.8283,-1.7902,-1.7682,-1.7608,-1.7608,-1.7608,-1.7608,-1.7608,-1.7608,-1.7608,-1.7608,0.0,0.0,0.0,0.0,0.0,0.0,0.0,0.487,0.4797,0.5069,0.4855,0.4788,0.5074,0.4539,0.4292,0.0,0.0,0.0,0.0,0.0,0.0,0.0,0.0,0.0,0.0,0.0,0.0,0.4188,0.4475,0.0,0.0,0.0,0.0,0.0,0.0,0.5145,0.0,0.0,0.0,0.0,0.0,0.0,0.0,0.0,0.0,0.0,0.0,0.0,0.0,0.0,0.0,-0.0862,-0.2155,-0.5305,-0.8865,-1.0597,0.0,0.0,-1.5775,-1.5848,-1.5718,-1.5269,-1.531,-1.5148,-1.3929,0.0,-1.2582,-1.1188,-1.0559,-1.0074,-0.9501,-1.048,-1.1943,-1.3633,0.0,-1.6091,-1.7387,-1.7946,-1.8142,-1.7909,0.0,0.0,-1.893,-1.9446,-2.0353,-2.1823,-2.4601,-2.4881,-2.1771,-2.004,-1.9045,-1.8856,-1.8363,-1.8189,-1.841,-1.8169,-1.8316,-1.8816,-1.8843,-1.9038,-1.9354,-1.9354,-1.9067,-1.8531,-1.8504,-1.8163,0.0,-1.7622,-1.7608,-1.7608,-1.7608,-1.7608,-1.7608,-1.7608,-1.7608,-1.7608,0.0,0.0,0.0,0.0,0.0,0.0,0.4641,0.4527,0.4552,0.4829,0.4556,0.4534,0.504,0.4652,0.4441,0.4684,0.0,0.0,0.0,0.0,0.0,0.0,0.0,0.0,0.0,0.0,0.4758,0.502,0.5289,0.0,0.0,0.0,0.0,0.0,0.0,0.5644,0.5741,0.0,0.0,0.0,0.0,0.0,0.0,0.0,0.0,0.0,0.0,0.0,0.0,0.0,0.0,0.0,-0.0808,-0.3573,0.0,0.0,-1.152,-1.4005,-1.4284,-1.5054,-1.5826,-1.5932,-1.5397,-1.477,-1.453,0.0,-1.2138,-1.1528,-1.081,-1.0265,-1.0129,-1.0362,-1.1151,-1.2932,0.0,0.0,-1.6879,-1.7062,-1.7333,-1.8164,-1.8171,0.0,0.0,0.0,-2.0423,-2.1948,-2.3053,-2.3049,-2.1678,-2.1615,-2.0692,-1.8727,-1.8437,-1.8256,-1.8196,-1.8429,-1.8663,-1.8896,-1.9105,-1.9158,-1.9098,-1.9098,-1.8778,-1.8196,-1.8196,-1.8056,0.0,-1.7836,-1.7829,-1.7842,-1.7829,-1.7749,-1.7608,-1.7608,-1.7608,-1.7609,0.0,0.0,0.0,0.0,0.0,0.4631,0.4446,0.4288,0.4283,0.4542,0.4335,0.4372,0.4919,0.4799,0.4746,0.4918,0.4868,0.0,0.0,0.0,0.0,0.0,0.0,0.0,0.0,0.0,0.5513,0.5858,0.6199,0.629,0.0,0.0,0.6317,0.5995,0.0,0.0,0.0,0.0,0.0,0.0,0.0,0.0,0.0,0.0,0.0,0.0,0.0,0.0,0.0,0.0,0.0,0.0,0.0,0.0,0.0,0.0,-0.9779,-1.2242,-1.2562,-1.3791,-1.5002,-1.5167,-1.4635,-1.4055,0.0,0.0,-1.1378,-1.1242,-1.0635,-1.0177,-1.0365,-1.0323,-1.0709,-1.2108,0.0,-1.362,-1.5553,-1.573,-1.6175,0.0,0.0,-1.8243,0.0,-2.0443,-2.1635,-2.2782,-2.2618,-2.2178,-2.1508,-2.2296,-2.1464,-1.8708,-1.845,-1.8316,-1.8276,-1.8689,-1.8936,-1.9058,-1.9294,-1.9212,-1.8896,-1.8896,-1.8576,-1.7995,-1.7995,-1.7995,0.0,-1.7995,-1.8063,-1.815,-1.8049,-1.7882,-1.7709,-1.7615,-1.7642,-1.7736,0.0,0.0,0.0,0.0,0.0,0.0,0.4691,0.4247,0.3996,0.4273,0.43,0.4401,0.4671,0.4932,0.5199,0.5469,0.5253,0.0,0.0,0.0,0.0,0.0,0.0,0.0,0.0,0.0,0.6156,0.6687,0.7219,0.721,0.6707,0.7509,0.7276,0.6202,0.0,0.0,0.0,0.0,0.0,0.0,0.0,0.0,0.0,0.0,0.0,0.0,0.0,0.0,0.0,0.0,0.0,0.0,0.0,0.1214,-0.0344,0.0,-0.8127,-1.0327,-1.0723,-1.1906,-1.2861,-1.2129,-1.2732,-1.3179,0.0,-1.1046,-1.0384,-0.992,-0.9763,-0.9708,-0.9708,-1.0191,-1.0687,-1.0965,-1.1253,0.0,-1.2708,-1.3581,-1.4452,0.0,0.0,-1.8952,-2.0163,-2.2807,-2.4572,-2.4841,-2.4622,0.0,-2.1304,-2.1211,-2.0502,-1.8946,-1.8329,-1.8303,-1.8883,-1.889,-1.9072,-1.9395,-1.9395,-1.9212,-1.8896,-1.8896,-1.8576,-1.7995,-1.7995,-1.7995,0.0,-1.7995,-1.8196,-1.8457,-1.8136,-1.7989,-1.7949,-1.7695,-1.7776,-1.7969,0.0,0.0,0.0,0.0,0.0,0.0,0.0,0.4125,0.4063,0.4512,0.4411,0.4537,0.5175,0.532,0.5533,0.5936,0.5608,0.0,0.0,0.0,0.0,0.0,0.0,0.0,0.0,0.0,0.6758,0.6833,0.7418,0.7474,0.7049,0.7166,0.7023,0.6681,0.6761,0.6841,0.0,0.0,0.0,0.0,0.0,0.0,0.0,0.0,0.0,0.0,0.0,0.0,0.0,0.0,0.0,0.0,0.0,0.0,0.0,-0.1446,-0.4578,-0.7619,-0.8933,-1.0437,-1.168,-1.1859,-1.2053,-1.2042,-1.1402,-1.0236,-0.9373,-0.9725,-0.9194,-0.8879,-0.9574,-1.0015,-1.0564,-1.1467,-1.2214,0.0,0.0,0.0,0.0,-1.8206,-2.0418,-2.1749,0.0,0.0,-2.3301,-2.1554,-2.2103,-2.1669,-1.9738,-1.9632,-1.9324,-1.8659,-1.8609,-1.8703,-1.8896,-1.9125,-1.9301,-1.9395,-1.9395,-1.9212,-1.889,-1.8718,-1.8389,-1.7982,-1.7822,-1.7822,-1.8009,-1.8236,-1.8404,-1.8504,-1.8576,-1.8496,-1.8337,-1.8237,-1.8263,-1.8364,0.0,0.0,0.0,0.0,0.0,0.0,0.0,0.4227,0.4171,0.4501,0.4486,0.4636,0.5141,0.5377,0.5661,0.6056,0.5888,0.0,0.0,0.0,0.0,0.0,0.0,0.0,0.0,0.66,0.6965,0.7091,0.7672,0.7717,0.7282,0.7351,0.7172,0.6791,0.687,0.6944,0.0,0.0,0.0,0.0,0.0,0.0,1.0053,0.0,0.0,0.0,0.0,0.0,0.0,0.0,0.0,0.0,0.0,0.0,0.0,0.0,-0.1988,-0.4758,-0.6366,-0.834,-0.9966,-1.0057,-1.0576,-1.083,-0.9996,0.0,-0.8449,-0.8909,-0.8578,-0.8474,-0.9351,-1.0083,-1.0696,-1.1155,-1.2562,0.0,0.0,0.0,0.0,-2.0623,0.0,0.0,0.0,-2.3592,-2.2936,-2.0852,-2.0736,-2.023,-1.8966,-1.9032,-1.8958,-1.8664,-1.8803,-1.895,-1.9092,-1.9308,-1.9395,-1.9395,-1.9395,-1.918,-1.8751,-1.8577,-1.8263,-1.7836,-1.7669,-1.7756,0.0,-1.837,-1.8557,-1.8657,-1.8731,-1.8651,-1.8464,-1.823,-1.8297,-1.8504,0.0,0.0,0.0,0.0,0.0,0.0,0.0,0.4512,0.4344,0.4376,0.4587,0.475,0.4805,0.5252,0.5656,0.5929,0.6123,0.0,0.0,0.0,0.0,0.0,0.0,0.0,0.6193,0.6494,0.6887,0.7368,0.791,0.7905,0.7393,0.7887,0.7574,0.6633,0.688,0.7115,0.0,0.0,0.0,0.0,0.916,0.9413,0.0,0.0,0.0,0.0,0.0,0.0,0.0,0.0,0.0,0.0,0.0,0.0,0.0,0.0,0.0,0.0,0.0,-0.5774,-0.7845,-0.7285,-0.8512,-0.9476,-0.8024,0.0,0.0,-0.7683,-0.7903,-0.8323,-0.9118,-1.0314,-1.0981,-1.0355,-1.2341,0.0,0.0,-1.6156,0.0,0.0,-2.3863,0.0,-2.5041,-2.4196,-2.3203,-2.2091,-2.0388,-1.9239,-1.891,-1.9234,-1.9261,-1.8903,-1.8916,-1.9085,-1.9395,-1.9395,-1.9395,-1.9395,-1.9374,-1.908,-1.8517,-1.8477,-1.815,0.0,-1.7622,-1.7749,-1.8009,-1.8357,-1.8651,-1.8843,-1.8617,-1.8524,-1.8457,-1.7889,-1.8036,-1.8484,0.0,0.0,0.0,0.0,0.0,0.0,0.0,0.0,0.0,0.0,0.5093,0.5222,0.5786,0.5957,0.6146,0.0,0.0,0.0,0.0,0.0,0.0,0.0,0.0,0.0,0.6193,0.6863,0.7144,0.7014,0.7601,0.7668,0.725,0.7222,0.7068,0.6858,0.7576,0.8178,0.0,0.0,0.0,0.0,0.9533,0.9525,0.0,0.0,0.0,0.0,0.7929,0.7623,0.0,0.0,0.0,0.0,0.0,0.0,0.0,0.0,-0.0091,-0.2021,-0.2339,0.0,-0.6107,-0.7272,-0.7486,-0.7472,0.0,0.0,0.0,0.0,0.0,-0.7572,-0.953,-0.9995,-1.0443,-1.1605,0.0,-1.3612,-1.6204,0.0,0.0,-2.2083,-2.325,-2.3421,-2.1956,-2.1987,-2.1538,-2.0165,-1.966,-1.9239,-1.891,-1.9234,-1.9261,-1.8903,-1.9145,-1.9328,-1.9395,-1.9395,-1.9395,-1.9395,-1.9138,-1.8951,-1.8776,-1.8329,-1.8049,-1.7896,-1.7689,-1.7648,-1.7736,-1.827,-1.8531,-1.8604,-1.8764,-1.8824,-1.8776,-1.8664,-1.8669,-1.8816,0.0,0.0,0.0,0.0,0.0,0.0,0.0,0.0,0.0,0.0,0.0,0.5432,0.5838,0.6072,0.0,0.0,0.0,0.0,0.0,0.0,0.0,0.0,0.0,0.6146,0.6375,0.705,0.7318,0.7129,0.7819,0.7872,0.7284,0.731,0.7118,0.6804,0.7773,0.8587,0.9218,0.0,0.0,0.0,0.9804,0.0,0.0,0.0,0.0,0.0,0.7485,0.7065,0.0,0.6437,0.6401,0.6331,0.0,0.0,0.0,0.0,0.0,-0.2013,-0.2075,-0.3605,-0.5389,-0.6209,-0.6504,-0.6585,-0.6519,0.0,0.0,0.0,0.0,-0.7142,-0.8908,-0.9889,-1.0873,0.0,-1.3063,0.0,0.0,0.0,-2.1855,-2.2623,-2.3125,-2.2718,0.0,-2.1315,-2.0981,-1.9504,-1.9395,-1.9328,-1.9132,-1.9308,-1.9261,-1.8903,-1.9241,-1.9328,-1.9165,-1.9165,-1.9098,-1.8993,-1.8804,-1.8629,-1.8483,-1.8135,-1.7942,-1.7796,-1.7655,-1.7608,-1.7615,-1.809,-1.8263,-1.8303,-1.8429,-1.8576,-1.8691,-1.841,-1.8484,-1.8744,0.0,0.0,0.0,0.0,0.0,0.0,0.0,0.0,0.0,0.0,0.0,0.0,0.0,0.0,0.0,0.0,0.0,0.0,0.0,0.0,0.0,0.0,0.0,0.6368,0.6715,0.7109,0.737,0.7449,0.8009,0.7948,0.7321,0.7488,0.7295,0.6885,0.7797,0.8653,0.9401,0.9401,0.0,0.0,0.9953,0.0,0.0,0.0,0.0,0.0,0.0,0.0,0.0,0.6089,0.6104,0.5904,0.4972,0.0,0.0,0.0,0.0,0.0,-0.2006,-0.3397,-0.4854,-0.4968,-0.5636,-0.6076,-0.5334,0.0,0.0,0.0,0.0,0.0,0.0,-0.9861,0.0,0.0,0.0,0.0,-1.9199,-1.9831,-2.0667,-2.2502,-2.2426,0.0,-2.0661,-2.0912,-2.063,-1.9408,-1.9287,-1.9301,-1.9395,-1.9354,-1.9185,-1.8903,-1.9165,-1.9132,-1.8763,-1.885,-1.8778,-1.849,-1.8444,-1.8263,-1.7995,-1.7969,-1.7802,-1.7608,-1.7608,0.0,-1.7609,-1.7889,-1.7995,-1.7995,-1.7995,-1.8176,-1.8357,-1.7842,-1.7983,-1.8437,0.0,0.0,0.0,0.0,0.0,0.0,0.0,0.0,0.0,0.0,0.0,0.0,0.0,0.0,0.0,0.0,0.0,0.0,0.0,0.0,0.0,0.6599,0.6345,0.6537,0.7264,0.7078,0.7201,0.7658,0.7096,0.6879,0.6969,0.6607,0.699,0.7958,0.8125,0.8653,0.9401,0.9401,0.9274,0.9128,0.9754,0.0,0.0,0.0,0.0,0.0,0.0,0.0,0.0,0.5555,0.5448,0.524,0.4074,0.0,0.0,0.0,0.0,0.0,-0.126,-0.196,-0.3121,-0.4952,-0.5115,-0.4931,-0.5345,0.0,0.0,0.0,0.0,0.0,0.0,-0.9649,-1.0566,0.0,0.0,-1.6601,0.0,0.0,-1.918,-1.8305,0.0,-1.8885,-1.8189,-1.8639,-1.897,-1.8971,-1.8764,-1.8873,-1.9368,-1.9125,-1.8943,-1.8896,-1.8936,-1.8703,-1.8129,-1.8649,-1.8778,-1.849,-1.8209,-1.8035,-1.7982,-1.7749,-1.7629,-1.7608,0.0,-1.7608,-1.7609,-1.7889,-1.7995,-1.7995,-1.7995,-1.8022,-1.8076,-1.7955,-1.8009,-1.8156,0.0,0.0,0.0,0.0,0.0,0.0,0.0,0.0,0.0,0.0,0.0,0.0,0.0,0.0,0.0,0.0,0.0,0.0,0.0,0.0,0.6599,0.6599,0.658,0.6743,0.7119,0.7548,0.7801,0.7867,0.7564,0.731,0.7105,0.649,0.6913,0.8215,0.8581,0.892,0.9257,0.962,0.963,0.9417,0.0,0.0,0.0,0.0,0.0,0.0,0.0,0.0,0.0,0.0,0.5022,0.465,0.369,0.0,0.0,0.0,0.0,0.0,-0.167,-0.2466,-0.3552,-0.4675,-0.4426,-0.4095,-0.4797,0.0,0.0,0.0,0.0,0.0,0.0,0.0,-1.1571,-1.3654,0.0,-1.7199,-1.7258,-1.7658,-1.7995,0.0,0.0,-1.7956,-1.7816,-1.823,-1.8544,-1.8677,-1.8564,-1.8677,-1.9105,-1.897,-1.8823,-1.8698,-1.881,-1.8529,-1.7776,-1.8203,-1.8269,-1.8023,-1.7862,-1.7769,-1.7789,-1.7649,-1.7608,-1.7608,0.0,-1.7608,-1.7622,-1.7736,-1.7769,-1.7769,-1.7769,-1.7876,-1.7995,-1.7995,-1.7995,-1.8083,0.0,0.0,0.0,0.0,0.0,0.0,0.0,0.0,0.0,0.0,0.0,0.0,0.0,0.0,0.0,0.0,0.0,0.0,0.0,0.0,0.6814,0.6852,0.7127,0.7168,0.6952,0.7707,0.7967,0.7674,0.7591,0.7316,0.6876,0.6559,0.7021,0.8136,0.885,0.9109,0.9029,0.961,0.9805,0.971,0.0,0.0,0.0,0.0,0.0,0.0,0.0,0.0,0.0,0.0,0.0,0.0,0.0,0.0,0.0,0.0524,-0.0685,-0.1795,-0.204,-0.2882,-0.3768,-0.4087,-0.3908,-0.3822,-0.4453,0.0,0.0,0.0,0.0,0.0,0.0,-1.0724,0.0,-1.4604,-1.6134,-1.7269,-1.7708,-1.7234,-1.7294,-1.852,-1.7972,-1.7602,-1.7882,-1.8016,-1.8156,-1.837,-1.8257,-1.8364,-1.877,-1.8723,-1.8611,-1.8397,-1.8576,-1.835,-1.7615,-1.7756,-1.7749,-1.7608,-1.7608,-1.7608,-1.7608,-1.7608,-1.7608,-1.7608,-1.7535,-1.7548,-1.7608,-1.7535,-1.7548,-1.7608,-1.7608,-1.7729,-1.7916,-1.7916,-1.7916,-1.7956,0.0,0.0,0.0,0.0,0.0,0.0,0.0,0.0,0.0,0.0,0.0,0.0,0.0,0.0,0.0,0.0,0.0,0.0,0.0,0.0,0.7426,0.7607,0.8104,0.7981,0.7107,0.6977,0.6852,0.6704,0.5958,0.5616,0.5651,0.6596,0.7317,0.7871,0.8724,0.8935,0.866,0.9013,0.9273,0.9434,0.9497,0.0,0.0,0.0,0.0,0.0,0.0,0.0,0.0,0.0,0.0,0.0,0.0,0.0,0.0626,-0.1104,-0.1309,-0.1099,-0.1674,-0.1985,-0.233,-0.3024,-0.3818,0.0,-0.4808,-0.4879,0.0,-0.6801,0.0,0.0,0.0,-1.2177,-1.37,-1.4421,-1.5316,-1.6121,-1.6718,0.0,-1.7305,-1.7673,-1.7406,-1.7321,-1.7589,-1.7141,-1.7155,-1.7989,-1.7562,-1.7648,-1.8477,-1.8243,-1.8049,-1.8056,-1.8042,-1.7916,-1.7615,-1.7361,-1.7361,-1.7608,-1.7608,-1.7608,-1.7608,-1.7608,-1.7608,-1.7595,-1.7347,-1.7361,-1.7588,-1.734,-1.7367,-1.7608,-1.7608,-1.7622,-1.7642,-1.7642,-1.7642,-1.7662,0.0,0.0,0.0,0.0,0.0,0.0,0.0,0.0,0.0,0.0,0.0,0.0,0.0,0.0,0.0,0.0,0.0,0.0,0.0,0.7519,0.7581,0.7987,0.768,0.703,0.6005,0.6514,0.6574,0.61,0.5543,0.561,0.6252,0.666,0.7371,0.8328,0.9076,0.9068,0.8513,0.9063,0.926,0.9219,0.9237,0.9931,0.0,0.0,0.0,0.0,0.0,0.0,0.0,0.0,0.2858,0.211,0.0779,0.0097,-0.0358,-0.1039,-0.1607,-0.2026,-0.2044,-0.2694,-0.3461,-0.3867,0.0,0.0,0.0,-0.5794,-0.6663,-0.7194,-0.8875,0.0,0.0,0.0,-1.4414,-1.5188,-1.5765,-1.6246,-1.6647,-1.7707,-1.8369,-1.8189,-1.8329,-1.8369,-1.8189,-1.728,-1.6847,-1.7162,-1.72,-1.7427,-1.7896,-1.7969,-1.8009,-1.7995,-1.7995,-1.7782,-1.7373,-1.7253,-1.714,-1.7041,-1.7041,-1.7041,-1.7041,-1.7254,-1.724,-1.7054,-1.7334,-1.7301,-1.7041,-1.7172,-1.7266,-1.738,-1.7535,-1.7608,-1.7608,-1.7608,-1.7608,-1.7648,0.0,0.0,0.0,0.0,0.0,0.0,0.0,0.0,0.0,0.0,0.0,0.0,0.0,0.0,0.0,0.0,0.0,0.0,0.8266,0.8166,0.8228,0.8529,0.7746,0.6735,0.5488,0.5777,0.5706,0.5231,0.5131,0.5536,0.6423,0.6788,0.7533,0.8593,0.9243,0.9231,0.8733,0.9099,0.9344,0.948,0.9166,0.9754,0.0,0.0,0.0,0.0,0.0,0.0,0.0,0.0,0.2117,0.1355,0.0,-0.0513,-0.0726,-0.1302,-0.1947,-0.2475,-0.2435,-0.3288,-0.4244,0.0,0.0,0.0,-0.5942,-0.6869,-0.7855,-0.8776,-1.0818,0.0,0.0,0.0,0.0,0.0,-1.5818,-1.6378,-1.7056,-1.8133,-1.8914,-1.9073,-1.8958,-1.8766,-1.8516,-1.7243,-1.6482,-1.6693,-1.6832,-1.7026,-1.7288,-1.7482,-1.7596,-1.7596,-1.7596,-1.7396,-1.704,-1.6971,-1.6799,-1.6567,-1.6473,-1.6526,-1.6714,-1.6939,-1.6926,-1.6727,-1.706,-1.6994,-1.6714,-1.6852,-1.6978,-1.7066,-1.7361,-1.7468,-1.7481,-1.7575,-1.7608,-1.7642,0.0,0.0,0.0,0.0,0.0,0.0,0.0,0.0,0.6611,0.6599,0.6774,0.0,0.0,0.0,0.0,0.0,0.0,0.0,0.9111,0.9416,0.9513,0.9314,0.8592,0.7432,0.5838,0.4685,0.4067,0.3992,0.4539,0.5151,0.5835,0.6968,0.7865,0.8542,0.9134,0.9401,0.9385,0.9054,0.9475,1.0315,0.9308,0.9868,1.1116,0.0,0.0,0.0,0.0,0.0,0.0,0.0,0.1524,0.051,-0.0558,-0.0492,-0.0371,-0.2159,-0.2367,-0.2148,-0.273,-0.354,-0.4257,0.0,0.0,0.0,-0.7955,-0.8029,-0.8751,-1.1951,0.0,-1.37,-1.4041,0.0,0.0,-1.4461,-1.5241,-1.6347,-1.7886,-1.8122,-1.8691,-2.0208,-1.9048,-1.8225,-1.8471,-1.6852,-1.6048,-1.6653,-1.6458,-1.6424,-1.6687,-1.6707,-1.6707,-1.6707,-1.6707,-1.6707,-1.67,-1.6444,-1.6297,-1.629,-1.5972,-1.6108,-1.67,-1.67,-1.67,-1.668,-1.6424,-1.6458,-1.6673,-1.6417,-1.6464,-1.6734,-1.7053,-1.7199,-1.7239,-1.7495,-1.7608,-1.7608,0.0,0.0,0.0,0.0,0.0,0.0,0.0,0.0,0.7028,0.6649,0.6774,0.0,0.0,0.0,0.0,0.0,0.0,0.0,1.0072,0.978,0.9612,0.9653,0.8043,0.668,0.5681,0.4771,0.4099,0.3647,0.4616,0.5615,0.6655,0.728,0.8127,0.9138,0.9318,0.9404,0.94,0.929,0.9559,1.0014,0.9727,1.0028,1.0559,0.0,0.0,0.0,0.0,0.0,0.0,0.0,0.0,0.0,-0.0565,-0.1136,-0.1414,-0.143,-0.2372,-0.3267,-0.2585,-0.3731,0.0,-0.5723,0.0,0.0,0.0,-1.0421,0.0,0.0,-1.4267,-1.4394,-1.4917,0.0,0.0,-1.5124,-1.5501,-1.6279,-1.7631,-1.8785,-1.9577,-1.9742,-1.9615,-1.9091,-1.803,-1.6632,-1.5875,-1.6055,-1.6206,-1.633,-1.6417,-1.6593,-1.6707,-1.6707,-1.6707,-1.6607,-1.6424,-1.6344,-1.6166,-1.5959,-1.5848,-1.5895,-1.6068,-1.6306,-1.6286,-1.6082,-1.6433,-1.6393,-1.6075,-1.625,-1.6351,-1.6458,-1.6745,-1.6993,-1.7213,-1.73,-1.7434,-1.7608,0.0,0.0,0.0,0.0,0.0,0.0,0.0,0.0,0.7633,0.7317,0.7567,0.7923,0.0,0.0,0.0,0.0,0.0,0.0,1.0622,1.0401,1.0189,1.0013,0.8385,0.6825,0.5394,0.5096,0.4597,0.3854,0.4761,0.5827,0.7051,0.7261,0.7932,0.8971,0.9274,0.9314,0.9169,0.9329,0.9577,0.9846,0.9749,0.9879,1.0071,0.0,0.0,0.0,0.0,0.0,0.0,0.0,0.0,0.0,-0.0841,-0.1439,-0.1652,-0.1689,-0.2866,-0.3999,-0.3271,-0.4654,0.0,-0.6975,-0.8267,-0.9973,-1.2147,0.0,0.0,0.0,0.0,-1.4836,-1.5311,-1.5304,0.0,-1.5378,-1.5621,-1.6244,-1.7528,-1.8543,-1.9235,-1.9476,-1.9294,-1.8769,-1.78,-1.6551,-1.5808,-1.5808,-1.5999,-1.6092,-1.6092,-1.6259,-1.6335,-1.6335,-1.6335,-1.6273,-1.6099,-1.6092,-1.6005,-1.5808,-1.5808,-1.5808,-1.5815,-1.6012,-1.5999,-1.5821,-1.6182,-1.6135,-1.5821,-1.6019,-1.6092,-1.6126,-1.642,-1.6739,-1.7013,-1.7159,-1.7361,-1.7608,0.0,0.0,0.8705,0.8553,0.0,0.0,0.0,0.0,0.8361,0.8306,0.8763,0.9115,0.0,0.0,0.0,1.0119,1.1132,1.1545,1.0937,1.1153,1.1006,1.0332,0.9171,0.7423,0.5033,0.5528,0.5392,0.4534,0.5061,0.5898,0.699,0.6962,0.7394,0.8213,0.8926,0.9055,0.8764,0.9175,0.9491,0.9689,0.9438,0.9485,0.9587,0.8551,0.0,0.0,0.0,0.0,0.0,0.0,0.0,0.0,-0.1205,-0.1481,-0.1425,-0.2581,-0.372,-0.4606,-0.4643,0.0,0.0,-0.8526,-1.0137,0.0,-1.3797,-1.4783,-1.5431,-1.5675,0.0,-1.5146,-1.5384,-1.524,-1.5153,-1.5391,-1.5635,-1.6244,-1.7528,-1.7692,-1.8118,-1.92,-1.8365,-1.7645,-1.7552,-1.648,-1.5849,-1.5967,-1.5872,-1.5849,-1.5967,-1.5849,-1.5808,-1.5808,-1.5808,-1.5808,-1.5808,-1.5808,-1.5808,-1.5808,-1.5808,-1.5808,-1.5808,-1.5808,-1.5808,-1.5808,-1.5808,-1.5808,-1.5808,-1.5808,-1.5808,-1.5828,-1.6126,-1.6406,-1.67,-1.7018,-1.728,-1.7528,0.0,0.0,0.8476,0.8698,0.0,0.0,0.0,0.0,0.0,0.0,0.0,0.0,0.0,0.0,0.0,1.1356,1.164,1.1745,1.159,1.1411,1.1006,1.0332,0.842,0.6575,0.4879,0.552,0.5781,0.5575,0.601,0.6203,0.6167,0.6473,0.6848,0.7298,0.7829,0.816,0.835,0.8757,0.8962,0.9005,0.8949,0.8962,0.8924,0.8118,0.7279,0.0,0.0,0.0,0.0,0.0,0.0,0.0,-0.0719,-0.1497,-0.2101,-0.2844,-0.4512,-0.6191,-0.6516,-0.865,0.0,0.0,-1.344,-1.4757,-1.4799,-1.4946,-1.5099,-1.516,-1.5418,-1.5641,-1.5701,-1.5661,-1.5641,-1.5701,-1.5768,-1.6244,-1.7528,-1.7692,-1.78,-1.8048,-1.787,-1.7318,-1.6322,-1.5967,-1.6204,-1.7225,-1.6362,-1.6251,-1.7248,-1.6339,-1.5808,-1.5808,-1.5808,-1.5808,-1.5808,-1.5808,-1.5808,-1.5808,-1.5808,-1.5808,-1.5808,-1.5808,-1.5808,-1.5808,-1.5808,-1.5808,-1.5808,-1.5808,-1.5808,-1.5815,-1.5875,-1.6106,-1.6397,-1.6464,-1.6672,-1.6894,0.0,0.0,0.0,0.0,0.0,0.0,0.0,0.0,0.0,0.0,0.0,0.0,0.0,1.08,0.0,0.0,1.1805,1.1805,1.1805,1.1643,1.1056,0.9958,0.8569,0.708,0.5504,0.6127,0.6082,0.5278,0.5871,0.6106,0.5994,0.6083,0.6276,0.6608,0.7429,0.7647,0.7426,0.8084,0.8204,0.7961,0.8253,0.8288,0.8129,0.7673,0.6942,0.5995,0.47,0.0,0.0,0.0,0.0,0.0,0.0,0.0,-0.2368,-0.3673,-0.5449,-0.7113,-0.7745,0.0,0.0,-1.4454,0.0,-1.5879,-1.5796,-1.5375,-1.5008,-1.5008,-1.5227,-1.5504,-1.5755,-1.5695,-1.5641,-1.5781,-1.5808,-1.6038,-1.6692,-1.6682,-1.6613,-1.6613,-1.6478,-1.6197,-1.5651,-1.5498,-1.5803,-1.6718,-1.6074,-1.596,-1.6756,-1.6157,-1.5808,-1.5808,-1.5675,-1.5601,-1.5601,-1.5484,-1.5484,-1.5601,-1.5601,-1.5675,-1.5808,-1.5808,-1.5808,-1.5808,-1.5808,-1.5808,-1.5808,-1.5808,-1.5808,-1.5808,-1.5808,-1.6012,-1.6297,-1.6297,-1.6484,-1.6707,0.0,0.0,0.0,0.0,0.0,0.0,0.0,0.0,0.0,0.0,0.0,0.0,0.0,1.1103,1.1417,0.0,0.0,0.0,1.1805,1.1741,1.1063,0.9594,0.9048,0.8045,0.6457,0.6924,0.6409,0.4812,0.5319,0.557,0.5546,0.5469,0.557,0.5855,0.6918,0.697,0.63,0.7144,0.7215,0.6808,0.7306,0.7372,0.7148,0.6969,0.0,0.0,0.0,0.4052,0.3312,0.1919,0.0,0.0,0.0,0.0,-0.2568,-0.4702,-0.6388,-0.7804,-0.8886,0.0,-1.4042,-1.6127,-1.6457,0.0,-1.6622,-1.5813,-1.5079,-1.5236,-1.5136,-1.5133,-1.5591,-1.5484,-1.5398,-1.5621,-1.5655,-1.5675,-1.5721,-1.5504,-1.5337,-1.5391,-1.516,-1.5079,-1.5297,-1.5173,-1.5324,-1.5942,-1.5614,-1.5564,-1.5939,-1.5772,-1.5655,-1.5655,-1.5444,-1.5317,-1.5317,-1.5106,-1.5197,-1.5609,-1.5663,-1.5677,-1.5661,-1.5761,-1.5808,-1.5808,-1.5808,-1.5808,-1.5808,-1.5808,-1.5808,-1.5808,-1.5808,-1.5979,-1.6217,-1.6217,-1.6346,-1.6528,0.0,0.0,0.0,0.0,0.0,0.0,0.0,0.0,0.0,0.0,1.0191,1.0428,1.0465,1.0967,1.1313,1.1352,1.1637,1.1805,1.1805,0.0,0.0,0.9722,0.9327,0.8566,0.7355,0.7458,0.691,0.5646,0.4991,0.421,0.0,0.0,0.0,0.4651,0.0,0.5324,0.5229,0.5706,0.5861,0.5794,0.5881,0.5887,0.5816,0.0,0.0,0.0,0.0,0.0,0.2255,0.1176,0.0475,0.0,0.0,0.0,-0.3238,-0.5551,-0.7191,-0.8687,0.0,0.0,-1.5807,0.0,-1.6657,-1.6905,0.0,0.0,-1.5335,0.0,-1.5651,-1.5013,-1.5086,-1.5073,-1.5059,-1.5093,-1.5099,-1.5186,-1.5418,-1.5227,-1.514,-1.5364,-1.516,-1.4999,-1.5039,-1.5233,-1.57,-1.6603,-1.5889,-1.5764,-1.6625,-1.5664,-1.5099,-1.5099,-1.5066,-1.5046,-1.5046,-1.5028,-1.5478,-1.6448,-1.6674,-1.6206,-1.512,-1.5598,-1.5808,-1.5808,-1.5808,-1.5808,-1.5808,-1.5808,-1.5808,-1.5808,-1.5808,-1.5828,-1.5861,-1.5861,-1.5888,-1.5921,0.0,0.0,0.0,0.0,0.0,0.0,0.0,0.0,0.0,0.0,0.0,1.0644,1.0827,1.0978,1.1138,1.1293,1.1615,1.1805,1.1805,1.1665,1.1154,1.0188,0.9725,0.9015,0.8029,0.7734,0.688,0.5409,0.4567,0.3424,0.0,0.1893,0.2499,0.0,0.0,0.0,0.0,0.521,0.5236,0.4955,0.5295,0.5342,0.0,0.0,0.0,0.0,0.0,0.0,0.0,0.0599,0.0023,-0.0511,-0.2332,0.0,0.0,0.0,-0.7022,0.0,-1.1118,-1.3564,-1.5467,0.0,-1.6343,-1.6723,-1.6997,0.0,-1.5945,-1.5791,-1.5552,-1.5303,-1.5053,-1.4852,-1.477,-1.4959,-1.5008,-1.5033,-1.516,-1.4919,-1.4763,-1.489,-1.4649,-1.4558,-1.4718,-1.4683,-1.4979,-1.5718,-1.5251,-1.5155,-1.5755,-1.5292,-1.5008,-1.5008,-1.4825,-1.4716,-1.4716,-1.4578,-1.4804,-1.5435,-1.6345,-1.6143,-1.5015,-1.5247,-1.5431,-1.5568,-1.5735,-1.5808,-1.5808,-1.5808,-1.5808,-1.5808,-1.5808,-1.5808,-1.5808,-1.5808,-1.5808,-1.5808,0.0,0.0,0.0,0.0,0.0,0.0,0.0,0.0,0.0,0.0,0.0,1.0976,1.1053,0.0,0.0,0.0,1.1812,1.205,1.205,1.1895,1.1464,1.0746,1.0253,0.9605,0.8781,0.8094,0.6876,0.5104,0.4041,0.255,0.0666,-0.0257,0.0205,0.0,0.3002,0.0,0.0,0.0,0.0,0.0,0.0,0.0,0.0,0.0,0.0,0.0,0.0,0.0,0.0,0.0,0.0,-0.1198,-0.2704,-0.3252,0.0,0.0,0.0,0.0,0.0,0.0,-1.4386,-1.5108,-1.5649,-1.6165,0.0,0.0,-1.5942,0.0,-1.5192,-1.5061,-1.4717,-1.4509,-1.4482,-1.4725,-1.4765,-1.4765,-1.4765,-1.4482,-1.4307,-1.4381,-1.4148,-1.4088,-1.4361,-1.4282,-1.437,-1.4738,-1.4603,-1.4583,-1.4758,-1.4765,-1.4765,-1.4765,-1.4529,-1.4387,-1.4387,-1.4479,-1.4465,-1.4416,-1.5806,-1.5878,-1.4787,-1.4941,-1.5066,-1.5197,-1.5535,-1.5695,-1.5701,-1.5775,-1.5808,-1.5808,-1.5808,-1.5808,-1.5808,-1.5808,-1.5808,-1.5808,0.0,0.0,0.0,0.0,0.0,0.0,0.0,0.0,0.0,0.0,0.0,1.1344,1.0791,1.1276,1.1721,1.1861,1.2404,1.275,1.275,1.2155,1.1645,1.1275,1.0994,0.0,0.9742,0.87,0.7159,0.51,0.3336,0.1293,-0.1002,-0.2061,-0.2268,-0.1649,0.0236,0.1398,0.194,0.0,0.0,0.0,0.0,0.0,0.0,0.0,0.0,0.0,0.0,0.0,0.0,0.0,0.0,0.0,0.0,0.0,0.0,0.0,0.0,0.0,0.0,-1.221,0.0,-1.3923,-1.454,0.0,0.0,0.0,-1.4644,-1.5408,-1.4584,-1.3695,-1.3687,-1.3907,-1.4136,-1.4128,-1.4156,-1.4156,-1.4156,-1.3854,-1.3753,-1.4075,-1.3827,-1.376,-1.4082,-1.4342,-1.4396,-1.4155,-1.4376,-1.4409,-1.417,-1.4156,-1.4156,-1.4156,-1.4136,-1.4129,-1.4129,-1.5123,-1.5103,-1.4136,-1.5475,-1.5426,-1.4176,-1.4732,-1.4839,-1.4574,-1.517,-1.5418,-1.5438,-1.5695,-1.5808,-1.5808,-1.5808,-1.5808,-1.5808,-1.5808,-1.5808,-1.5808,0.0,0.0,0.0,0.0,0.0,0.0,0.0,0.0,0.0,0.0,0.0,0.0,0.0,1.1846,1.2033,1.2381,1.3045,1.3436,1.3436,1.322,1.2835,1.229,1.1795,1.1095,1.0146,0.8853,0.718,0.5103,0.2986,0.0702,-0.1709,-0.3044,-0.362,-0.3457,-0.164,-0.0373,0.0394,0.0477,0.0,0.0,0.0,0.0,0.0,0.0,0.0,0.0,0.0,0.0,0.0,0.0,0.0,0.0,0.0,0.0,0.0,0.0,0.0,0.0,0.0,0.0,0.0,-1.2378,-1.341,-1.4547,-1.5312,-1.5274,-1.5016,-1.4812,-1.4416,-1.3954,-1.3446,-1.3587,-1.378,-1.378,-1.3627,-1.3527,-1.3527,-1.3413,-1.3387,-1.3514,-1.3574,-1.3646,-1.3774,-1.4068,-1.4202,-1.4116,-1.3987,-1.3887,-1.3787,-1.3627,-1.3527,-1.3527,-1.3527,-1.3527,-1.3527,-1.4592,-1.4592,-1.3547,-1.4701,-1.4661,-1.354,-1.3914,-1.4034,-1.3967,-1.4554,-1.4943,-1.516,-1.5431,-1.5444,-1.5311,-1.5661,-1.5688,-1.5548,-1.5735,-1.5808,-1.5808,0.0,0.0,0.0,0.0,0.0,1.2659,1.3129,1.3198,1.3198,0.0,0.0,0.0,0.0,0.0,1.2543,1.3116,1.3618,1.3907,1.3907,1.37,1.3325,1.2733,1.2063,1.1315,1.049,0.8781,0.6913,0.4897,0.246,-0.0029,-0.2534,-0.3922,-0.4756,-0.502,-0.391,-0.2607,0.0,0.0,0.0,-0.0278,0.0,0.0,-0.0221,0.0,0.0,0.0,0.0,0.0,0.0,0.0,0.0,0.0,0.0,0.0,0.0,0.0,0.0,0.0,-0.8032,0.0,0.0,0.0,0.0,-1.3383,-1.3647,0.0,-1.4075,-1.3565,-1.3505,-1.3422,-1.298,-1.3146,-1.336,-1.344,-1.332,-1.3173,-1.3086,-1.3072,-1.3072,-1.3072,-1.3227,-1.3367,-1.3467,-1.374,-1.3941,-1.3941,-1.3734,-1.36,-1.36,-1.3347,-1.3193,-1.3193,-1.3193,-1.3193,-1.3193,-1.3915,-1.3915,-1.3213,-1.3927,-1.3895,-1.32,-1.3487,-1.36,-1.3626,-1.4141,-1.4543,-1.4859,-1.5153,-1.516,-1.5033,-1.5491,-1.5565,-1.5431,-1.5695,-1.5808,-1.5808,0.0,0.0,1.2278,1.1879,1.2191,1.2647,1.3123,1.3184,1.3184,0.0,0.0,0.0,0.0,0.0,0.0,1.4048,1.4134,1.412,1.4113,1.3554,1.3022,1.2532,1.1747,1.1143,1.0763,0.8483,0.6366,0.4477,0.1739,-0.0933,-0.3505,0.0,-0.5683,-0.6418,-0.6543,-0.5275,-0.3028,0.0,-0.2728,-0.2292,0.0,-0.2289,-0.2263,0.0,0.0,0.0,-0.1396,-0.1591,0.0,-0.1369,0.0,0.0,0.0,0.0,0.0,0.0,0.0,0.0,0.0,0.0,0.0,0.0,0.0,0.0,-1.1521,0.0,-1.1673,-1.1753,-1.1821,-1.1953,-1.2248,-1.2543,-1.2844,-1.3146,-1.3173,-1.308,-1.2811,-1.2789,-1.2789,-1.2789,-1.2796,-1.2904,-1.3166,-1.344,-1.3586,-1.3586,-1.358,-1.358,-1.358,-1.332,-1.316,-1.3153,-1.318,-1.318,-1.3153,-1.318,-1.3167,-1.3167,-1.3167,-1.3167,-1.3173,-1.3453,-1.3586,-1.3593,-1.3941,-1.4235,-1.4494,-1.4845,-1.4988,-1.4992,-1.5287,-1.5384,-1.5418,-1.5688,-1.5795,-1.5808,0.0,1.1726,1.2352,1.2188,1.2309,1.2576,1.2997,1.3063,1.3063,0.0,0.0,0.0,0.0,0.0,0.0,1.4542,1.4798,1.479,1.4413,1.4224,1.3715,1.2767,1.2272,1.128,0.9683,0.8101,0.619,0.3926,0.1562,-0.0786,0.0,0.0,0.0,0.0,-0.673,-0.6504,-0.6057,-0.562,0.0,-0.4591,-0.4585,-0.4263,0.0,0.0,0.0,0.0,0.0,-0.2023,-0.2174,0.0,-0.2565,-0.3353,0.0,0.0,0.0,0.0,0.0,0.0,-0.7077,0.0,0.0,0.0,0.0,0.0,-1.1009,-1.0836,-1.0756,-1.0965,-1.098,-1.1216,-1.2066,-1.1992,-1.2012,-1.2721,-1.2675,-1.2525,-1.2457,-1.2444,-1.2444,-1.2444,-1.2656,-1.2836,-1.2904,-1.3153,-1.3307,0.0,-1.312,-1.3012,-1.3012,-1.2712,-1.2458,-1.2263,-1.2445,-1.2452,-1.2263,-1.2445,-1.2552,-1.2552,-1.2552,-1.2552,-1.2572,-1.3073,-1.3206,-1.3046,-1.352,-1.3773,-1.388,-1.4414,-1.4516,-1.4404,-1.4905,-1.5106,-1.514,-1.5411,-1.5628,-1.5808,1.1377,1.2006,1.2603,1.2351,1.2329,1.2499,1.2926,1.3001,1.3001,0.0,0.0,0.0,0.0,0.0,0.0,0.0,1.4499,1.45,1.4196,1.417,1.3657,1.2511,1.2089,1.1047,0.9241,0.7759,0.5925,0.3695,0.1321,0.0,0.0,0.0,0.0,0.0,-0.6816,-0.7114,0.0,0.0,0.0,0.0,-0.5963,0.0,0.0,-0.4843,-0.4703,0.0,0.0,0.0,-0.3185,-0.2792,-0.2767,0.0,0.0,0.0,0.0,0.0,0.0,0.0,0.0,0.0,0.0,0.0,0.0,0.0,-1.0025,-1.0029,-1.0095,-1.0086,-1.0155,-1.0535,-1.1554,-1.1595,-1.18,-1.2756,-1.2494,-1.2167,-1.2139,-1.2124,-1.2164,-1.2285,-1.2256,-1.231,-1.2576,-1.2726,-1.2886,-1.3026,-1.2891,-1.2695,-1.2447,-1.2236,-1.2002,-1.169,-1.1844,-1.1911,-1.1906,-1.2056,-1.2184,-1.2305,-1.2305,-1.2305,-1.2325,-1.2913,-1.3059,-1.2843,-1.3514,-1.374,-1.364,-1.4127,-1.4242,-1.417,-1.4758,-1.5008,-1.5062,-1.5424,-1.5319,-1.5069,0.0,1.2394,1.2871,1.2441,1.2316,1.2456,1.2913,1.2988,1.2988,0.0,0.0,0.0,0.0,0.0,0.0,0.0,1.3538,1.3463,1.3405,1.3405,1.2882,1.1737,1.1292,1.0343,0.8818,0.7202,0.0,0.0,0.0,0.0,0.0,0.0,0.0,0.0,-0.6791,-0.7268,-0.7413,0.0,0.0,-0.6845,-0.6845,-0.6791,0.0,0.0,-0.6669,-0.6516,-0.5855,-0.5314,-0.478,-0.3952,-0.3252,0.0,0.0,0.0,0.0,0.0,-0.5185,0.0,0.0,0.0,0.0,0.0,-0.93,0.0,-0.895,-0.9285,-0.9646,-0.933,-0.9538,-1.0062,-1.107,-1.1451,-1.1958,-1.2994,-1.2521,-1.2007,-1.1993,-1.1906,-1.1948,-1.2218,-1.1746,-1.1626,-1.2198,-1.2225,-1.2311,-1.2616,-1.2636,-1.2409,-1.1862,-1.1841,-1.1683,-1.1372,-1.1375,-1.1536,-1.1806,-1.1839,-1.1982,-1.2258,-1.2258,-1.2271,-1.2318,-1.2899,-1.3006,-1.2784,-1.3634,-1.382,-1.358,-1.3915,-1.4076,-1.4156,-1.4685,-1.4912,-1.5006,-1.5531,-1.4999,-1.4202,1.2199,1.2238,1.2457,1.2734,1.2475,1.238,1.2854,1.2916,1.2916,1.2916,0.0,0.0,0.0,0.0,0.0,0.0,0.0,1.1989,1.1555,1.1525,1.0997,0.9799,0.9661,0.8517,0.6196,0.5378,0.4064,0.0,0.0,0.0,0.0,0.0,0.0,0.0,-0.6378,-0.7063,0.0,0.0,0.0,-0.8374,-0.8374,0.0,-0.7482,-0.7482,-0.7114,-0.6588,-0.6443,-0.6318,-0.6196,-0.6014,-0.6036,-0.6117,0.0,0.0,0.0,-0.6119,0.0,0.0,0.0,0.0,0.0,0.0,-0.9268,0.0,-0.8938,-0.9065,-0.9391,-0.9627,-0.9952,-1.0605,-1.1972,-1.1933,-1.1963,-1.2822,-1.2456,-1.2182,-1.2492,-1.194,-1.1623,-1.1935,-1.1643,-1.1546,-1.1935,-1.1737,-1.1599,-1.1677,-1.1666,-1.1619,-1.1499,-1.1493,-1.1366,-1.1089,-1.1286,-1.1326,-1.1179,-1.1396,-1.1663,-1.1986,-1.1986,-1.2096,-1.2311,-1.2691,-1.2691,-1.2425,-1.3093,-1.3347,-1.33,-1.3587,-1.3854,-1.4116,-1.4236,-1.4402,-1.4649,-1.5026,-1.514,-1.5032,1.2657,1.2789,1.2977,1.2905,1.2707,1.2627,1.2854,1.2584,1.2344,1.2344,0.0,0.0,0.0,0.0,0.0,0.0,0.0,0.0,0.0,0.0,0.883,0.79,0.7851,0.6752,0.4407,0.4022,0.2882,0.0,0.0,0.0,0.0,0.0,0.0,0.0,0.0,0.0,0.0,0.0,-0.8791,-0.8791,-0.8791,0.0,-0.8423,-0.8299,-0.8102,-0.7886,-0.7737,-0.7469,-0.7104,-0.6832,-0.6908,0.0,-0.69,-0.7151,-0.7415,0.0,-0.7491,-0.8122,0.0,0.0,0.0,-0.8998,-0.9118,0.0,0.0,-0.8998,-0.922,-0.9988,-1.01,-1.055,-1.2201,-1.2083,-1.2131,-1.3307,-1.2777,-1.2418,-1.3065,-1.2058,-1.1242,-1.1249,-1.1318,-1.1386,-1.1441,-1.1654,-1.1686,-1.141,-1.1406,-1.1346,-1.1216,-1.1192,-1.1076,-1.0804,-1.0932,-1.0995,-1.0995,-1.1266,-1.1577,-1.1906,-1.2035,-1.2164,-1.2311,-1.265,-1.2623,-1.2345,-1.308,-1.3327,-1.322,-1.366,-1.3955,-1.4102,-1.4249,-1.4389,-1.4554,-1.5039,-1.4868,-1.4361,1.3002,1.3298,1.3433,1.2791,1.2691,1.2642,1.252,1.1873,0.0,0.0,0.0,0.0,0.0,0.0,0.0,0.0,0.0,0.0,0.0,0.0,0.6593,0.5918,0.5882,0.4873,0.2709,0.256,0.1542,-0.0427,0.0,0.0,0.0,0.0,0.0,0.0,0.0,0.0,0.0,0.0,0.0,-0.8871,0.0,-0.8965,-0.917,-0.8951,-0.9004,-0.9164,-0.8958,-0.8529,-0.8015,-0.7579,-0.7549,-0.7673,-0.761,-0.7834,0.0,0.0,0.0,0.0,0.0,0.0,0.0,0.0,0.0,-0.9065,0.0,0.0,0.0,-1.0352,-1.036,0.0,0.0,0.0,0.0,-1.3675,0.0,0.0,0.0,-1.2091,0.0,-1.092,-1.118,-1.1368,-1.136,-1.1892,-1.1955,-1.1303,-1.132,-1.1222,-1.0932,-1.0925,-1.0818,-1.0615,-1.0609,-1.0707,-1.0925,-1.1196,-1.1472,-1.1808,-1.2096,-1.2245,-1.2311,-1.2589,-1.2563,-1.2345,-1.3107,-1.3353,-1.3233,-1.3781,-1.4035,-1.4129,-1.4349,-1.4414,-1.4509,-1.5097,-1.4647,-1.3723,1.2917,1.2966,1.2766,1.2046,1.1913,1.1715,1.1137,1.0405,0.0,0.0,0.0,0.0,0.0,0.0,0.0,0.0,0.0,0.0,0.4832,0.0,0.0,0.3695,0.3668,0.2636,0.0417,0.036,-0.0401,-0.1954,0.0,0.0,0.0,0.0,0.0,0.0,-0.6956,0.0,0.0,0.0,-0.8945,0.0,-0.8898,-0.8965,0.0,-0.9164,-0.917,-0.9197,-0.9164,-0.9289,-0.9471,0.0,-0.955,-0.9712,0.0,-0.9797,-1.0146,-0.9573,0.0,0.0,0.0,0.0,0.0,0.0,-0.9577,-0.9758,-0.9011,0.0,-1.0247,-1.068,0.0,0.0,0.0,0.0,0.0,0.0,0.0,0.0,-1.2076,-1.1836,-1.1768,-1.1908,-1.1775,-1.1904,-1.2527,-1.2456,-1.1912,-1.0778,-1.0968,-1.0989,-1.0658,-1.064,-1.0626,-1.0609,-1.0609,-1.0606,-1.064,-1.0912,-1.1189,-1.1466,-1.1795,-1.2069,-1.2305,-1.2338,-1.2338,-1.2325,-1.2723,-1.3006,-1.3213,-1.352,-1.3827,-1.4088,-1.4122,-1.4156,-1.423,-1.4819,-1.4943,-1.4738,1.2905,1.2559,1.2033,1.1335,1.0513,0.9702,0.8992,0.0,0.0,0.0,0.0,0.0,0.0,0.0,0.0,0.0,0.0,0.0817,0.0,0.0,0.0,0.0759,0.0746,0.0111,-0.1253,-0.128,-0.1796,-0.2843,-0.3218,0.0,0.0,0.0,0.0,0.0,-0.7512,0.0,-0.8795,0.0,-0.9098,0.0,0.0,-0.9625,0.0,-0.933,-0.9317,-0.9485,-0.9485,-0.9579,-0.9701,0.0,-0.9873,0.0,0.0,0.0,0.0,-1.006,0.0,0.0,0.0,0.0,0.0,0.0,0.0,0.0,-0.9118,0.0,-0.9654,-1.0467,0.0,0.0,0.0,0.0,0.0,0.0,-1.2802,0.0,0.0,0.0,-1.2169,-1.1427,0.0,0.0,-1.2806,-1.2333,-1.1909,-1.1662,-1.1771,-1.1683,-1.1314,-1.1304,-1.1076,-1.0609,-1.0609,-1.0673,-1.0825,-1.1096,-1.1292,-1.1412,-1.1897,-1.2116,-1.2076,-1.2225,-1.2305,-1.2318,-1.2656,-1.2857,-1.2985,-1.3267,-1.3447,-1.3594,-1.374,-1.3935,-1.4156,-1.4549,-1.4703,-1.4606,1.2101,0.0,1.1198,1.0109,0.8706,0.7255,0.5904,0.0,0.0,0.0,0.0,0.0,-0.1321,-0.1603,0.0,0.0,-0.2581,-0.2318,0.0,0.0,-0.1543,-0.1404,-0.1457,-0.1797,-0.2482,-0.2522,-0.2885,-0.3622,-0.3868,0.0,0.0,0.0,0.0,0.0,0.0,-0.8656,-0.9337,0.0,-0.9451,-0.9484,-0.9845,-1.0032,-1.0052,-0.961,-0.9598,-0.98,-0.98,-0.9868,-0.9941,-0.9941,-1.0082,-1.0241,-1.0241,-1.0403,-1.0553,0.0,0.0,0.0,-0.9975,0.0,0.0,0.0,0.0,0.0,-0.9131,-0.9153,-0.9419,-1.0156,-1.0257,0.0,0.0,0.0,0.0,0.0,0.0,-1.2258,0.0,-1.2203,0.0,0.0,0.0,0.0,0.0,-1.2405,-1.2245,-1.2389,-1.2483,-1.2419,-1.2143,-1.1927,-1.1531,-1.0958,-1.0713,-1.0693,-1.0891,-1.1162,-1.1292,-1.1299,-1.1904,-1.2096,-1.1913,-1.2189,-1.2305,-1.2311,-1.2569,-1.2729,-1.2823,-1.3006,-1.3133,-1.322,-1.3493,-1.3754,-1.4015,-1.4361,-1.4501,-1.4443,1.0064,1.0361,0.0,0.0,0.6481,0.4513,0.1563,0.0,0.0,0.0,0.0,0.0,0.0,0.0,0.0,0.0,0.0,-0.5122,-0.2949,0.0,-0.2642,0.0,0.0,-0.2709,-0.3248,-0.3331,-0.3721,-0.446,-0.5109,0.0,0.0,0.0,0.0,0.0,0.0,-0.9659,-0.9701,-0.9967,-1.0072,-1.0052,-0.98,-0.9866,-1.0098,0.0,-1.0078,-1.0085,-1.0085,-1.0303,-1.0566,-1.0566,-1.0589,-1.0579,-1.0579,-1.0586,-1.0602,-1.0595,0.0,0.0,-1.0486,-1.0336,-1.0018,-0.9768,-0.9694,-0.9533,-0.8951,-0.9556,-1.017,-0.9883,-1.0583,0.0,0.0,0.0,0.0,0.0,0.0,0.0,0.0,0.0,0.0,0.0,0.0,0.0,0.0,-1.3002,-1.3145,0.0,-1.2693,-1.2904,-1.2952,-1.222,-1.1787,-1.1756,-1.1005,-1.0593,-1.0606,-1.0878,-1.1009,-1.1015,-1.1621,-1.1913,-1.1913,-1.2189,-1.2305,-1.2305,-1.2311,-1.2497,-1.2803,-1.2816,-1.2978,-1.322,-1.3493,-1.3613,-1.3686,-1.4287,-1.4501,-1.4581,0.7759,0.0,0.0,0.0,0.3827,0.1474,-0.1718,-0.3507,-0.4888,-0.5939,-0.6958,-0.8021,-0.9197,-0.9489,-0.9428,-0.8959,-0.814,-0.7215,-0.6201,-0.5694,0.0,-0.5189,-0.5577,-0.5891,-0.608,-0.593,-0.6057,-0.6485,0.0,0.0,0.0,0.0,0.0,0.0,0.0,-0.9793,0.0,0.0,0.0,0.0,0.0,-1.0555,-1.0906,-1.0325,-1.0241,-1.0423,-1.0423,-1.0506,-1.0609,-1.0609,-1.0609,-1.0609,-1.0609,-1.0609,-1.0609,-1.0609,-1.0519,-1.0466,-1.0566,-1.0519,-1.0356,-1.0047,-0.9459,-0.8875,-0.8495,-0.8291,-0.8089,-0.7747,-0.8519,-0.915,0.0,0.0,0.0,0.0,0.0,0.0,0.0,0.0,-1.1053,0.0,0.0,0.0,0.0,0.0,0.0,0.0,-1.3482,0.0,-1.3406,-1.2892,-1.2358,-1.1818,-1.1014,-1.0687,-1.0858,-1.0942,-1.1089,-1.1266,-1.1701,-1.1906,-1.1913,-1.2189,-1.2305,-1.2305,-1.2305,-1.2358,-1.247,-1.247,-1.2512,-1.2659,-1.314,-1.334,-1.3407,-1.4015,-1.4235,-1.4175,0.5151,0.3346,0.2204,0.3027,0.0751,-0.2022,-0.4525,-0.672,-0.8278,-0.8807,-0.9938,-1.0933,-1.1592,-1.1857,-1.1786,-1.129,-1.0502,-0.9607,-0.8604,-0.8313,-0.7939,-0.7465,-0.794,-0.808,0.0,-0.7656,-0.7543,0.0,0.0,-0.7851,0.0,0.0,0.0,0.0,0.0,-1.0055,-1.0112,-1.0325,-1.0367,0.0,0.0,-1.0814,0.0,-1.0488,-1.0537,-1.0858,-1.0667,-1.0609,-1.0609,-1.0609,-1.0609,-1.0609,-1.0609,-1.0609,-1.0609,-1.0609,-1.0609,-1.0609,-1.0609,-1.0609,-1.0519,-1.0172,-0.9607,-0.8967,-0.8349,-0.7901,-0.7462,-0.6829,-0.7298,-0.7803,0.0,0.0,0.0,0.0,0.0,0.0,0.0,-1.0376,0.0,-1.1391,-1.2076,0.0,0.0,0.0,0.0,0.0,0.0,0.0,0.0,-1.3027,-1.2343,-1.1818,-1.1014,-1.068,-1.0851,-1.0851,-1.0945,-1.1122,-1.154,-1.1728,-1.1741,-1.2118,-1.2305,-1.2305,-1.2305,-1.2305,-1.2305,-1.2305,-1.2305,-1.2365,-1.2953,-1.3193,-1.326,-1.3874,-1.4155,-1.4155,0.2292,0.0636,-0.0301,0.0502,-0.2714,-0.5782,-0.6876,-0.9208,-1.0918,-1.1099,-1.2389,-1.3373,-1.3673,-1.398,-1.3834,-1.2991,-1.2983,-1.2217,-1.0297,-1.0607,-1.0293,0.0,-0.9405,-0.9319,-0.8582,0.0,0.0,0.0,0.0,0.0,0.0,0.0,0.0,0.0,-1.0345,0.0,-1.0158,-1.0735,-1.0831,-1.0609,-1.0609,-1.0629,-1.0633,-1.062,-1.0945,-1.1332,-1.0784,-1.0609,-1.0609,-1.0609,-1.0609,-1.0609,-1.0609,-1.0609,-1.0609,-1.0609,-1.0609,-1.0609,-1.0609,-1.0609,-1.0526,-1.0192,-1.0081,-0.9727,-0.852,-0.8375,-0.8197,-0.7098,-0.6973,-0.7211,0.0,0.0,0.0,0.0,0.0,0.0,0.0,0.0,-1.0838,-1.08,-1.1366,0.0,0.0,0.0,0.0,0.0,0.0,0.0,0.0,-1.2679,-1.1834,-1.1825,-1.1055,-1.0626,-1.0613,-1.0626,-1.0633,-1.064,-1.1176,-1.1439,-1.1455,-1.2044,-1.2305,-1.2305,-1.2305,-1.2305,-1.2305,-1.2305,-1.2305,-1.2365,-1.2953,-1.3227,-1.33,-1.3881,-1.4269,-1.4501,-0.0229,-0.2435,-0.4519,-0.5624,-0.6522,-0.7554,-0.8914,-1.0546,-1.193,-1.2811,-1.3649,-1.4441,-1.5168,-1.5314,-1.5153,-1.4627,-1.3921,-1.3606,-1.384,-1.2639,-1.1674,-1.112,-1.1642,-1.1648,-1.1016,-1.0556,-1.0259,-1.0097,0.0,0.0,-1.0095,0.0,0.0,0.0,0.0,-1.0553,-1.0486,-1.064,-1.066,-1.0609,-1.0609,-1.0838,-1.1166,-1.0962,-1.1109,-1.1332,-1.0784,-1.0609,-1.0609,-1.0609,-1.0609,-1.0609,-1.0609,-1.0609,-1.0609,-1.0609,-1.0609,-1.0609,-1.0609,-1.0609,-1.0573,-1.0492,-0.9866,-0.9196,-0.8875,-0.7964,-0.7029,-0.6485,-0.6483,-0.6537,-0.636,0.0,0.0,0.0,0.0,0.0,0.0,0.0,0.0,-1.0864,-1.0952,-1.1065,0.0,0.0,0.0,0.0,0.0,0.0,-1.285,-1.2664,-1.2414,-1.2107,-1.1506,-1.1102,-1.0898,-1.1096,-1.1186,-1.1192,-1.1594,-1.1888,-1.2066,-1.2231,-1.2305,-1.2305,-1.2305,-1.2305,-1.2305,-1.2305,-1.2305,-1.2365,-1.2953,-1.3474,-1.3902,-1.4035,-1.4269,-1.4501,-0.2959,-0.5267,-0.7574,-0.9148,-0.9482,-0.9787,-1.0485,-1.1652,-1.2832,-1.3867,-1.4429,-1.495,-1.5548,-1.5728,-1.5715,-1.5471,-1.4931,-1.4765,-1.5098,-1.4318,-1.3598,-1.3066,-1.3359,-1.3206,-1.2472,-1.1888,0.0,-1.0995,0.0,0.0,-1.0602,0.0,0.0,0.0,0.0,-1.0764,-1.0764,-1.0764,-1.0928,-1.1142,-1.0888,-1.1022,0.0,-1.1102,-1.1096,-1.1176,-1.0754,-1.0609,-1.0609,-1.0609,-1.0609,-1.0609,-1.0609,-1.0609,-1.0609,-1.0609,-1.0609,-1.0609,-1.0609,-1.0609,-1.0609,-1.0609,-1.0237,-0.9725,-0.9143,-0.8439,-0.7721,-0.7001,-0.6867,-0.6932,-0.7076,-0.7611,0.0,0.0,0.0,0.0,0.0,0.0,0.0,-1.0876,-1.08,-1.0568,-0.9974,-1.0185,-1.0527,0.0,0.0,0.0,0.0,-1.1989,-1.186,-1.1514,-1.1577,-1.1356,-1.0825,-1.1216,-1.1346,-1.1226,-1.1536,-1.1848,-1.2136,-1.2245,-1.2305,-1.2305,-1.2305,-1.2305,-1.2305,-1.2305,-1.2397,-1.2577,-1.314,-1.366,-1.4109,-1.4109,-1.4269,-1.4481,-0.5934,-0.8037,-0.9944,-1.099,-1.1847,-1.2298,-1.2005,-1.2834,-1.3809,-1.4718,-1.5035,-1.5308,-1.5655,-1.5772,-1.5808,-1.5808,-1.5808,-1.5595,-1.5133,-1.5545,-1.5448,-1.4647,-1.4574,-1.4147,-1.3267,-1.2632,-1.1891,0.0,0.0,0.0,0.0,0.0,0.0,0.0,0.0,0.0,0.0,-1.1015,-1.134,-1.1745,-1.1259,-1.1186,-1.1362,-1.1142,-1.1022,-1.0978,-1.074,-1.0626,-1.0609,-1.0609,-1.0609,-1.0609,-1.0609,-1.0609,-1.0609,-1.0609,-1.0609,-1.0609,-1.0609,-1.0609,-1.0609,-1.0609,-1.0791,-1.0692,-0.9534,-0.9309,-0.9095,-0.8159,-0.766,-0.7658,-0.85,-0.8431,0.0,0.0,0.0,0.0,0.0,0.0,0.0,0.0,-1.0803,0.0,-0.8784,-0.927,-0.9851,-1.0298,-1.049,-1.0745,-1.1123,-1.1055,-1.0908,-1.0653,-1.1424,-1.148,-1.079,-1.1189,-1.1319,-1.1169,-1.1366,-1.1637,-1.1955,-1.2184,-1.2305,-1.2305,-1.2305,-1.2325,-1.2365,-1.2365,-1.2577,-1.2951,-1.338,-1.3774,-1.4109,-1.4109,-1.4182,-1.4268,-0.9373,-1.1161,-1.233,-1.2108,-1.3698,-1.4886,-1.4452,-1.4734,-1.5433,-1.6571,-1.6341,-1.6395,-1.7213,-1.6398,-1.5808,-1.5808,-1.5808,-1.5761,-1.5661,-1.5748,-1.5628,-1.5264,-1.5033,-1.4476,-1.3547,-1.272,-1.1991,0.0,0.0,0.0,0.0,0.0,0.0,0.0,0.0,0.0,-1.07,-1.1149,-1.1252,-1.1172,-1.1279,-1.1359,-1.1382,-1.1352,-1.1186,-1.0982,-1.0952,-1.0794,-1.0609,-1.0609,-1.0609,-1.0609,-1.0609,-1.0609,-1.0609,-1.0609,-1.0609,-1.0609,-1.0609,-1.0609,-1.0609,-1.0609,-1.0791,-1.0936,-1.0692,-0.9587,-0.8737,-0.9234,-0.8013,-0.7063,-0.7768,-0.8243,-0.897,0.0,0.0,0.0,-1.2556,-1.2989,0.0,0.0,-1.0844,-0.9788,-0.8062,-0.8553,-0.9105,-0.9405,-0.9759,-1.0059,-1.0308,-1.0802,-1.104,-1.0935,-1.1296,-1.155,-1.1678,-1.1496,-1.1626,-1.2071,-1.1902,-1.1962,-1.2225,-1.2278,-1.2305,-1.2305,-1.2305,-1.2464,-1.2703,-1.2703,-1.3012,-1.3453,-1.332,-1.3614,-1.4109,-1.4109,-1.3731,-1.3264,-1.1902,-1.2675,-1.3209,-1.3414,-1.4606,-1.5513,-1.5436,-1.6052,-1.6519,-1.649,-1.6094,-1.6018,-1.6467,-1.6085,-1.5808,-1.5808,-1.5808,-1.5808,-1.5808,-1.5808,-1.5741,-1.5601,-1.5484,-1.4981,-1.4094,-1.3073,-1.2336,-1.1877,0.0,0.0,0.0,0.0,0.0,0.0,0.0,-1.1444,0.0,-1.1688,-1.1768,-1.1926,-1.1741,-1.1744,-1.1846,-1.171,-1.1587,-1.1447,-1.1269,-1.1129,-1.0962,-1.0693,-1.0693,-1.0814,-1.0814,-1.0814,-1.0831,-1.0962,-1.0918,-1.0814,-1.0814,-1.0912,-1.0985,-1.0838,-1.1132,-1.1427,-1.1256,-1.0287,-0.9489,-0.9669,-0.851,-0.7635,-0.8178,-0.8869,-0.9677,-1.0551,-1.0868,-1.1292,-1.2163,-1.2446,-1.2202,0.0,0.0,0.0,-0.8604,-0.8678,-0.8764,-0.8685,-0.899,-0.9443,-1.0072,-1.0705,-1.0964,-1.0794,-1.149,-1.173,-1.1433,-1.1724,-1.1944,-1.2096,-1.2109,-1.2189,-1.2311,-1.2625,-1.2685,-1.2569,-1.2569,-1.2725,-1.3019,-1.3166,-1.336,-1.36,-1.3661,-1.3841,-1.4109,-1.4109,-1.3142,-1.194,-1.3644,-1.3815,-1.3987,-1.403,-1.5236,-1.6109,-1.5839,-1.6827,-1.7221,-1.6182,-1.5805,-1.5718,-1.5994,-1.5903,-1.5808,-1.5808,-1.5808,-1.5808,-1.5808,-1.5808,-1.5808,-1.5808,-1.5808,-1.5394,-1.4514,-1.344,-1.2684,-1.2305,-1.1483,-1.1186,0.0,0.0,0.0,0.0,0.0,-1.2127,-1.2482,-1.2122,-1.2228,-1.2563,-1.2142,-1.2116,-1.2271,-1.2002,-1.1906,-1.1866,-1.1513,-1.1406,-1.1339,-1.0918,-1.0912,-1.1076,-1.1025,-1.1035,-1.1129,-1.1339,-1.1246,-1.1089,-1.1089,-1.1232,-1.1352,-1.1142,-1.15,-1.1808,-1.1472,-1.0737,-1.0047,-0.9786,-0.8944,-0.838,-0.882,-0.9485,-1.0071,-1.0359,-1.0625,-1.1006,-1.1633,-1.1799,-1.1595,0.0,0.0,0.0,-0.8892,-0.8411,-0.814,-0.8103,-0.8487,-0.9126,-1.0055,-1.0615,-1.0838,-1.0687,-1.1603,-1.1817,-1.1206,-1.1804,-1.2098,-1.2094,-1.2183,-1.2271,-1.2412,-1.2893,-1.3032,-1.2884,-1.2884,-1.3039,-1.33,-1.3507,-1.364,-1.3734,-1.3928,-1.4035,-1.4116,-1.4155,-1.2772,-1.0998,-1.4301,-1.536,-1.5637,-1.2968,-1.5974,-1.8087,-1.6103,-1.6827,-1.7441,-1.6947,-1.6553,-1.6753,-1.7902,-1.6687,-1.5808,-1.5808,-1.5808,-1.5808,-1.5808,-1.5808,-1.5808,-1.5808,-1.5808,-1.5394,-1.4514,-1.3614,-1.2886,-1.2305,-1.1666,-1.1386,-1.1406,0.0,0.0,0.0,-1.1754,-1.1768,-1.1559,-1.2058,-1.2156,-1.2007,-1.2196,-1.2278,-1.2271,-1.2002,-1.1906,-1.1866,-1.1513,-1.1406,-1.1382,-1.1346,-1.1346,-1.1319,-1.1076,-1.1176,-1.1372,-1.1382,-1.1375,-1.1366,-1.1366,-1.1386,-1.1382,-1.1379,-1.163,-1.1808,-1.1472,-1.0261,-0.9338,-0.9794,-0.9072,-0.8555,-0.9149,-0.9415,-0.9534,-0.9446,-1.0351,-1.1234,-1.1722,-1.2102,-1.2065,-1.133,0.0,0.0,-0.7628,-0.663,-0.6542,-0.766,-0.8619,-0.9426,-1.0072,-1.0437,-1.074,-1.0965,-1.1299,-1.1597,-1.1801,-1.1603,-1.1897,-1.2716,-1.2187,-1.2228,-1.2763,-1.2804,-1.2965,-1.3166,-1.3166,-1.3313,-1.356,-1.3593,-1.378,-1.4021,-1.376,-1.3827,-1.4122,-1.4361,-1.3012,-1.113,-1.7231,-1.6306,-1.5821,-1.6707,-1.8078,-1.8557,-1.7107,-1.7281,-1.7275,-1.6413,-1.6466,-1.6638,-1.6789,-1.6197,-1.5808,-1.5808,-1.5808,-1.5808,-1.5808,-1.5808,-1.5808,-1.5808,-1.5808,-1.5561,-1.5057,-1.4188,-1.3514,-1.3087,-1.2512,-1.2236,-1.2236,0.0,-1.2124,-1.1957,-1.2078,-1.2064,-1.1964,-1.2204,-1.2231,-1.2156,-1.2258,-1.2305,-1.2285,-1.2171,-1.2149,-1.2111,-1.1997,-1.1933,-1.1924,-1.175,-1.169,-1.1688,-1.1574,-1.1614,-1.173,-1.1879,-1.183,-1.169,-1.169,-1.1817,-1.1911,-1.1737,-1.1911,-1.2098,-1.1977,-1.0535,-0.9266,-0.9394,-0.8945,-0.8411,-0.8037,-0.9304,-1.0195,-0.9525,-1.0199,-1.0874,-1.1047,-1.0771,-1.0425,-1.013,-0.9574,-0.8731,-0.7537,-0.7378,-0.7567,-0.8087,-0.8233,-0.8918,-1.0323,-1.0677,-1.0891,-1.1005,-1.1467,-1.1768,-1.1906,-1.1924,-1.2236,-1.2803,-1.2718,-1.2818,-1.3052,-1.3414,-1.352,-1.344,-1.3661,-1.368,-1.362,-1.3814,-1.3981,-1.4095,-1.4127,-1.4221,-1.4382,-1.4698,-1.3812,-1.2389,-1.8431,-1.6529,-1.5917,-1.8737,-1.887,-1.8361,-1.7694,-1.7608,-1.7161,-1.5961,-1.6168,-1.6262,-1.5848,-1.5808,-1.5808,-1.5808,-1.5808,-1.5808,-1.5808,-1.5808,-1.5808,-1.5808,-1.5808,-1.5668,-1.5404,-1.4732,-1.4202,-1.386,-1.3307,-1.3032,-1.3026,-1.2939,-1.2791,-1.2553,-1.2553,-1.2553,-1.2553,-1.2553,-1.2518,-1.245,-1.245,-1.2397,-1.2305,-1.2305,-1.2305,-1.2305,-1.2305,-1.2305,-1.2271,-1.2082,-1.2076,-1.2134,-1.196,-1.1942,-1.2056,-1.2238,-1.2176,-1.2015,-1.2015,-1.2163,-1.2251,-1.2062,-1.2169,-1.2278,-1.2191,-1.0909,-0.96,-0.9108,-0.8434,-0.7852,-0.7593,-0.8808,-0.9799,-0.9583,-0.9927,-1.0301,-1.0561,-1.0079,-0.969,-0.969,-0.9392,-0.8877,-0.8101,-0.833,-0.8591,-0.8764,-0.8472,-0.8993,-1.0627,-1.0962,-1.1162,-1.1266,-1.1754,-1.1975,-1.1906,-1.2263,-1.2576,-1.281,-1.306,-1.3233,-1.3333,-1.3854,-1.3975,-1.376,-1.3995,-1.3968,-1.3774,-1.4001,-1.4156,-1.4235,-1.4421,-1.4547,-1.4689,-1.5006,-1.4391,-1.3239,-1.6798,-1.5812,-1.6186,-1.7407,-1.7634,-1.7608,-1.7608,-1.7608,-1.7161,-1.5961,-1.5815,-1.5815,-1.5808,-1.5808,-1.5808,-1.5808,-1.5808,-1.5808,-1.5808,-1.5808,-1.5808,-1.5808,-1.5808,-1.5668,-1.5404,-1.5126,-1.4832,-1.4487,-1.388,-1.3593,-1.3586,-1.332,-1.318,-1.32,-1.32,-1.32,-1.32,-1.32,-1.3039,-1.2796,-1.2796,-1.2603,-1.2305,-1.2305,-1.2305,-1.2305,-1.2305,-1.2305,-1.2305,-1.2298,-1.2529,-1.2689,-1.2087,-1.2082,-1.2298,-1.2305,-1.2298,-1.2298,-1.2298,-1.2298,-1.2305,-1.2298,-1.2298,-1.2225,-1.198,-1.1314,-1.041,-0.9079,-0.7488,-0.6783,-0.8301,-0.7801,-0.7715,-0.9422,-0.9487,-0.961,-1.0482,-1.0593,-1.0577,-1.0577,-1.0294,-0.9874,-0.9324,-0.8984,-0.9037,-0.963,-0.9677,-1.006,-1.0956,-1.1246,-1.1557,-1.1886,-1.2144,-1.2176,-1.1906,-1.2489,-1.2803,-1.281,-1.306,-1.334,-1.3606,-1.3948,-1.4103,-1.4082,-1.4109,-1.4103,-1.4082,-1.4109,-1.4255,-1.4494,-1.4501,-1.4703,-1.5035,-1.5307,-1.4556,-1.3262,-2.1078,-1.8758,-1.7141,-1.7541,-1.7608,-1.7315,-1.6506,-1.6362,-1.6228,-1.5855,-1.5808,-1.5808,-1.5808,-1.5808,-1.5808,-1.5808,-1.5808,-1.5808,-1.5808,-1.5808,-1.5808,-1.5808,-1.5808,-1.5761,-1.5668,-1.5404,-1.514,-1.4845,-1.4658,-1.4436,-1.4214,-1.3941,-1.3701,-1.3453,-1.328,-1.3193,-1.3193,-1.3193,-1.3153,-1.3066,-1.3066,-1.2898,-1.2663,-1.2839,-1.2792,-1.2643,-1.2643,-1.2758,-1.2886,-1.2698,-1.2825,-1.3033,-1.2839,-1.2846,-1.2919,-1.2919,-1.2791,-1.2643,-1.2643,-1.2477,-1.2305,-1.2305,-1.2305,-1.2278,-1.2184,-1.1596,-1.0768,-0.9653,-0.8985,-0.8549,-0.8364,-0.8888,-0.9234,-0.8878,-0.9741,-1.049,-1.0588,-1.0095,-0.9492,-0.8903,-0.9425,-0.9291,-0.7939,-0.8953,-0.9689,-0.9706,-0.9865,-1.0359,-1.1239,-1.157,-1.1788,-1.1899,-1.2382,-1.2603,-1.2502,-1.2885,-1.316,-1.334,-1.2639,-1.2445,-1.2749,-1.367,-1.4109,-1.4116,-1.4295,-1.4361,-1.4361,-1.4361,-1.3967,-1.3339,-1.344,-1.3591,-1.3709,-1.3202,-1.3326,-1.3451,-2.3218,-2.1765,-2.0641,-2.0641,-2.0641,-2.0177,-1.8761,-1.6976,-1.5808,-1.5808,-1.5808,-1.5808,-1.5808,-1.5808,-1.5808,-1.5808,-1.5808,-1.5808,-1.5808,-1.5808,-1.5808,-1.5808,-1.5808,-1.5808,-1.5808,-1.5628,-1.5471,-1.5314,-1.52,-1.4999,-1.4683,-1.4524,-1.4337,-1.4107,-1.3948,-1.3889,-1.3861,-1.3748,-1.362,-1.3527,-1.34,-1.3193,-1.2965,-1.3133,-1.3113,-1.2939,-1.2939,-1.3066,-1.316,-1.3006,-1.312,-1.3353,-1.3353,-1.3433,-1.3474,-1.3159,-1.2938,-1.2803,-1.2803,-1.2563,-1.2325,-1.2464,-1.249,-1.2517,-1.2619,-1.1984,-1.1198,-1.0588,-1.0148,-0.9667,-0.8892,-0.9473,-0.9861,-0.9257,-1.0001,-1.0723,-1.0876,-1.044,-0.9886,-0.934,-0.9567,-0.9497,-0.8776,-0.9615,-1.03,-1.0504,-1.0892,-1.1293,-1.1728,-1.1931,-1.2102,-1.2228,-1.2703,-1.2738,-1.2318,-1.2995,-1.3009,-1.2321,-1.2272,-1.2508,-1.3012,-1.4002,-1.4377,-1.4241,-1.404,-1.4229,-1.461,-1.3558,-1.3089,-1.2992,-1.2535,-1.2515,-1.2651,-1.2109,-1.2431,-1.2861,-2.3588,-2.4606,-2.5693,-2.5693,-2.5382,-2.4713,-2.3475,-1.9407,-1.6487,-1.6487,-1.6086,-1.5808,-1.5808,-1.5808,-1.5808,-1.5808,-1.5808,-1.5808,-1.5808,-1.5808,-1.5808,-1.5808,-1.5808,-1.5808,-1.5808,-1.5808,-1.5808,-1.5808,-1.5558,-1.5314,-1.5068,-1.5048,-1.5035,-1.5035,-1.5015,-1.5008,-1.4988,-1.4669,-1.4396,-1.4143,-1.3827,-1.3527,-1.3253,-1.3273,-1.3253,-1.322,-1.322,-1.3233,-1.3267,-1.3247,-1.3427,-1.3666,-1.3666,-1.3874,-1.3969,-1.3132,-1.2864,-1.2863,-1.2863,-1.2611,-1.2432,-1.2744,-1.2772,-1.2775,-1.3021,-1.2366,-1.1732,-1.1812,-1.1036,-1.022,-0.9824,-0.9627,-0.9667,-1.0127,-1.0095,-1.0315,-1.1166,-1.1252,-1.1217,-1.1303,-1.0506,-1.0333,-1.1276,-1.0883,-1.096,-1.1921,-1.2489,-1.267,-1.2378,-1.2405,-1.2544,-1.2796,-1.3086,-1.2723,-1.1654,-1.2959,-1.2496,-1.0249,-1.1977,-1.3169,-1.3916,-1.4659,-1.4788,-1.4338,-1.342,-1.3676,-1.4553,-1.1919,-1.1747,-1.3018,-1.168,-1.142,-1.1731,-1.1648,-1.1677,-1.158,-2.5181,-2.5435,-2.5693,-2.5693,-2.2274,-2.0785,-2.4512,-2.4101,-2.3359,-2.3359,-1.8954,-1.5808,-1.5808,-1.5808,-1.5808,-1.5808,-1.5808,-1.5808,-1.5808,-1.5808,-1.5808,-1.5808,-1.5808,-1.5808,-1.5808,-1.5808,-1.5808,-1.5808,-1.5735,-1.5668,-1.5618,-1.5398,-1.532,-1.5307,-1.5086,-1.5008,-1.4979,-1.4912,-1.4845,-1.4772,-1.4698,-1.4342,-1.3901,-1.41,-1.3914,-1.35,-1.35,-1.3667,-1.3848,-1.3594,-1.384,-1.4287,-1.4287,-1.4341,-1.4307,-1.3922,-1.3607,-1.3413,-1.3413,-1.32,-1.3013,-1.308,-1.245,-1.1811,-1.1878,-1.1885,-1.2089,-1.2972,-1.2347,-1.1348,-1.0419,-0.9927,-0.9357,-0.8415,-0.8738,-0.9378,-1.0153,-0.9597,-0.944,-1.0291,-1.0515,-1.0717,-1.1059,-1.1776,-1.2424,-1.2853,-1.2837,-1.2857,-1.2986,-1.342,-1.34,-1.2823,-1.326,-1.3378,-1.3121,-1.3683,-1.2813,-1.0513,-1.2056,-1.2444,-1.1872,-1.4021,-1.4395,-1.3342,-1.3204,-1.2831,-1.2276,-1.15,-1.097,-1.0607,-1.0119,-1.0088,-1.018,-0.9261,-0.9583,-1.0268,-2.5528,-2.5693,-2.5693,-2.5693,-2.326,-2.229,-2.525,-2.5693,-2.4815,-2.2316,-2.1023,-1.916,-1.6116,-1.5808,-1.5808,-1.5808,-1.5808,-1.5808,-1.5808,-1.5808,-1.5808,-1.5808,-1.5808,-1.5808,-1.5808,-1.5808,-1.5808,-1.5808,-1.5808,-1.5808,-1.5801,-1.5641,-1.5568,-1.5585,-1.5431,-1.5357,-1.5351,-1.524,-1.5186,-1.5173,-1.5039,-1.4798,-1.4524,-1.4663,-1.4421,-1.3999,-1.3999,-1.4127,-1.4262,-1.4074,-1.4327,-1.4723,-1.4723,-1.4723,-1.4689,-1.4558,-1.4088,-1.36,-1.36,-1.3407,-1.3101,-1.2711,-1.1799,-1.1033,-1.1142,-1.1288,-1.1573,-1.2182,-1.2258,-1.1668,-0.994,-1.0167,-0.9996,-0.8082,-0.8476,-0.9174,-0.9565,-0.9556,-0.9775,-1.0512,-1.0969,-1.1471,-1.211,-1.2607,-1.3034,-1.3353,-1.3648,-1.3641,-1.3227,-1.4021,-1.4163,-1.3427,-1.3808,-1.3827,-1.3415,-1.2468,-1.1888,-1.1695,-1.1499,-1.1619,-1.203,-1.371,-1.4339,-1.4031,-1.2986,-1.2541,-1.2437,-1.0436,-0.9718,-0.9813,-0.9035,-0.8838,-0.8893,-0.8252,-0.8457,-0.897,-2.5352,-2.5693,-2.5693,-2.5693,-2.5693,-2.5693,-2.5693,-2.5693,-2.4048,-1.942,-2.2601,-2.316,-1.7507,-1.7148,-1.696,-1.614,-1.6068,-1.6068,-1.6068,-1.6068,-1.5988,-1.5815,-1.5808,-1.5808,-1.5808,-1.5808,-1.5808,-1.5808,-1.5808,-1.5808,-1.5808,-1.5808,-1.5808,-1.5808,-1.5808,-1.5808,-1.5788,-1.5565,-1.5464,-1.5438,-1.522,-1.5093,-1.5053,-1.5053,-1.4865,-1.4589,-1.4589,-1.4589,-1.4589,-1.4589,-1.4783,-1.5053,-1.5053,-1.5053,-1.5053,-1.5053,-1.4462,-1.3793,-1.3746,-1.3431,-1.2853,-1.1786,-1.0876,-1.0289,-1.053,-1.0574,-1.0641,-1.0816,-1.1493,-1.1391,-0.9162,-1.0109,-1.0455,-0.8176,-0.8516,-0.9131,-0.9282,-1.0106,-1.0913,-1.1443,-1.1732,-1.2384,-1.3624,-1.3433,-1.3417,-1.3837,-1.4522,-1.4524,-1.3587,-1.4511,-1.4819,-1.4302,-1.4482,-1.4116,-1.3189,-1.0721,-1.0463,-1.2421,-1.0655,-1.0853,-1.2837,-1.3561,-1.4361,-1.505,-1.2923,-1.2614,-1.3304,-0.9507,-0.8741,-0.9862,-0.8401,-0.7902,-0.7988,-0.7988,-0.7988,-0.7988,-2.5352,-2.5693,-2.5693,-2.5693,-2.5693,-2.5693,-2.5693,-2.5693,-2.5406,-2.4559,-2.3901,-2.3117,-2.2069,-2.3289,-2.2322,-1.7709,-1.7315,-1.7315,-1.7315,-1.7315,-1.6867,-1.5848,-1.5808,-1.5808,-1.5808,-1.5808,-1.5808,-1.5808,-1.5808,-1.5808,-1.5808,-1.5808,-1.5808,-1.5808,-1.5808,-1.5808,-1.5801,-1.5761,-1.5735,-1.5735,-1.5688,-1.5545,-1.5354,-1.5354,-1.5166,-1.4919,-1.4919,-1.4919,-1.4919,-1.4919,-1.5113,-1.5354,-1.5354,-1.5354,-1.5354,-1.5354,-1.5057,-1.4725,-1.4427,-1.3531,-1.2211,-1.0207,-0.9578,-0.9474,-0.9523,-0.9532,-0.9827,-1.0829,-1.1045,-1.0617,-0.9273,-0.8972,-0.8474,-0.7114,-0.7533,-0.8332,-0.9183,-0.9874,-1.0948,-1.2686,-1.2837,-1.3204,-1.4268,-1.4311,-1.4507,-1.5068,-1.479,-1.4723,-1.5037,-1.5231,-1.5284,-1.5197,-1.5019,-1.4315,-1.3041,-1.056,-0.9505,-0.9876,-0.9815,-1.055,-1.1942,-1.3285,-1.3998,-1.4118,-1.3602,-1.2939,-1.207,-1.0217,-0.9683,-0.9875,-0.8502,-0.7993,-0.7988,-0.7988,-0.7988,-0.7988,-2.5528,-2.5693,-2.5693,-2.5693,-2.5693,-2.5693,-2.5693,-2.5693,-2.4643,-2.171,-2.0645,-2.0144,-2.0144,-2.0856,-2.0333,-1.7812,-1.7608,-1.7608,-1.7608,-1.6987,-1.6368,-1.5828,-1.5808,-1.5901,-1.6115,-1.6092,-1.6072,-1.6072,-1.5881,-1.5808,-1.5808,-1.5808,-1.5808,-1.5808,-1.5808,-1.5808,-1.5808,-1.5808,-1.5808,-1.5808,-1.5808,-1.5728,-1.5631,-1.5631,-1.5451,-1.522,-1.522,-1.522,-1.522,-1.522,-1.5391,-1.5631,-1.5631,-1.5631,-1.5631,-1.5631,-1.5311,-1.4818,-1.3925,-1.2798,-1.165,-1.0633,-0.9418,-0.8673,-0.9399,-0.9001,-0.8646,-0.921,-0.9691,-0.9652,-0.8494,-0.8998,-0.9265,-0.8271,-0.8502,-0.9091,-0.9896,-1.0586,-1.1479,-1.2739,-1.3592,-1.404,-1.3931,-1.4081,-1.4211,-1.4317,-1.4224,-1.4476,-1.5141,-1.5464,-1.5558,-1.5398,-1.475,-1.4025,-1.3222,-1.0868,-0.9668,-0.9668,-0.9824,-1.023,-1.0855,-1.2951,-1.3512,-1.285,-1.3449,-1.301,-1.1784,-1.0392,-0.9873,-0.9875,-0.8531,-0.7988,-0.7988,-0.7988,-0.7988,-0.7988,-2.5113,-2.5411,-2.5693,-2.5693,-2.5693,-2.5274,-2.3998,-2.3825,-2.2316,-1.8146,-1.7608,-1.7608,-1.7608,-1.7608,-1.7608,-1.7608,-1.7608,-1.7608,-1.7608,-1.674,-1.6215,-1.6215,-1.6128,-1.6195,-1.6448,-1.6371,-1.6297,-1.6297,-1.5948,-1.5808,-1.5808,-1.5808,-1.5808,-1.5808,-1.5808,-1.5808,-1.5808,-1.5808,-1.5808,-1.5808,-1.5808,-1.5808,-1.5808,-1.5808,-1.5668,-1.5498,-1.5498,-1.5498,-1.5498,-1.5498,-1.5621,-1.5808,-1.5808,-1.5808,-1.5808,-1.5808,-1.5518,-1.4907,-1.3567,-1.2296,-1.1369,-1.1424,-0.9862,-0.8655,-0.9994,-0.9493,-0.8752,-0.8752,-0.9345,-0.9597,-0.8718,-0.9764,-1.0528,-0.9875,-1.0101,-1.0546,-1.1009,-1.1863,-1.2635,-1.3096,-1.4101,-1.4423,-1.3608,-1.3469,-1.3456,-1.352,-1.3761,-1.4282,-1.5138,-1.5297,-1.5121,-1.4599,-1.385,-1.3181,-1.2607,-1.0575,-0.9534,-0.9534,-0.9534,-0.9706,-1.0071,-1.2081,-1.2595,-1.194,-1.2872,-1.2942,-1.227,-1.087,-1.0347,-1.0317,-0.8994,-0.8283,-0.8038,-0.8357,-0.8258,-0.8038,-2.3286,-2.4582,-2.5693,-2.5693,-2.5693,-2.3998,-1.8961,-1.8199,-1.8042,-1.7661,-1.7608,-1.7608,-1.7608,-1.7608,-1.7608,-1.7608,-1.7608,-1.7608,-1.7608,-1.7528,-1.7481,-1.7481,-1.7101,-1.684,-1.6687,-1.6438,-1.6297,-1.6297,-1.5948,-1.5808,-1.5808,-1.5808,-1.5808,-1.5808,-1.5808,-1.5808,-1.5808,-1.5808,-1.5808,-1.5808,-1.5808,-1.5808,-1.5808,-1.5808,-1.5788,-1.5775,-1.5775,-1.5775,-1.5775,-1.5775,-1.5788,-1.5808,-1.5808,-1.5808,-1.5808,-1.5808,-1.5775,-1.5451,-1.4184,-1.2685,-1.1532,-1.1796,-1.084,-1.0173,-1.1463,-1.1677,-1.1609,-1.1609,-1.1552,-1.1492,-1.1421,-1.1319,-1.1228,-1.1155,-1.1842,-1.2408,-1.2444,-1.3786,-1.4783,-1.4823,-1.4319,-1.3951,-1.3867,-1.2753,-1.2541,-1.3777,-1.389,-1.4441,-1.567,-1.4656,-1.3458,-1.2192,-1.2081,-1.1478,-1.0271,-0.8842,-0.8137,-0.8137,-0.8137,-0.88,-0.9998,-1.019,-1.0877,-1.1896,-1.1978,-1.2681,-1.3656,-1.2289,-1.176,-1.1629,-1.0342,-0.9093,-0.8162,-0.9386,-0.9069,-0.8187,-2.4495,-2.4368,-2.4417,-2.5499,-2.2901,-1.9981,-1.7917,-1.7608,-1.7608,-1.7608,-1.7608,-1.7608,-1.7608,-1.7608,-1.7608,-1.7608,-1.7608,-1.7608,-1.7608,-1.7608,-1.7608,-1.7608,-1.7442,-1.7354,-1.7248,-1.6993,-1.6752,-1.654,-1.6246,-1.6012,-1.5808,-1.5808,-1.5808,-1.5808,-1.5808,-1.5808,-1.5808,-1.5808,-1.5808,-1.5808,-1.5808,-1.5808,-1.5808,-1.5808,-1.5808,-1.5808,-1.5808,-1.5808,-1.5808,-1.5808,-1.5808,-1.5808,-1.5808,-1.5808,-1.5808,-1.5808,-1.5808,-1.5683,-1.5218,-1.407,-1.3004,-1.3104,-1.2159,-1.1531,-1.2837,-1.2503,-1.1896,-1.1896,-1.1855,-1.1819,-1.1819,-1.2247,-1.2676,-1.288,-1.3393,-1.3897,-1.4273,-1.4006,-1.3816,-1.3982,-1.3211,-1.2353,-1.1551,-1.1019,-1.1263,-1.2546,-1.2668,-1.3229,-1.4561,-1.3373,-1.2067,-1.0754,-1.073,-1.0485,-0.9998,-0.8676,-0.7988,-0.8013,-0.885,-0.9069,-0.8825,-1.0435,-1.0558,-0.9583,-1.119,-1.2188,-1.2546,-1.1263,-1.1194,-1.1677,-0.9583,-0.8457,-0.8063,-0.8581,-0.8432,-0.8063,-2.4641,-2.4348,-2.429,-2.5479,-2.0914,-1.7154,-1.7528,-1.7608,-1.7608,-1.7608,-1.7936,-1.803,-1.7648,-1.7608,-1.7608,-1.7608,-1.7608,-1.7608,-1.7608,-1.7608,-1.7608,-1.7608,-1.7608,-1.7608,-1.7608,-1.7347,-1.7099,-1.6872,-1.6578,-1.6306,-1.6082,-1.5988,-1.5972,-1.5941,-1.5848,-1.5808,-1.5808,-1.5808,-1.5808,-1.5808,-1.5808,-1.5808,-1.5808,-1.5808,-1.5808,-1.5808,-1.5808,-1.5808,-1.5821,-1.5915,-1.5881,-1.5821,-1.5915,-1.5881,-1.5808,-1.5808,-1.5808,-1.5808,-1.5808,-1.517,-1.4507,-1.4507,-1.3494,-1.2861,-1.4196,-1.3788,-1.3108,-1.3108,-1.3108,-1.3108,-1.3108,-1.369,-1.4222,-1.4453,-1.44,-1.4462,-1.4877,-1.3607,-1.2716,-1.2901,-1.197,-1.095,-1.0071,-0.9608,-0.9899,-1.1214,-1.1292,-1.1702,-1.2638,-1.1799,-1.0705,-0.941,-0.9361,-0.9361,-0.9361,-0.8457,-0.8212,-0.8627,-0.9558,-0.9731,-0.9262,-1.0681,-1.0313,-0.8701,-1.0071,-1.0921,-1.1238,-1.0366,-1.0509,-1.1116,-0.9336,-0.8382,-0.8088,-0.892,-0.8701,-0.8113,-2.311,-2.4504,-2.5693,-2.5693,-2.0231,-1.6208,-1.7428,-1.7608,-1.7615,-1.7622,-1.8652,-1.8926,-1.7742,-1.7608,-1.7608,-1.7608,-1.7608,-1.7608,-1.7608,-1.7608,-1.7608,-1.7608,-1.7608,-1.7608,-1.7608,-1.7353,-1.7206,-1.7199,-1.6879,-1.6707,-1.67,-1.6438,-1.6304,-1.6284,-1.5941,-1.5808,-1.5808,-1.5808,-1.5808,-1.5808,-1.5808,-1.5808,-1.5808,-1.5808,-1.5808,-1.5808,-1.5808,-1.5808,-1.5855,-1.6203,-1.6079,-1.5861,-1.6203,-1.6072,-1.5808,-1.5808,-1.5808,-1.5808,-1.5808,-1.5808,-1.5808,-1.5808,-1.4854,-1.4244,-1.5516,-1.5808,-1.5808,-1.5815,-1.5808,-1.5808,-1.5808,-1.5808,-1.5808,-1.5808,-1.4728,-1.3902,-1.3902,-1.2745,-1.1901,-1.1901,-1.0754,-0.9977,-0.9977,-0.8775,-0.8552,-0.9903,-0.9998,-0.9998,-0.9998,-0.9998,-0.9365,-0.8038,-0.7988,-0.7988,-0.7988,-0.8013,-0.8676,-0.9998,-0.9998,-1.0681,-1.1848,-1.0583,-0.9998,-0.9948,-0.8602,-0.8775,-0.9998,-0.9998,-0.9998,-0.9998,-0.9998,-0.9167,-0.8308,-1.0921,-1.0239,-0.8382,-2.467,-2.5333,-2.5693,-2.5693,-2.0905,-1.7174,-1.7555,-1.7608,-1.7909,-1.8752,-1.8438,-1.8003,-1.7648,-1.7608,-1.7608,-1.7608,-1.7608,-1.7608,-1.7608,-1.7608,-1.7608,-1.7608,-1.7608,-1.7608,-1.7608,-1.7521,-1.7381,-1.7199,-1.7112,-1.6933,-1.67,-1.6613,-1.6491,-1.6297,-1.6203,-1.6025,-1.5808,-1.5808,-1.5808,-1.5808,-1.5808,-1.5808,-1.5808,-1.5808,-1.5959,-1.6139,-1.6139,-1.6273,-1.646,-1.6547,-1.6513,-1.6426,-1.633,-1.6072,-1.5808,-1.5808,-1.5808,-1.5848,-1.6086,-1.6139,-1.6092,-1.5855,-1.551,-1.5395,-1.602,-1.5979,-1.5921,-1.6335,-1.6279,-1.6139,-1.6139,-1.6139,-1.6072,-1.5841,-1.568,-1.5201,-1.4046,-1.3021,-1.1967,-1.0843,-0.9593,-0.8802,-0.8802,-0.8324,-0.8552,-0.9903,-0.9998,-0.9998,-0.9998,-0.9118,-0.8407,-0.8013,-0.7988,-0.7988,-0.7988,-0.8924,-0.9608,-0.9998,-1.0901,-1.1536,-1.1896,-1.1507,-1.1336,-1.1268,-0.9973,-1.0145,-1.1194,-0.9361,-0.9143,-0.9899,-0.897,-0.8357,-0.8088,-0.8871,-0.8676,-0.8113,-2.2718,-2.25,-2.25,-2.25,-1.9775,-1.7608,-1.7608,-1.7608,-1.7869,-1.8592,-1.8057,-1.7608,-1.7608,-1.7608,-1.7608,-1.7608,-1.7608,-1.7608,-1.7608,-1.7608,-1.7662,-1.7762,-1.7649,-1.7608,-1.7608,-1.7608,-1.7521,-1.7373,-1.7373,-1.7254,-1.7048,-1.6959,-1.6812,-1.6638,-1.6524,-1.6346,-1.6155,-1.6155,-1.6088,-1.6012,-1.6102,-1.6082,-1.6019,-1.6108,-1.6286,-1.6464,-1.6464,-1.656,-1.6727,-1.684,-1.6906,-1.6852,-1.6565,-1.6319,-1.6155,-1.6155,-1.6155,-1.6195,-1.6393,-1.6464,-1.64,-1.6219,-1.6155,-1.6202,-1.64,-1.6306,-1.6255,-1.6633,-1.6567,-1.6464,-1.6464,-1.6464,-1.6386,-1.6182,-1.5896,-1.5165,-1.3605,-1.2501,-1.1265,-0.9703,-0.8859,-0.8379,-0.8379,-0.8269,-0.8541,-0.934,-0.9415,-0.9415,-0.9415,-0.8585,-0.813,-0.813,-0.8047,-0.7988,-0.7988,-0.934,-1.0243,-1.0754,-1.1536,-1.2431,-1.3427,-1.2915,-1.2692,-1.2595,-1.0779,-1.044,-1.0974,-0.8871,-0.8482,-0.9118,-0.8308,-0.7988,-0.8063,-0.8602,-0.8457,-0.8088,-1.8577,-1.7608,-1.7608,-1.7608,-1.7608,-1.7608,-1.7608,-1.7608,-1.7608,-1.7608,-1.7608,-1.7608,-1.7608,-1.7608,-1.7608,-1.7608,-1.7608,-1.7628,-1.7689,-1.7649,-1.7769,-1.8015,-1.7816,-1.7675,-1.7648,-1.7622,-1.7608,-1.7608,-1.7608,-1.7608,-1.7602,-1.7341,-1.7226,-1.7192,-1.6892,-1.6734,-1.6707,-1.6707,-1.6553,-1.6357,-1.66,-1.6547,-1.6364,-1.6607,-1.672,-1.6747,-1.6747,-1.676,-1.6827,-1.712,-1.7226,-1.7152,-1.6834,-1.6727,-1.6707,-1.6707,-1.6707,-1.6714,-1.674,-1.6747,-1.6747,-1.678,-1.678,-1.678,-1.6747,-1.6727,-1.672,-1.6774,-1.6767,-1.6747,-1.6747,-1.6747,-1.6734,-1.6707,-1.5746,-1.4493,-1.3007,-1.1829,-1.0533,-0.892,-0.8709,-0.8657,-0.8529,-0.8515,-0.8509,-0.8509,-0.8509,-0.8509,-0.8509,-0.8386,-0.8315,-0.8315,-0.8128,-0.8054,-0.8054,-0.926,-1.0495,-1.1726,-1.1848,-1.3173,-1.5447,-1.4256,-1.374,-1.3619,-1.1097,-0.9998,-0.9903,-0.8552,-0.7988,-0.7988,-0.7988,-0.7988,-0.8137,-0.9381,-0.9055,-0.8187,-1.7838,-1.7608,-1.7608,-1.7608,-1.7608,-1.7608,-1.7608,-1.7608,-1.7608,-1.7608,-1.7608,-1.7608,-1.7608,-1.7608,-1.7608,-1.7608,-1.7608,-1.7809,-1.8263,-1.815,-1.8163,-1.8384,-1.833,-1.8183,-1.7922,-1.7709,-1.7608,-1.7608,-1.7608,-1.7608,-1.7608,-1.7541,-1.7394,-1.7199,-1.7107,-1.6953,-1.6707,-1.6707,-1.6667,-1.662,-1.668,-1.6667,-1.662,-1.668,-1.6847,-1.708,-1.708,-1.7227,-1.7428,-1.7495,-1.7361,-1.7192,-1.71,-1.6919,-1.6707,-1.6707,-1.6707,-1.676,-1.7013,-1.708,-1.7133,-1.7361,-1.7395,-1.7354,-1.7127,-1.6899,-1.6834,-1.7295,-1.724,-1.708,-1.708,-1.708,-1.6999,-1.674,-1.6691,-1.6132,-1.4544,-1.4359,-1.3397,-1.07,-1.0369,-0.9922,-0.8766,-0.8554,-0.8509,-0.8509,-0.8509,-0.8509,-0.8509,-0.8478,-0.8461,-0.8461,-0.8404,-0.8387,-0.8387,-0.8669,-0.9355,-1.0411,-1.1414,-1.2281,-1.296,-1.2534,-1.2428,-1.246,-1.0744,-0.9998,-0.9903,-0.8552,-0.7988,-0.7988,-0.7988,-0.7988,-0.8052,-0.8499,-0.8391,-0.8055,-1.7608,-1.7608,-1.7608,-1.7608,-1.7608,-1.7608,-1.7608,-1.7608,-1.7608,-1.7608,-1.7608,-1.7608,-1.7608,-1.7608,-1.7608,-1.7608,-1.7849,-1.815,-1.847,-1.8397,-1.8444,-1.8684,-1.8564,-1.8417,-1.8236,-1.7929,-1.7736,-1.7608,-1.7608,-1.7608,-1.7608,-1.7608,-1.7528,-1.7381,-1.7381,-1.7294,-1.7121,-1.7121,-1.7066,-1.6959,-1.7068,-1.7041,-1.6959,-1.7074,-1.7247,-1.7381,-1.7381,-1.7481,-1.7608,-1.7608,-1.7508,-1.7381,-1.7381,-1.7274,-1.7121,-1.7121,-1.7121,-1.7161,-1.7341,-1.7381,-1.7454,-1.7729,-1.7695,-1.7568,-1.7414,-1.726,-1.7208,-1.7522,-1.7488,-1.7381,-1.7381,-1.7381,-1.7327,-1.7148,-1.728,-1.6847,-1.5295,-1.5273,-1.4292,-1.1343,-1.1011,-1.0425,-0.8927,-0.872,-0.8699,-0.8699,-0.8699,-0.8699,-0.8699,-0.9284,-0.9323,-0.8617,-0.9219,-0.9205,-0.8509,-0.8509,-0.8764,-0.9306,-1.0583,-1.1565,-1.2299,-1.2189,-1.2164,-1.2114,-1.0712,-1.01,-0.9996,-0.8585,-0.8057,-0.815,-0.815,-0.815,-0.8167,-0.8342,-0.8319,-0.8262,-1.7608,-1.7608,-1.7608,-1.7608,-1.7608,-1.7608,-1.7608,-1.7608,-1.7682,-1.7883,-1.7916,-1.7836,-1.7628,-1.7608,-1.7608,-1.7608,-1.8257,-1.8637,-1.8637,-1.8637,-1.8724,-1.889,-1.8738,-1.8571,-1.8417,-1.8196,-1.7916,-1.7608,-1.7608,-1.7608,-1.7608,-1.7608,-1.7608,-1.7608,-1.7608,-1.7608,-1.7608,-1.7608,-1.7468,-1.7293,-1.7508,-1.7468,-1.73,-1.7521,-1.7608,-1.7615,-1.7642,-1.7662,-1.7655,-1.7628,-1.7608,-1.7608,-1.7608,-1.7608,-1.7608,-1.7608,-1.7608,-1.7622,-1.7649,-1.7662,-1.7722,-1.7929,-1.7829,-1.7662,-1.7662,-1.7622,-1.7608,-1.7608,-1.7648,-1.7662,-1.7662,-1.7662,-1.7682,-1.7729,-1.7675,-1.7212,-1.6083,-1.5871,-1.4778,-1.1887,-1.1072,-1.0253,-0.9054,-0.8926,-0.8923,-0.8946,-0.8926,-0.8912,-0.8912,-0.9942,-1.0,-0.8774,-0.9807,-0.9809,-0.8587,-0.856,-0.856,-0.8587,-0.9628,-1.0706,-1.1758,-1.1747,-1.1683,-1.1546,-1.0399,-0.9892,-0.9776,-0.855,-0.814,-0.826,-0.8284,-0.8298,-0.8315,-0.8454,-0.8526,-0.8546,-1.7608,-1.7608,-1.7608,-1.7608,-1.7608,-1.7608,-1.7608,-1.7608,-1.7983,-1.902,-1.9154,-1.8759,-1.7722,-1.7608,-1.7608,-1.7608,-1.8632,-1.9281,-1.9281,-1.9281,-1.918,-1.8903,-1.9132,-1.8913,-1.8096,-1.831,-1.815,-1.7608,-1.7608,-1.7608,-1.7608,-1.7608,-1.7608,-1.7608,-1.7608,-1.7608,-1.7608,-1.7608,-1.7588,-1.7555,-1.7595,-1.7582,-1.7555,-1.7595,-1.7608,-1.7615,-1.7856,-1.7956,-1.7916,-1.7669,-1.7608,-1.7608,-1.7608,-1.7608,-1.7608,-1.7608,-1.7608,-1.7642,-1.7882,-1.7956,-1.7935,-1.7982,-1.7962,-1.7956,-1.7956,-1.7776,-1.7608,-1.7608,-1.7769,-1.7956,-1.7956,-1.7956,-1.8042,-1.8323,-1.7929,-1.7709,-1.8037,-1.7837,-1.6565,-1.3685,-1.0903,-0.9179,-0.9166,-0.9011,-0.8963,-0.9145,-0.9008,-0.8912,-0.8912,-0.9082,-0.9071,-0.8879,-0.9051,-0.9037,-0.8848,-0.8848,-0.8848,-0.8848,-0.901,-0.9128,-0.9205,-0.909,-0.909,-0.9169,-0.8871,-0.8662,-0.8543,-0.8347,-0.8174,-0.8057,-0.8243,-0.8298,-0.8315,-0.8454,-0.8567,-0.8679,-1.7608,-1.7608,-1.7608,-1.7608,-1.7608,-1.7608,-1.7608,-1.7608,-1.7796,-1.8324,-1.8398,-1.8197,-1.7668,-1.7608,-1.7876,-1.8552,-1.9087,-1.9395,-1.9395,-1.9395,-1.9261,-1.891,-1.9052,-1.8778,-1.8022,-1.8143,-1.8029,-1.7608,-1.7608,-1.7608,-1.7608,-1.7608,-1.7608,-1.7608,-1.7608,-1.7608,-1.7608,-1.7608,-1.7608,-1.7608,-1.7608,-1.7689,-1.7822,-1.7649,-1.7822,-1.8083,-1.8029,-1.7995,-1.7976,-1.7689,-1.7608,-1.7608,-1.7608,-1.7608,-1.7608,-1.7608,-1.7702,-1.7842,-1.7955,-1.8143,-1.8309,-1.8469,-1.8389,-1.8309,-1.8469,-1.7597,-1.7024,-1.792,-1.8196,-1.8269,-1.8269,-1.8269,-1.8337,-1.847,-1.8291,-1.821,-1.8457,-1.7606,-1.5834,-1.2824,-1.0511,-0.9211,-0.9301,-0.9222,-0.9211,-0.9305,-0.9172,-0.9059,-0.9059,-1.0508,-1.0594,-0.8937,-1.0511,-1.0566,-0.8912,-0.8912,-0.8912,-0.8912,-0.8912,-0.8875,-0.8811,-0.8879,-0.8832,-0.8713,-0.873,-0.8652,-0.8503,-0.8366,-0.8304,-0.8292,-0.8386,-0.8492,-0.8652,-0.8713,-0.8754,-0.8811]},{"header":{"parameterUnit":"m.s-1","parameterCategory":1,"la1":30.6,"la2":28.766,"lo1":-90.7593,"lo2":-88.6598,"dy":0.0162,"dx":0.0183,"nx":116,"ny":114,"refTime":"2024-04-22T12:00:00:Z","depth":0,"parameterNumber":3,"parameterNumberName":"V-component_of_WINDS"},"data":[0.0,0.0,0.0,0.0,0.0,0.0,0.0,0.0,0.0,0.0,0.0,0.0,0.0,0.0,0.0,0.0,0.0,0.0,0.0,0.0,0.0,0.0,0.0,0.0,0.0,0.0,0.0,0.0,0.0,0.0,0.0,0.0,0.0,0.0,0.0,0.0,0.0,0.0,0.0,0.0,0.0,0.0,0.0,0.0,0.0,0.0,0.0,0.0,0.0,0.0,0.0,0.0,0.0,0.0,0.0,0.0,0.0,0.0,0.0,0.0,0.0,0.0,0.0,0.0,0.0,0.0,0.0,0.0,0.0,0.0,0.0,0.0,0.0,0.0,0.0,0.0,0.0,0.0,0.0,0.0,0.0,0.0,0.0,0.0,0.0,0.0,0.0,0.0,0.0,0.0,0.0,0.0,0.0,0.0,0.0,0.0,0.0,0.0,0.0,0.0,0.0,0.0,0.0,0.0,0.0,0.0,0.0,0.0,0.0,0.0,0.0,0.0,0.0,0.0,0.0,0.0,0.0,0.0,0.0,0.0,0.0,0.0,0.0,0.0,0.0,0.0,0.0,0.0,0.0,0.0,0.0,0.0,0.0,0.0,0.0,0.0,0.0,0.0,0.0,0.0,0.0,0.0,0.0,0.0,0.0,0.0,0.0,0.0,0.0,0.0,0.0,0.0,0.0,0.0,0.0,0.0,0.0,0.0,0.0,0.0,0.0,0.0,0.0,0.0,0.0,0.0,0.0,0.0,0.0,0.0,0.0,0.0,0.0,0.0,0.0,0.0,0.0,0.0,0.0,0.0,0.0,0.0,0.0,0.0,0.0,0.0,0.0,0.0,0.0,0.0,0.0,0.0,0.0,0.0,0.0,0.0,0.0,0.0,0.0,0.0,0.0,0.0,0.0,0.0,0.0,0.0,0.0,0.0,0.0,0.0,0.0,0.0,0.0,0.0,0.0,0.0,0.0,0.0,0.0,0.0,0.0,0.0,0.0,0.0,0.0,0.0,0.0,0.0,0.0,0.0,0.0,0.0,0.0,0.0,0.0,0.0,0.0,0.0,0.0,0.0,0.0,0.0,0.0,0.0,0.0,0.0,0.0,0.0,0.0,0.0,0.0,0.0,0.0,0.0,0.0,0.0,0.0,0.0,0.0,0.0,0.0,0.0,0.0,0.0,0.0,0.0,0.0,0.0,0.0,0.0,0.0,0.0,0.0,0.0,0.0,0.0,0.0,0.0,0.0,0.0,0.0,0.0,0.0,0.0,0.0,0.0,0.0,0.0,0.0,0.0,0.0,0.0,0.0,0.0,0.0,0.0,0.0,0.0,0.0,0.0,0.0,0.0,0.0,0.0,0.0,0.0,0.0,0.0,0.0,0.0,0.0,0.0,0.0,0.0,0.0,0.0,0.0,0.0,0.0,0.0,0.0,0.0,0.0,0.0,0.0,0.0,0.0,0.0,0.0,0.0,0.0,0.0,0.0,0.0,0.0,0.0,0.0,0.0,0.0,0.0,0.0,0.0,0.0,0.0,0.0,0.0,0.0,0.0,0.0,0.0,0.0,0.0,0.0,0.0,0.0,0.0,0.0,0.0,0.0,0.0,0.0,0.0,0.0,0.0,0.0,0.0,0.0,0.0,0.0,0.0,0.0,0.0,0.0,0.0,0.0,0.0,0.0,0.0,0.0,0.0,0.0,0.0,0.0,0.0,0.0,0.0,0.0,0.0,0.0,0.0,0.0,0.0,0.0,0.0,0.0,0.0,0.0,0.0,0.0,0.0,0.0,0.0,0.0,0.0,0.0,0.0,0.0,0.0,0.0,0.0,0.0,0.0,0.0,0.0,0.0,0.0,0.0,0.0,0.0,0.0,0.0,0.0,0.0,0.0,0.0,0.0,0.0,0.0,0.0,0.0,0.0,0.0,0.0,0.0,0.0,0.0,0.0,0.0,0.0,0.0,0.0,0.0,0.0,0.0,0.0,0.0,0.0,0.0,0.0,0.0,0.0,0.0,0.0,0.0,0.0,0.0,0.0,0.0,0.0,0.0,0.0,0.0,0.0,0.0,0.0,0.0,0.0,0.0,0.0,0.0,0.0,0.0,0.0,0.0,0.0,0.0,0.0,0.0,0.0,0.0,0.0,0.0,0.0,0.0,0.0,0.0,0.0,0.0,0.0,0.0,0.0,0.0,0.0,0.0,0.0,0.0,0.0,0.0,0.0,0.0,0.0,0.0,0.0,0.0,0.0,0.0,0.0,0.0,0.0,0.0,0.0,0.0,0.0,0.0,0.0,0.0,0.0,0.0,0.0,0.0,0.0,0.0,0.0,0.0,0.0,0.0,0.0,0.0,0.0,0.0,0.0,0.0,0.0,0.0,0.0,0.0,0.0,0.0,0.0,0.0,0.0,0.0,0.0,0.0,0.0,0.0,0.0,0.0,0.0,0.0,0.0,0.0,0.0,0.0,0.0,0.0,0.0,0.0,0.0,0.0,0.0,0.0,0.0,0.0,0.0,0.0,0.0,0.0,0.0,0.0,0.0,0.0,0.0,0.0,0.0,0.0,0.0,0.0,0.0,0.0,0.0,0.0,0.0,0.0,0.0,0.0,0.0,0.0,0.0,0.0,0.0,0.0,0.0,0.0,0.0,0.0,0.0,0.0,0.0,0.0,0.0,0.0,0.0,0.0,0.0,0.0,0.0,0.0,0.0,0.0,0.0,0.0,0.0,0.0,0.0,0.0,0.0,0.0,0.0,0.0,0.0,0.0,0.0,0.0,0.0,0.0,0.0,0.0,0.0,0.0,0.0,0.0,0.0,0.0,0.0,0.0,0.0,0.0,0.0,0.0,0.0,0.0,0.0,0.0,0.0,0.0,0.0,0.0,0.0,0.0,0.0,0.0,0.0,0.0,0.0,0.0,0.0,0.0,0.0,0.0,0.0,0.0,0.0,0.0,0.0,0.0,0.0,0.0,0.0,0.0,0.0,0.0,0.0,0.0,0.0,0.0,0.0,0.0,0.0,0.0,0.0,0.0,0.0,0.0,0.0,0.0,0.0,0.0,0.0,0.0,0.0,0.0,0.0,0.0,0.0,0.0,0.0,0.0,0.0,0.0,0.0,0.0,0.0,0.0,0.0,0.0,0.0,0.0,0.0,0.0,0.0,0.0,0.0,0.0,0.0,0.0,0.0,0.0,0.0,0.0,0.0,0.0,0.0,0.0,0.0,0.0,0.0,0.0,0.0,0.0,0.0,0.0,0.0,0.0,0.0,0.0,0.0,0.0,0.0,0.0,0.0,0.0,0.0,0.0,0.0,0.0,0.0,0.0,0.0,0.0,0.0,0.0,0.0,0.0,0.0,0.0,0.0,0.0,0.0,0.0,0.0,0.0,0.0,0.0,0.0,0.0,0.0,0.0,0.0,0.0,0.0,0.0,0.0,0.0,0.0,0.0,0.0,0.0,0.0,0.0,0.0,0.0,0.0,0.0,0.0,0.0,0.0,0.0,0.0,0.0,0.0,0.0,0.0,0.0,0.0,0.0,0.0,0.0,0.0,0.0,0.0,0.0,0.0,0.0,0.0,0.0,0.0,0.0,0.0,0.0,0.0,0.0,0.0,0.0,0.0,0.0,0.0,0.0,0.0,0.0,0.0,0.0,0.0,0.0,0.0,0.0,0.0,0.0,0.0,0.0,0.0,0.0,0.0,0.0,0.0,0.0,0.0,0.0,0.0,0.0,0.0,0.0,0.0,0.0,0.0,0.0,0.0,0.0,0.0,0.0,0.0,0.0,0.0,0.0,0.0,0.0,0.0,0.0,0.0,0.0,0.0,0.0,0.0,0.0,0.0,0.0,0.0,0.0,0.0,0.0,0.0,0.0,0.0,0.0,0.0,0.0,0.0,0.0,0.0,0.0,0.0,0.0,0.0,0.0,0.0,0.0,0.0,0.0,0.0,0.0,0.0,0.0,0.0,0.0,0.0,0.0,0.0,0.0,0.0,0.0,0.0,0.0,0.0,0.0,0.0,0.0,0.0,0.0,0.0,0.0,0.0,0.0,0.0,0.0,0.0,0.0,0.0,0.0,0.0,0.0,0.0,0.0,0.0,0.0,0.0,0.0,0.0,0.0,0.0,0.0,0.0,0.0,0.0,0.0,0.0,0.0,0.0,0.0,0.0,0.0,0.0,0.0,0.0,0.0,0.0,0.0,0.0,0.0,0.0,0.0,0.0,0.0,0.0,0.0,0.0,0.0,0.0,0.0,0.0,0.0,0.0,0.0,0.0,0.0,0.0,0.0,0.0,0.0,0.0,0.0,0.0,0.0,0.0,0.0,0.0,0.0,0.0,0.0,0.0,0.0,0.0,0.0,0.0,0.0,0.0,0.0,0.0,0.0,0.0,0.0,0.0,0.0,0.0,0.0,0.0,0.0,0.0,0.0,0.0,0.0,0.0,0.0,0.0,0.0,0.0,0.0,0.0,0.0,0.0,0.0,0.0,0.0,0.0,0.0,0.0,0.0,0.0,0.0,0.0,0.0,0.0,0.0,0.0,0.0,0.0,0.0,0.0,0.0,0.0,0.0,0.0,0.0,0.0,0.0,0.0,0.0,0.0,0.0,0.0,0.0,0.0,0.0,0.0,0.0,0.0,0.0,0.0,0.0,0.0,0.0,0.0,0.0,0.0,0.0,0.0,0.0,0.0,0.0,0.0,0.0,0.0,0.0,0.0,0.0,0.0,0.0,0.0,0.0,0.0,0.0,0.0,0.0,0.0,0.0,0.0,0.0,0.0,0.0,0.0,0.0,0.0,0.0,0.0,0.0,0.0,0.0,0.0,0.0,0.0,0.0,0.0,0.0,0.0,0.0,0.0,0.0,0.0,0.0,0.0,0.0,0.0,0.0,0.0,0.0,0.0,0.0,0.0,0.0,0.0,0.0,0.0,0.0,0.0,0.0,0.0,0.0,0.0,0.0,0.0,0.0,0.0,0.0,0.0,0.0,0.0,0.0,0.0,0.0,0.0,0.0,0.0,0.0,0.0,0.0,0.0,0.0,0.0,0.0,0.0,0.0,0.0,0.0,0.0,0.0,0.0,0.0,0.0,0.0,0.0,0.0,0.0,0.0,0.0,0.0,0.0,0.0,0.0,0.0,0.0,0.0,0.0,0.0,0.0,0.0,0.0,0.0,0.0,0.0,0.0,0.0,0.0,0.0,0.0,0.0,0.0,0.0,0.0,0.0,0.0,0.0,0.0,0.0,0.0,0.0,0.0,0.0,0.0,0.0,0.0,0.0,0.0,0.0,0.0,0.0,0.0,0.0,0.0,0.0,0.0,0.0,0.0,0.0,0.0,0.0,0.0,0.0,0.0,0.0,0.0,0.0,0.0,0.0,0.0,0.0,0.0,0.0,0.0,0.0,0.0,0.0,0.0,0.0,0.0,0.0,0.0,0.0,0.0,0.0,0.0,0.0,0.0,0.0,0.0,0.0,0.0,0.0,0.0,0.0,0.0,0.0,0.0,0.0,0.0,0.0,0.0,0.0,0.0,0.0,0.0,0.0,0.0,0.0,0.0,0.0,0.0,0.0,0.0,0.0,0.0,0.0,0.0,0.0,0.0,0.0,0.0,0.0,0.0,0.0,0.0,0.0,0.0,0.0,0.0,0.0,0.0,0.0,0.0,0.0,0.0,0.0,0.0,0.0,0.0,0.0,0.0,0.0,0.0,0.0,0.0,0.0,0.0,0.0,0.0,0.0,0.0,0.0,0.0,0.0,0.0,0.0,0.0,0.0,0.0,0.0,0.0,0.0,0.0,0.0,0.0,0.0,0.0,0.0,0.0,0.0,0.0,0.0,0.0,0.0,0.0,0.0,0.0,0.0,0.0,0.0,0.0,0.0,0.0,0.0,0.0,0.0,0.0,0.0,0.0,0.0,0.0,0.0,0.0,0.0,0.0,0.0,0.0,0.0,0.0,0.0,0.0,0.0,0.0,0.0,0.0,0.0,0.0,0.0,0.0,0.0,0.0,0.0,0.0,0.0,0.0,0.0,0.0,0.0,0.0,0.0,0.0,0.0,0.0,0.0,0.0,0.0,0.0,0.0,0.0,0.0,0.0,0.0,0.0,0.0,0.0,0.0,2.2392,0.0,0.0,0.0,0.0,0.0,0.0,0.0,0.0,0.0,0.0,0.0,0.0,0.0,0.0,0.0,0.0,0.0,0.0,0.0,0.0,0.0,0.0,0.0,0.0,1.3966,1.3853,1.3758,1.3835,1.3948,1.4045,0.0,0.0,0.0,0.0,0.0,1.3768,1.4364,1.512,1.6005,1.6734,1.7661,1.8761,1.9157,1.8808,1.7833,0.0,0.0,0.0,0.0,0.0,0.0,0.0,0.0,0.0,0.0,0.0,0.0,0.0,0.0,0.0,0.0,0.0,0.0,0.0,0.0,0.0,0.0,0.0,0.0,0.0,0.0,0.0,0.0,0.0,0.0,0.0,0.0,0.0,0.0,0.0,0.0,0.0,0.0,0.0,0.0,0.0,0.0,0.0,0.0,0.0,0.0,0.0,0.0,0.0,0.0,0.0,0.0,0.0,0.0,0.0,0.0,0.0,0.0,0.0,0.0,0.0,0.0,0.0,0.0,0.0,0.0,0.0,0.0,0.0,0.0,0.0,2.4341,0.0,0.0,0.0,0.0,0.0,0.0,0.0,0.0,0.0,0.0,0.0,0.0,0.0,0.0,0.0,0.0,0.0,0.0,0.0,0.0,0.0,1.4106,1.3969,1.3895,1.3773,1.3604,1.3777,1.3892,1.386,1.4035,1.4065,1.3913,1.3874,1.3854,1.3852,1.4538,1.5434,1.655,1.787,1.9253,2.067,2.159,2.1266,1.9866,0.0,0.0,0.0,0.0,0.0,0.0,0.0,0.0,0.0,0.0,0.0,0.0,0.0,0.0,0.0,0.0,0.0,0.0,0.0,0.0,0.0,0.0,0.0,0.0,0.0,0.0,0.0,0.0,0.0,0.0,0.0,0.0,0.0,0.0,0.0,0.0,0.0,0.0,0.0,0.0,0.0,0.0,0.0,0.0,0.0,0.0,0.0,0.0,0.0,0.0,0.0,0.0,0.0,0.0,0.0,0.0,0.0,0.0,0.0,0.0,0.0,0.0,0.0,0.0,3.1873,3.2858,3.3128,3.3924,3.4117,3.3593,2.9812,2.7631,2.677,2.6991,0.0,0.0,0.0,0.0,0.0,0.0,0.0,0.0,0.0,0.0,0.0,0.0,0.0,0.0,0.0,0.0,0.0,0.0,0.0,1.3997,1.4146,1.3856,1.3623,1.3592,1.3777,1.3834,1.3642,1.3838,1.3931,1.3906,1.3725,1.404,1.4873,1.4905,1.6032,1.8349,2.1214,2.3088,2.3998,2.5456,2.6006,2.5611,2.1644,0.0,0.0,0.0,0.0,0.0,0.0,0.0,0.0,0.0,0.0,0.0,0.0,0.0,0.0,0.0,0.0,0.0,0.0,0.0,0.0,0.0,0.0,0.0,0.0,0.0,0.0,0.0,0.0,0.0,0.0,0.0,0.0,0.0,0.0,0.0,0.0,0.0,0.0,0.0,0.0,0.0,0.0,0.0,2.2223,2.2289,0.0,0.0,0.0,0.0,0.0,0.0,0.0,0.0,0.0,0.0,0.0,0.0,0.0,2.8488,3.0299,3.2255,3.3271,3.3383,3.4923,3.5019,3.3885,3.4985,3.6196,3.7351,3.6424,0.0,3.1167,2.912,0.0,0.0,0.0,0.0,0.0,0.0,0.0,0.0,0.0,0.0,0.0,0.0,0.0,0.0,0.0,0.0,0.0,0.0,0.0,0.0,0.0,1.5054,1.5354,1.5802,1.6641,1.6597,1.5258,1.5672,1.5306,1.3802,1.4302,1.4721,1.4988,1.6482,1.8747,2.1797,2.4529,2.6042,2.6423,2.7556,2.8076,2.7985,2.5766,2.4783,2.4706,2.2976,0.0,0.0,0.0,0.0,0.0,0.0,0.0,0.0,0.0,0.0,0.0,0.0,0.0,0.0,0.0,0.0,0.0,0.0,0.0,0.0,0.0,0.0,0.0,0.0,0.0,0.0,0.0,0.0,0.0,0.0,0.0,0.0,0.0,0.0,0.0,0.0,0.0,0.0,0.0,2.3277,2.4306,2.3071,2.4297,2.4565,0.0,0.0,0.0,0.0,0.0,0.0,0.0,0.0,0.0,2.908,3.1067,3.2562,3.3468,3.5626,3.7011,3.7618,3.9634,4.0384,4.005,4.0998,4.1825,4.2455,4.1824,4.0148,3.7622,3.4257,3.1718,2.9821,0.0,0.0,0.0,0.0,2.8024,2.8744,0.0,0.0,0.0,0.0,0.0,0.0,0.0,0.0,0.0,0.0,0.0,0.0,1.5674,1.6372,1.7097,1.7915,1.8972,1.8743,1.6749,1.692,1.6179,1.405,1.4692,1.5189,1.5412,1.8484,2.1643,2.4814,2.7236,2.8729,2.9353,3.0161,3.0656,3.0852,3.0377,2.9065,2.7081,2.5216,2.4143,0.0,0.0,0.0,0.0,0.0,0.0,0.0,0.0,0.0,0.0,0.0,0.0,0.0,0.0,0.0,0.0,0.0,0.0,0.0,0.0,0.0,0.0,0.0,0.0,0.0,0.0,0.0,0.0,0.0,0.0,0.0,0.0,0.0,0.0,0.0,0.0,0.0,0.0,2.5081,2.6054,2.3801,2.5969,2.6565,0.0,0.0,0.0,0.0,0.0,0.0,2.9038,3.0535,3.1946,3.3318,3.5544,3.6768,3.6888,3.9129,4.0761,4.1812,4.3593,4.4751,4.5337,4.5929,4.6318,4.6457,4.5542,4.4606,4.3326,3.8797,3.529,3.2809,3.2732,3.1835,3.0635,3.1298,3.194,3.259,0.0,0.0,0.0,0.0,0.0,0.0,0.0,0.0,0.0,0.0,0.0,1.4877,1.6621,1.7366,1.8087,1.8949,1.9206,1.8701,1.7251,1.6304,1.555,1.4958,1.4494,1.5068,1.6761,2.0747,2.401,2.6479,2.8901,3.1256,3.3513,3.4325,3.5133,3.5899,3.5045,3.3526,3.1322,2.723,2.655,2.7815,0.0,0.0,0.0,0.0,0.0,0.0,0.0,0.0,0.0,0.0,0.0,0.0,0.0,0.0,0.0,0.0,0.0,0.0,0.0,0.0,0.0,0.0,0.0,0.0,0.0,0.0,0.0,0.0,0.0,0.0,0.0,0.0,0.0,0.0,0.0,0.0,0.0,0.0,0.0,2.4168,2.7641,0.0,0.0,0.0,0.0,2.7605,2.8938,3.0702,3.2811,3.3672,3.4999,3.6976,3.9671,4.1294,4.1734,4.3696,4.4965,4.5526,4.5651,4.6161,4.6976,4.7013,4.7452,4.8103,4.6925,4.6792,4.6966,4.1027,3.781,3.6476,3.4963,3.4545,3.4716,3.4071,3.4742,3.5767,0.0,0.0,0.0,0.0,0.0,1.059,1.1975,1.2147,1.2335,1.3005,1.4749,1.6613,1.8382,2.0119,2.1478,2.2315,2.2666,2.2021,2.0086,1.8539,1.7621,1.7452,1.6971,1.8236,2.1524,2.4038,2.6497,2.8919,3.0827,3.2442,3.3825,3.4619,3.5169,3.5463,3.5727,3.5428,3.4473,3.064,2.8813,2.825,2.5279,2.3712,0.0,0.0,0.0,0.0,0.0,0.0,0.0,0.0,0.0,0.0,0.0,0.0,0.0,0.0,0.0,0.0,0.0,0.0,0.0,0.0,0.0,0.0,0.0,0.0,0.0,0.0,0.0,0.0,0.0,0.0,0.0,0.0,0.0,0.0,0.0,0.0,0.0,2.9662,3.2295,0.0,3.0644,3.0601,3.1036,3.1729,3.2427,3.414,3.7211,3.8412,3.9877,4.1814,4.3155,4.4043,4.4474,4.5683,4.613,4.5826,4.7416,4.7775,4.7072,4.814,4.8801,4.9013,4.8068,4.7495,4.7045,4.4374,4.1951,3.9794,3.8484,3.738,3.6577,3.7092,3.7748,3.8379,0.0,0.0,0.0,0.0,0.0,1.0064,1.1136,1.1792,1.2384,1.3027,1.536,1.7821,2.0099,2.193,2.3433,2.4507,2.4361,2.3293,2.1193,1.9483,1.8409,1.8032,1.8407,2.027,2.3858,2.5838,2.8167,3.0863,3.212,3.3295,3.439,3.5103,3.558,3.5874,3.6725,3.711,3.6931,3.4261,3.1813,2.9508,2.6943,2.5742,2.5211,0.0,0.0,0.0,0.0,0.0,0.0,0.0,0.0,0.0,0.0,0.0,0.0,0.0,0.0,0.0,0.0,0.0,0.0,0.0,0.0,0.0,0.0,0.0,0.0,0.0,0.0,0.0,0.0,0.0,0.0,0.0,0.0,0.0,0.0,0.0,3.2989,3.3329,3.5786,3.6683,3.4766,3.4709,3.5226,3.6247,3.6901,3.8561,4.157,4.2531,4.3718,4.5336,4.6125,4.6525,4.6546,4.748,4.7681,4.7174,4.851,4.8728,4.7979,4.9092,4.9602,4.9578,4.9203,4.8552,4.7665,4.6733,4.5076,4.3009,4.1913,4.078,3.9864,4.0671,4.1104,4.1323,0.0,0.0,0.0,0.0,0.0,1.0227,1.178,1.2175,1.2872,1.445,1.6132,1.8419,2.1652,2.2669,2.3713,2.5242,2.391,2.22,2.0368,1.888,1.7632,1.6675,1.8622,2.0947,2.3495,2.6099,2.8994,3.2241,3.2775,3.387,3.5491,3.6044,3.6721,3.7507,3.8329,3.8699,3.8644,3.7889,3.5561,3.212,2.883,2.793,2.8161,0.0,0.0,0.0,0.0,0.0,0.0,0.0,0.0,0.0,0.0,0.0,0.0,0.0,0.0,0.0,0.0,0.0,0.0,0.0,0.0,0.0,0.0,0.0,0.0,0.0,0.0,0.0,0.0,0.0,0.0,0.0,0.0,0.0,2.8885,3.2913,3.5564,3.486,3.7917,3.9019,3.6282,3.8711,4.0624,4.105,4.2383,4.3932,4.5679,4.5788,4.6266,4.7327,4.8495,4.8773,4.807,4.922,4.9804,4.9785,4.896,4.899,4.9759,4.9798,4.9798,4.9771,5.0235,4.9947,4.9047,4.7885,4.6874,4.5999,4.4998,4.4606,4.4606,4.4606,4.4606,4.4535,0.0,0.0,0.0,0.9632,0.9618,0.9696,1.0154,1.1401,1.27,1.3834,1.6938,1.9906,2.2114,2.4039,2.5055,2.4771,2.3229,2.2013,2.1395,1.8775,1.7873,1.9342,2.1813,2.4327,2.6834,2.8922,3.0995,3.3077,3.3612,3.424,3.494,3.5874,3.6519,3.6978,3.8177,3.8699,3.8718,3.91,3.8339,3.6618,3.3131,3.1141,2.9948,0.0,0.0,0.0,0.0,0.0,0.0,0.0,0.0,0.0,0.0,0.0,0.0,0.0,0.0,0.0,0.0,0.0,0.0,0.0,0.0,0.0,0.0,0.0,0.0,0.0,0.0,0.0,0.0,0.0,0.0,0.0,3.0769,3.2846,3.442,3.6999,3.9304,4.0841,4.2941,4.3948,4.3164,4.3512,4.4105,4.4892,4.4977,4.5781,4.7637,4.7729,4.8015,4.8657,4.8995,4.9216,4.9306,4.9632,4.9804,4.9804,5.0204,4.9849,4.8876,4.9508,4.9464,4.8854,4.8993,4.8552,4.7719,4.7389,4.6732,4.5888,4.5115,4.4829,4.4829,4.4829,4.4829,4.4795,0.0,0.0,0.0,0.9196,0.9333,0.943,0.9496,1.0772,1.2346,1.4027,1.7229,2.0261,2.2737,2.3841,2.4167,2.3595,2.1641,2.0145,1.9426,1.8197,1.8423,2.0536,2.3195,2.566,2.7896,2.9794,3.1553,3.3195,3.3753,3.4133,3.4349,3.5795,3.6556,3.6756,3.811,3.8891,3.9239,3.9706,3.9827,3.9528,3.7457,3.5713,3.3993,3.0796,2.9643,2.936,2.6741,2.6274,2.6477,2.3665,0.0,0.0,0.0,0.0,0.0,0.0,0.0,0.0,0.0,0.0,0.0,0.0,0.0,0.0,0.0,0.0,0.0,0.0,0.0,0.0,0.0,0.0,0.0,0.0,3.4036,3.6631,3.929,4.0335,4.1734,4.4163,4.4995,4.548,4.5825,4.5885,4.6286,4.7226,4.735,4.7929,4.9179,4.8913,4.9088,4.9895,4.9567,4.953,4.9879,5.0212,5.0034,4.9348,5.0226,4.9884,4.8511,4.9017,4.8977,4.8508,4.8507,4.8019,4.7201,4.7201,4.6694,0.0,0.0,0.0,0.0,0.0,4.5299,4.528,0.0,0.0,0.0,0.907,0.9181,0.9328,0.945,1.0345,1.1898,1.439,1.6908,1.9583,2.2558,2.2258,2.1783,2.1674,1.9479,1.7563,1.6377,1.7653,1.9265,2.103,2.3503,2.5744,2.7689,2.9483,3.1215,3.2891,3.3505,3.3808,3.3834,3.5788,3.6695,3.6756,3.811,3.9148,3.9908,4.0,4.0506,4.1242,4.1342,4.0485,3.8748,3.46,3.4057,3.5019,3.1579,3.01,2.9419,2.72,0.0,0.0,0.0,0.0,0.0,0.0,0.0,0.0,0.0,0.0,0.0,0.0,0.0,0.0,0.0,0.0,0.0,0.0,0.0,0.0,0.0,0.0,0.0,0.0,3.7509,3.9904,4.3345,4.3059,4.3337,4.5571,4.5287,4.518,4.5904,4.6617,4.7435,4.8395,4.9168,4.9829,5.0277,0.0,0.0,0.0,0.0,4.9646,4.9825,5.0646,5.0296,4.8835,4.9708,4.9611,4.8645,4.8547,4.845,4.8353,4.8247,4.7763,4.7058,4.7058,4.6606,4.5899,4.5901,4.5891,4.5891,4.5891,4.5843,4.5748,0.0,0.0,0.8938,0.8938,0.9059,0.9179,0.9324,1.027,1.1478,1.2811,1.5282,1.7175,1.7825,1.8928,1.9292,1.8481,1.7349,1.7092,1.8043,1.8989,2.0543,2.2883,2.4303,2.6142,2.8513,2.9761,3.1215,3.2891,3.3505,3.3808,3.3834,3.5788,3.6695,3.6756,3.811,3.9148,3.9945,4.0589,4.1323,4.2121,4.2763,4.1712,3.9496,3.7238,3.6182,3.5536,3.2833,3.2943,3.3754,3.0029,2.9782,3.0338,2.61,0.0,0.0,0.0,0.0,0.0,0.0,0.0,0.0,0.0,0.0,0.0,0.0,0.0,0.0,0.0,0.0,0.0,0.0,0.0,0.0,3.8363,4.0626,4.2812,4.5398,4.5286,4.5205,4.5946,4.6481,4.6835,4.6983,4.7155,4.7697,4.8794,4.9048,4.9485,5.0256,5.0143,4.9892,4.9535,4.9374,4.9126,4.8789,4.9642,4.9915,4.9603,0.0,0.0,4.9528,4.8817,4.8117,4.7412,4.6718,4.6312,4.6154,4.6154,4.6057,4.591,4.5907,4.5891,4.5891,4.5891,4.5721,4.5485,0.0,0.8897,0.8897,0.8897,0.8957,0.906,0.9261,0.9866,1.0823,1.2302,1.4107,1.5562,1.6411,1.6896,1.6761,1.5837,1.4984,1.5682,1.8471,1.9422,2.1026,2.3537,2.4967,2.6322,2.767,2.9048,3.0368,3.1657,3.2799,3.3505,3.3838,3.5515,3.6446,3.6738,3.7675,3.8982,4.0524,4.0938,4.1801,4.2937,4.3341,4.2772,4.1542,4.0102,3.9284,3.8629,3.6433,3.5887,3.5757,3.2914,3.2213,3.1991,2.8775,2.7134,2.6082,0.0,0.0,0.0,0.0,0.0,0.0,0.0,0.0,0.0,0.0,0.0,0.0,0.0,0.0,3.0813,3.2664,0.0,3.8294,4.1013,4.2554,4.396,4.5578,4.5489,4.5566,4.6401,4.6477,4.6452,4.6452,4.7218,4.7884,4.832,4.916,4.9754,5.0,4.9195,4.875,4.8759,4.8327,4.803,4.7843,4.9117,4.9306,4.8464,4.9765,4.9913,4.8971,4.8553,4.7978,4.7309,4.6464,4.5973,4.5735,4.556,4.5499,4.5488,4.5306,4.5402,4.5645,4.5645,4.5392,4.5047,0.0,0.0,0.8941,0.8941,0.8941,0.9038,0.9305,0.9518,1.0202,1.1816,1.2876,1.3946,1.515,1.4831,1.4254,1.3557,1.3166,1.4615,0.0,1.9583,2.1273,2.3994,2.5397,2.6251,2.6596,2.7912,2.9121,3.0154,3.1676,3.2795,3.3586,3.4983,3.6012,3.6719,3.7259,3.8752,4.0865,4.0865,4.1809,4.3249,4.3102,4.3139,4.3117,4.1674,4.1332,4.1347,3.9576,3.7832,3.6158,3.4923,3.3518,3.2073,3.0734,2.9371,2.7874,2.6034,2.4737,0.0,0.0,0.0,0.0,0.0,0.0,0.0,0.0,0.0,2.8422,3.0154,3.2527,3.4841,3.6707,3.9198,4.1486,4.3128,4.4068,4.4797,4.5317,4.5212,4.5422,4.6348,4.5864,4.5539,4.5674,4.6924,4.7752,4.7832,4.9145,4.981,4.955,4.8264,4.7725,4.818,4.7504,4.7137,4.716,4.8655,4.87,4.7339,4.8909,4.9238,4.8445,4.8275,4.7993,4.7578,4.6786,4.6225,4.5841,4.5573,4.5472,4.543,4.501,4.5052,4.535,4.526,4.4959,4.456,0.0,0.0,0.0,0.907,0.907,0.9162,0.9432,0.9657,0.9892,1.0242,1.1097,1.149,1.0964,1.1453,1.1803,1.1699,1.3011,1.5337,1.8834,1.9822,2.1743,2.5072,2.5331,2.5773,2.6579,2.6774,2.7659,2.9239,3.0214,3.1347,3.2678,3.4088,3.5445,3.6719,3.7259,3.8439,4.0029,4.0029,4.0965,4.2378,4.1654,4.1801,4.2175,3.9717,3.9628,4.0643,3.9236,3.7025,3.4736,3.4567,3.3518,3.2158,3.1336,3.0514,2.9205,2.6004,2.4514,2.363,2.2377,2.2132,2.2661,2.4489,2.4934,2.6052,0.0,0.0,3.2938,3.4837,3.6949,3.8472,3.861,4.1383,4.3828,4.4355,4.5736,4.6529,4.5848,4.571,4.5489,4.4925,4.4934,4.526,4.5965,4.622,4.6879,4.8228,4.8498,4.8713,4.8982,4.8803,4.8415,4.7782,4.7663,4.7423,4.702,4.7916,4.8263,4.8079,4.9063,4.9464,4.9327,4.8539,4.8164,4.8086,4.7279,4.6896,4.6836,4.6795,4.6801,4.6699,4.5962,4.5467,4.5183,4.4827,4.4432,4.4087,0.0,0.0,0.0,0.9184,0.9208,0.9288,0.9478,0.9607,0.9746,0.9916,1.0324,1.047,1.0167,1.0447,1.0866,1.1402,1.2118,0.0,1.8147,1.9184,2.1162,2.4547,2.5156,2.5584,2.595,2.641,2.7245,2.8459,2.977,3.0883,3.1832,3.3396,3.4526,3.5299,3.6496,3.784,3.9239,3.9706,4.0561,4.158,4.1242,4.1012,4.073,3.9171,3.7531,3.6004,3.5725,3.431,0.0,0.0,3.1799,3.1522,3.0784,3.0057,2.8998,2.6664,2.5472,2.4819,2.4513,2.5054,2.6058,2.7501,2.9295,3.1338,3.3723,3.5297,3.6628,3.7949,3.9739,4.1178,4.1458,4.3484,4.5136,0.0,4.6087,4.6395,4.557,4.5277,4.4681,4.3404,4.3468,4.4229,4.5788,4.6026,4.6638,4.7896,4.8102,4.8286,4.8549,4.8116,4.7701,4.7369,4.735,4.7254,4.7063,4.786,4.8259,4.8259,4.862,4.8796,4.8796,4.8407,4.8133,4.7869,4.7268,4.6996,4.6982,4.6746,4.6648,4.6607,4.6063,4.5756,4.5507,4.458,4.4016,4.3783,0.0,0.0,0.0,0.9257,0.9363,0.9437,0.9538,0.9607,0.9707,0.9855,0.9925,0.9987,1.0031,1.0052,1.0347,1.1049,1.1343,0.0,0.0,1.7883,1.9993,2.3353,2.4347,2.502,2.5491,2.6073,2.6791,2.7677,2.8823,2.9969,3.1105,3.2233,3.3199,3.404,3.5398,3.6628,3.7727,3.856,3.9368,4.0094,3.9874,3.9268,3.8406,3.7046,3.4448,3.1639,3.2543,3.135,0.0,0.0,2.9245,2.9339,2.9194,2.8789,2.8104,2.6784,2.5974,2.5652,2.6307,2.7625,2.9188,3.0662,3.3327,3.5879,3.6993,3.8471,3.9921,4.1088,4.2258,4.3187,4.3507,4.4874,4.5941,4.584,4.644,4.6569,4.5537,4.5186,4.4425,4.2818,4.2668,4.3442,4.5305,4.5533,4.6045,4.722,4.7645,4.7968,4.8268,4.7746,4.7424,4.7424,4.7424,4.7424,4.7424,4.8003,4.8296,4.8296,4.8296,4.8296,4.8315,4.8545,4.8375,4.7866,4.7764,4.7581,4.7352,4.7047,4.6922,4.6887,4.6405,4.6232,4.6085,4.4959,4.4366,4.4259,0.0,0.0,0.0,0.0,0.9517,0.9692,0.9696,0.9757,0.9794,0.9809,0.9868,0.99,0.9903,0.9955,1.0049,1.0132,1.0961,1.2266,1.4099,1.5761,1.8209,2.1628,2.2613,2.3844,2.5452,2.5527,2.5969,2.6833,2.681,2.8094,3.0516,3.0231,3.1309,3.3441,3.4014,3.4598,3.5162,3.6039,3.6879,3.7547,3.6769,3.591,3.4852,3.2092,2.9999,2.8806,3.0823,0.0,0.0,0.0,2.587,2.4948,2.6361,2.6784,0.0,2.5854,2.5486,2.5618,2.7076,0.0,3.0812,3.3651,3.5844,3.8037,4.0797,4.1924,4.2899,4.4747,4.481,4.442,4.4046,4.5294,4.6283,4.5945,4.7214,4.7701,4.6103,4.5874,4.5268,4.3653,4.3005,4.3247,0.0,4.4384,4.4763,4.622,4.7015,4.7677,4.8277,4.8278,4.826,4.826,4.826,4.826,4.826,4.8296,4.8296,4.8296,4.8296,4.8296,4.8333,4.9178,4.9096,4.8325,4.9162,4.9033,4.8271,4.8252,4.8242,4.815,4.7379,4.7058,4.6947,4.6131,4.5846,4.5828,0.0,0.0,0.0,0.0,0.0,0.9365,0.9538,0.9587,0.9609,0.9668,0.9601,0.0,0.0,0.0,0.0,0.0,1.0338,1.1327,1.3117,1.4278,1.5909,1.8219,1.9707,2.1016,2.2168,2.2706,2.369,2.5137,2.5644,2.6625,2.8001,2.8991,2.9756,3.0368,3.2245,3.2959,3.2902,3.4308,3.5276,3.5727,3.4387,3.3672,3.3065,2.9978,2.7379,2.5351,0.0,0.0,0.0,2.3446,2.3475,2.3857,2.434,2.4517,2.4651,2.533,2.6233,2.7508,2.9754,0.0,3.5055,3.7631,3.9608,4.1433,4.3463,4.3931,4.3898,4.3686,4.2457,4.1278,4.0885,4.1431,4.2237,4.3105,4.4966,4.6068,4.5395,4.5761,4.5252,4.2959,4.3168,0.0,0.0,0.0,0.0,4.6651,4.669,4.7101,4.824,4.8838,4.8903,4.8315,4.8857,4.8875,4.8315,4.8296,4.8296,4.8296,4.8296,4.8296,4.8315,4.86,4.8893,4.9178,4.9472,4.9435,4.916,4.916,4.882,4.826,4.8003,4.7911,4.7856,4.7581,4.7489,4.7425,0.0,0.0,0.0,0.0,0.0,0.0,0.0,0.0,0.0,0.0,0.0,0.0,0.0,0.0,0.0,0.0,0.0,1.0253,1.1746,0.0,1.3861,1.5609,1.7078,1.8387,1.9556,2.0073,2.0898,2.2051,2.2857,2.367,2.4509,2.5853,2.6648,2.7038,2.8942,2.9702,2.9682,3.1068,3.1684,3.1653,3.0926,2.9922,2.8652,2.6842,2.4705,0.0,0.0,0.0,0.0,2.1829,2.1994,2.2656,2.2919,2.3525,2.4407,2.5889,2.7763,3.0014,3.2951,3.5779,3.8443,4.0753,4.2393,4.3599,4.4295,4.3898,4.2981,4.1595,3.9812,3.8354,3.7821,3.8151,3.898,4.0476,4.2567,4.4151,4.4568,4.5236,4.5034,4.3362,4.3596,4.3539,0.0,0.0,0.0,4.6223,4.6535,4.7119,4.824,4.9123,4.9344,4.8783,4.9601,4.9619,4.8765,4.8765,4.8618,4.8296,4.8296,4.8296,4.8315,4.8618,4.9068,4.961,4.961,4.961,4.9574,4.9252,4.8802,4.8296,4.8296,4.8296,4.8296,4.8296,4.8296,4.8223,0.0,0.0,0.0,0.0,0.0,0.0,0.0,0.0,0.0,0.0,0.0,0.0,0.0,0.0,0.0,0.0,0.0,0.0,0.0,0.0,0.0,1.373,1.4709,1.595,1.7593,1.7673,1.7778,1.7924,1.8708,1.9512,2.0387,2.1087,2.2165,2.3536,2.4263,2.4914,2.5499,2.6418,2.6332,2.5677,2.6459,2.4896,2.2155,2.2728,0.0,0.0,0.0,0.0,0.0,2.1412,2.1426,2.1494,2.2248,2.3909,2.591,2.76,3.0086,3.3047,3.6566,3.8908,4.0858,4.2932,4.4045,4.4357,4.341,4.1936,4.0317,3.8696,3.7003,3.5607,0.0,0.0,3.6622,3.8237,4.0324,4.2283,4.3845,4.4481,4.4784,0.0,0.0,0.0,0.0,0.0,0.0,4.5249,0.0,4.7669,4.8332,4.9233,4.9702,4.9656,5.0398,5.0398,4.961,4.9555,4.9123,4.8296,4.8296,4.8315,4.8388,4.9215,4.9647,4.9721,4.9721,4.9702,4.9601,4.8765,4.837,4.8296,4.8296,4.8296,4.8296,4.8296,4.8296,4.8296,0.0,0.0,0.0,0.0,0.0,0.0,0.0,0.0,0.0,0.0,0.0,0.0,0.0,0.0,0.0,0.0,0.0,0.0,0.0,0.0,0.0,0.0,0.0,0.0,0.0,0.0,0.0,0.0,0.0,1.7766,1.8577,1.8751,1.9014,1.9354,2.0156,2.047,2.0543,2.2054,2.2802,2.294,0.0,2.2275,2.1774,0.0,0.0,0.0,0.0,0.0,0.0,0.0,2.2357,2.3755,2.4748,2.6446,2.8601,3.1337,3.3945,3.6588,3.9544,4.1453,4.2861,4.4016,4.3792,4.2966,4.1787,3.97,3.7457,3.5493,3.2713,3.0707,0.0,0.0,0.0,3.6828,4.0013,0.0,4.4638,4.5501,0.0,4.5627,0.0,4.6989,4.6535,4.6908,0.0,0.0,4.7636,4.7795,4.9187,5.061,5.1106,5.0508,5.0692,5.0398,4.961,4.8958,4.8526,4.8296,4.8296,4.8636,4.927,4.95,5.0243,5.1381,5.1381,5.1051,5.0472,5.0251,4.9434,4.8296,4.8296,4.8296,4.8296,4.8296,4.8296,4.8296,0.0,0.0,0.0,0.0,0.0,0.0,0.0,0.0,0.0,0.0,0.0,0.0,0.0,0.0,0.0,0.0,0.0,0.0,0.0,0.0,0.0,0.0,0.0,0.0,0.0,0.0,0.0,0.0,0.0,0.0,0.0,1.5405,1.5742,1.6061,1.6494,1.6829,1.7147,1.8474,0.0,0.0,0.0,0.0,0.0,0.0,0.0,0.0,0.0,0.0,0.0,0.0,0.0,2.5425,2.7306,2.9188,3.1434,3.5176,3.7741,3.9825,4.1955,4.3352,4.4093,4.3682,4.2824,4.146,3.9177,3.6921,3.4568,3.1875,2.9428,2.7749,2.7647,2.9231,0.0,0.0,0.0,0.0,4.3898,4.5436,4.6475,0.0,4.8086,0.0,4.8251,4.8618,4.9205,0.0,4.8912,4.8765,5.0059,5.1326,5.1785,5.1334,5.1334,5.0775,4.961,4.9105,4.8673,4.8296,4.8296,4.8765,4.961,4.961,5.0482,5.1969,5.1253,5.0886,5.0747,5.0013,4.914,4.8296,4.8296,4.8296,4.8296,4.8296,4.8296,4.8296,0.0,0.0,0.0,0.0,0.0,0.0,0.0,0.0,0.0,0.0,0.6896,0.0,0.0,0.0,0.0,0.0,0.0,0.0,0.0,0.0,0.0,0.0,0.0,0.0,0.0,0.0,0.0,0.0,0.0,0.0,0.0,0.0,0.0,0.0,0.0,0.0,0.0,0.0,0.0,0.0,0.0,0.0,0.0,0.0,0.0,0.0,0.0,0.0,0.0,0.0,2.5679,2.7039,3.0011,3.2186,3.4488,3.8814,4.1033,4.2386,4.3653,4.4479,4.4533,4.2754,4.1492,3.9792,3.6341,3.3939,3.153,2.8266,2.6792,2.5834,2.5052,2.6767,2.9025,3.1198,0.0,3.899,4.2845,4.5033,4.6742,4.8137,4.927,4.9876,4.9766,4.9867,5.0243,5.1059,5.0372,5.0225,5.093,5.172,5.2115,5.2005,5.1895,5.1124,4.961,4.95,4.9105,4.8471,4.8471,4.8985,4.9922,4.9922,5.0684,5.1914,5.0518,5.0188,5.0527,4.9077,4.8398,4.8296,4.8296,4.8296,4.8296,4.8296,4.8296,4.8296,0.0,0.0,0.0,0.0,0.0,0.0,0.0,0.0,0.0,0.0,0.7423,0.6822,0.0,0.0,0.0,0.0,0.0,0.0,0.0,0.0,0.0,0.0,0.0,0.0,0.0,0.0,0.0,0.0,0.0,0.0,0.0,0.0,0.0,0.0,0.0,0.0,0.0,0.0,0.0,0.0,0.0,0.0,0.0,0.0,0.0,0.0,0.0,0.0,0.0,0.0,2.7418,2.9812,3.3265,3.5805,3.8125,4.1137,4.2321,4.2861,4.3752,4.3907,4.3545,4.255,4.0455,3.7855,3.4897,3.1243,0.0,0.0,2.4378,2.3585,2.4297,2.6544,2.9429,3.2867,3.591,3.9502,4.4245,4.5801,4.6911,0.0,5.0233,5.1326,5.0655,5.1198,0.0,0.0,5.2032,5.1638,5.1785,5.2546,5.2692,5.2024,5.1353,5.0545,4.961,4.8893,4.8802,4.9362,4.9362,5.0151,5.1583,5.1583,5.1748,5.1987,5.1693,0.0,4.9784,4.949,4.8958,4.8296,4.8296,4.8296,4.8296,4.8296,4.8296,4.8296,0.0,0.0,0.0,0.0,0.0,0.0,0.0,0.8494,0.8357,0.8829,0.7918,0.7518,0.8293,0.8556,0.8843,0.0,0.0,0.0,0.0,0.0,0.0,0.0,0.0,0.0,0.0,0.0,0.0,0.0,0.0,0.0,0.0,0.0,0.0,0.0,0.0,0.0,0.0,0.0,0.0,0.0,0.0,0.0,0.0,0.0,0.0,0.0,0.0,0.0,0.0,0.0,2.6837,2.9765,3.4426,3.7326,3.9612,4.2642,4.3671,4.3868,4.4262,4.4249,4.3665,4.1738,3.906,3.5985,3.2515,0.0,0.0,0.0,2.3492,2.3454,2.4203,2.6492,0.0,3.1742,3.4271,3.7547,4.2386,4.4062,4.5859,4.8745,5.0803,5.2013,0.0,5.2399,5.2774,5.3177,5.2488,5.2057,5.2057,5.2421,5.2244,5.1397,5.1408,5.0618,4.893,4.937,4.9591,4.961,5.0023,5.0849,5.2005,5.2005,5.2005,5.1987,5.1565,5.0702,4.9555,4.9105,4.8673,4.8296,4.8296,4.8296,4.8296,4.8296,4.8296,4.8296,0.0,0.0,0.0,0.0,0.0,0.0,0.0,0.8393,0.8214,0.8824,0.8426,0.8281,0.8832,0.8872,0.8965,0.0,0.0,0.0,0.0,0.0,0.0,0.0,0.0,0.0,0.0,0.0,0.0,0.9607,0.0,0.0,0.0,0.0,0.0,0.0,0.0,0.0,0.0,0.0,0.0,0.0,0.0,0.0,0.0,0.0,0.0,0.0,0.0,0.0,0.0,0.0,2.5357,2.8123,3.3122,3.6675,3.959,4.256,4.38,4.4223,4.4406,4.4443,4.3795,4.1142,3.8047,3.4647,3.0738,2.7594,0.0,2.3181,2.3419,2.4082,2.4533,2.6461,2.8617,0.0,3.2427,3.5399,4.0397,4.2384,4.4867,0.0,5.0957,0.0,5.2884,5.3251,0.0,5.3215,5.2395,5.1957,5.2089,5.2085,5.1762,5.1075,5.1344,5.0629,4.8847,4.9976,5.0398,5.0115,5.0747,5.1481,5.2252,5.2252,5.2068,5.1712,5.1077,5.0233,4.927,4.8581,4.8296,4.8296,4.8296,4.8296,4.8296,4.8296,4.8296,4.8296,0.0,0.0,0.0,0.0,0.0,0.0,0.0,0.8935,0.8952,0.8913,0.8943,0.8957,0.8911,0.8425,0.8379,0.0,0.0,0.0,0.0,0.0,0.0,0.0,0.0,0.0,0.0,0.0,0.0,0.9338,0.9226,0.0,0.0,0.0,0.0,0.0,0.0,0.8779,0.0,0.0,0.0,0.0,0.0,0.0,0.0,0.0,0.0,0.0,0.0,0.0,0.0,0.0,0.0,2.5063,2.7964,3.2796,3.7742,3.9461,0.0,0.0,4.3414,4.3616,4.3185,4.1457,3.8072,3.4325,3.1148,0.0,2.4694,2.3422,2.4033,2.4894,2.5244,2.6394,2.8264,3.1215,0.0,3.4606,4.053,4.2796,4.4975,4.806,0.0,0.0,5.2097,5.3427,5.3986,5.3261,5.2015,5.1513,5.2078,5.2036,5.1972,5.1895,5.0537,5.0059,5.0582,5.0004,5.0408,5.1785,5.1858,5.2307,5.3086,5.3086,5.2297,5.0912,5.0839,4.9903,0.0,4.8333,4.8296,4.8296,4.8296,4.8296,4.8296,4.8296,4.8296,4.8296,0.0,0.0,0.0,0.0,0.0,0.0,0.9121,0.9179,0.9167,0.9046,0.8682,0.8561,0.8863,0.8296,0.8212,0.9034,0.0,0.0,0.0,0.0,0.0,0.0,0.0,0.0,0.0,0.0,0.8995,0.8874,0.8716,0.0,0.0,0.0,0.0,0.0,0.0,0.8537,0.8472,0.0,0.0,0.0,0.0,0.0,0.0,0.0,0.0,0.0,0.0,0.0,0.0,0.0,0.0,0.0,2.3873,2.7484,0.0,0.0,3.8428,4.0602,4.193,4.2883,4.3042,4.1102,3.7172,3.3126,3.0592,0.0,2.3473,2.2995,2.3963,2.5091,2.5714,2.6776,2.8355,3.0793,0.0,0.0,3.736,3.8776,4.102,4.5745,4.8359,0.0,0.0,0.0,5.4085,5.3315,5.2314,5.1845,5.2095,5.1232,5.0896,5.1277,5.0655,5.0243,5.0078,5.072,5.1363,5.2005,5.2491,5.2637,5.2472,5.2472,5.1591,5.0078,5.0078,4.9692,0.0,4.9087,4.9068,4.9022,4.9068,4.8765,4.8296,4.8296,4.8296,4.8379,0.0,0.0,0.0,0.0,0.0,0.9126,0.9218,0.9314,0.9317,0.9171,0.8707,0.8535,0.8908,0.846,0.8356,0.893,0.9025,0.0,0.0,0.0,0.0,0.0,0.0,0.0,0.0,0.0,0.8738,0.8841,0.8581,0.8539,0.0,0.0,0.8373,0.8319,0.0,0.0,0.0,0.0,0.0,0.0,0.0,0.0,0.0,0.0,0.0,0.0,0.0,0.0,0.0,0.0,0.0,0.0,0.0,0.0,0.0,0.0,3.5413,3.8388,4.0069,4.1519,4.2073,4.0098,3.628,3.2373,0.0,0.0,2.3265,2.3049,2.4277,2.559,2.6145,2.7293,2.8691,3.035,0.0,3.1093,3.5086,3.6394,3.8752,0.0,0.0,4.8311,0.0,5.2655,5.3633,5.3347,5.2567,5.2012,5.1764,5.0747,5.049,5.1139,5.0692,5.0408,5.0298,5.1436,5.2115,5.2362,5.292,5.2784,5.2005,5.2005,5.1124,4.961,4.961,4.961,0.0,4.961,4.9711,4.9866,4.9674,4.9215,4.8655,4.8398,4.8471,4.8728,0.0,0.0,0.0,0.0,0.0,0.0,0.9096,0.9333,0.9443,0.9321,0.9287,0.924,0.9106,0.8967,0.8838,0.872,0.8829,0.0,0.0,0.0,0.0,0.0,0.0,0.0,0.0,0.0,0.8731,0.9385,0.8856,0.8864,0.937,0.8715,0.8297,0.8092,0.0,0.0,0.0,0.0,0.0,0.0,0.0,0.0,0.0,0.0,0.0,0.0,0.0,0.0,0.0,0.0,0.0,0.0,0.0,2.0785,2.2517,0.0,3.2072,3.609,3.7785,3.9249,3.9953,3.8322,3.5584,3.2466,0.0,2.6586,2.4576,2.3839,2.5227,2.6583,2.6583,2.7904,2.9262,3.0075,3.0864,0.0,3.4679,3.7125,3.9572,0.0,0.0,4.6037,4.8304,5.0777,5.2546,5.3348,5.2652,0.0,5.096,5.0893,5.1225,5.1966,5.0445,5.0372,5.1969,5.1987,5.2399,5.3196,5.3196,5.2784,5.2005,5.2005,5.1124,4.961,4.961,4.961,0.0,4.961,5.0078,5.071,4.9913,4.9592,4.9482,4.8618,4.8838,4.9454,0.0,0.0,0.0,0.0,0.0,0.0,0.0,0.9388,0.9415,0.9186,0.9235,0.9174,0.8852,0.8789,0.8633,0.8313,0.8584,0.0,0.0,0.0,0.0,0.0,0.0,0.0,0.0,0.0,0.865,0.8162,0.8458,0.8356,0.7898,0.7871,0.7816,0.7753,0.7709,0.7665,0.0,0.0,0.0,0.0,0.0,0.0,0.0,0.0,0.0,0.0,0.0,0.0,0.0,0.0,0.0,0.0,0.0,0.0,0.0,2.3432,2.6819,3.0488,3.2627,3.4205,3.51,3.4441,3.213,2.9618,2.8044,2.5902,2.4143,2.3771,2.4921,2.611,2.6528,2.7469,2.8974,3.1451,3.1818,0.0,0.0,0.0,0.0,4.1622,4.5726,4.9281,0.0,0.0,5.2182,5.3939,5.287,5.1993,5.1671,5.1648,5.1514,5.1177,5.1216,5.1473,5.2005,5.2546,5.2939,5.3196,5.3196,5.2784,5.1987,5.1426,5.061,4.9574,4.8967,4.905,4.9647,5.0188,5.0563,5.0839,5.1124,5.0904,5.038,5.0105,5.0178,5.0453,0.0,0.0,0.0,0.0,0.0,0.0,0.0,0.9342,0.9367,0.9191,0.9199,0.9124,0.8872,0.8754,0.8573,0.825,0.8371,0.0,0.0,0.0,0.0,0.0,0.0,0.0,0.0,0.8525,0.8458,0.8095,0.8308,0.8213,0.7844,0.7806,0.7759,0.7709,0.7638,0.7545,0.0,0.0,0.0,0.0,0.0,0.0,0.7296,0.0,0.0,0.0,0.0,0.0,0.0,0.0,0.0,0.0,0.0,0.0,0.0,0.0,2.2863,2.5438,2.8497,3.0461,3.1488,3.0781,2.9406,2.7893,2.656,0.0,2.4151,2.4027,2.4912,2.5792,2.609,2.6924,2.8279,3.0442,3.1093,0.0,0.0,0.0,0.0,4.1877,0.0,0.0,0.0,5.1322,5.1896,5.3795,5.3065,5.236,5.2021,5.2289,5.2087,5.1279,5.1748,5.2152,5.2454,5.2957,5.3196,5.3196,5.3196,5.2609,5.1518,5.1041,5.0178,4.9087,4.8545,4.8783,0.0,5.0472,5.0986,5.1261,5.1463,5.1242,5.0729,5.0086,5.027,5.0839,0.0,0.0,0.0,0.0,0.0,0.0,0.0,0.9186,0.9288,0.9252,0.9149,0.9065,0.9036,0.8807,0.8576,0.839,0.82,0.0,0.0,0.0,0.0,0.0,0.0,0.0,0.8099,0.8011,0.8244,0.881,0.8353,0.8358,0.8762,0.8294,0.7999,0.787,0.7708,0.7465,0.0,0.0,0.0,0.0,0.6429,0.6614,0.0,0.0,0.0,0.0,0.0,0.0,0.0,0.0,0.0,0.0,0.0,0.0,0.0,0.0,0.0,0.0,0.0,2.7685,2.8774,2.7428,2.7359,2.704,2.4973,0.0,0.0,2.4507,2.5114,2.5615,2.5571,2.6438,2.7393,2.8115,2.9474,0.0,0.0,3.535,0.0,0.0,4.5356,0.0,4.8815,5.0304,5.1734,5.3087,5.32,5.2858,5.2042,5.2755,5.2829,5.2024,5.206,5.2435,5.3196,5.3196,5.3196,5.3196,5.3141,5.2333,5.0875,5.0765,4.9866,0.0,4.8333,4.8765,4.9564,5.0435,5.1242,5.1858,5.1151,5.0894,5.071,4.915,4.9554,5.0784,0.0,0.0,0.0,0.0,0.0,0.0,0.0,0.0,0.0,0.0,0.8855,0.8734,0.837,0.8274,0.8184,0.0,0.0,0.0,0.0,0.0,0.0,0.0,0.0,0.0,0.8099,0.8466,0.8411,0.7902,0.8241,0.8125,0.7606,0.7686,0.7696,0.7675,0.7888,0.7668,0.0,0.0,0.0,0.0,0.5899,0.5801,0.0,0.0,0.0,0.0,1.0114,1.1654,0.0,0.0,0.0,0.0,0.0,0.0,0.0,0.0,2.0859,2.1605,2.2614,0.0,2.4323,2.4999,2.5323,2.5327,0.0,0.0,0.0,0.0,0.0,2.546,2.6959,2.6957,2.7978,3.1775,0.0,3.3639,3.5607,0.0,0.0,4.5403,4.8201,4.9872,4.9531,5.0946,5.2238,5.3138,5.3202,5.2858,5.2042,5.2755,5.2829,5.2024,5.2601,5.3012,5.3196,5.3196,5.3196,5.3196,5.2582,5.2068,5.1675,5.0445,4.9674,4.9252,4.86,4.8406,4.8728,5.0196,5.0912,5.1114,5.1555,5.172,5.1675,5.1279,5.1381,5.1785,0.0,0.0,0.0,0.0,0.0,0.0,0.0,0.0,0.0,0.0,0.0,0.8651,0.8406,0.8215,0.0,0.0,0.0,0.0,0.0,0.0,0.0,0.0,0.0,0.8184,0.8006,0.8591,0.8673,0.8192,0.8703,0.8628,0.7975,0.8004,0.7914,0.775,0.7997,0.7656,0.6883,0.0,0.0,0.0,0.5753,0.0,0.0,0.0,0.0,0.0,1.0035,1.1773,0.0,1.5027,1.5993,1.6962,0.0,0.0,0.0,0.0,2.1016,2.1782,2.2188,2.2684,2.3171,2.3531,2.422,2.4684,2.4277,0.0,0.0,0.0,0.0,2.5219,2.6574,2.685,2.796,0.0,3.2639,0.0,0.0,0.0,4.4318,4.5812,4.8348,5.0067,0.0,5.1379,5.2422,5.3135,5.3196,5.3012,5.2564,5.2957,5.2829,5.2024,5.2774,5.3012,5.2656,5.2656,5.2472,5.2095,5.1665,5.1271,5.0867,4.9996,4.938,4.8976,4.8508,4.8296,4.8398,4.9701,5.0261,5.0288,5.072,5.1124,5.1353,5.0582,5.0784,5.1499,0.0,0.0,0.0,0.0,0.0,0.0,0.0,0.0,0.0,0.0,0.0,0.0,0.0,0.0,0.0,0.0,0.0,0.0,0.0,0.0,0.0,0.0,0.0,0.8087,0.8056,0.8643,0.901,0.9097,0.9367,0.9316,0.895,0.8604,0.8254,0.7938,0.8056,0.758,0.6698,0.6698,0.0,0.0,0.5768,0.0,0.0,0.0,0.0,0.0,0.0,0.0,0.0,1.5024,1.6005,1.7116,1.8119,0.0,0.0,0.0,0.0,0.0,2.2783,2.3427,2.3727,2.3125,2.3935,2.4713,2.4124,0.0,0.0,0.0,0.0,0.0,0.0,2.7047,0.0,0.0,0.0,0.0,3.8986,4.1869,4.4131,4.5567,4.7685,0.0,5.0423,5.1355,5.2204,5.2962,5.2902,5.2939,5.3196,5.3086,5.2711,5.2024,5.2656,5.2564,5.1638,5.1877,5.1591,5.0802,5.0674,5.0261,4.961,4.9454,4.8995,4.8296,4.8296,0.0,4.8379,4.9233,4.961,4.961,4.961,5.0023,5.0435,4.9022,4.9407,5.0655,0.0,0.0,0.0,0.0,0.0,0.0,0.0,0.0,0.0,0.0,0.0,0.0,0.0,0.0,0.0,0.0,0.0,0.0,0.0,0.0,0.0,0.7899,0.803,0.8302,0.8744,0.9069,0.9491,1.0003,0.9667,0.9415,0.9227,0.8495,0.8131,0.8062,0.8089,0.758,0.6698,0.6698,0.6124,0.5244,0.5645,0.0,0.0,0.0,0.0,0.0,0.0,0.0,0.0,1.4542,1.5765,1.7208,1.7561,0.0,0.0,0.0,0.0,0.0,2.2856,2.3591,2.4214,2.4544,2.493,2.5146,2.4881,0.0,0.0,0.0,0.0,0.0,0.0,2.9477,3.0961,0.0,0.0,4.014,0.0,0.0,4.6809,4.6843,0.0,5.001,4.8811,5.0102,5.1334,5.2123,5.1555,5.1764,5.3122,5.2546,5.2134,5.2005,5.2115,5.1473,4.9978,5.1326,5.1591,5.0802,5.0115,4.9721,4.9574,4.8848,4.8434,4.8296,0.0,4.8296,4.8379,4.9233,4.961,4.961,4.961,4.9684,4.9747,4.95,4.9564,4.9968,0.0,0.0,0.0,0.0,0.0,0.0,0.0,0.0,0.0,0.0,0.0,0.0,0.0,0.0,0.0,0.0,0.0,0.0,0.0,0.0,0.7899,0.7899,0.8441,0.8858,0.9111,0.9915,1.0531,1.0966,1.0702,1.0356,0.9926,0.8682,0.8094,0.8108,0.8405,0.7927,0.6928,0.7225,0.6712,0.5715,0.0,0.0,0.0,0.0,0.0,0.0,0.0,0.0,0.0,0.0,1.611,1.7316,1.7985,0.0,0.0,0.0,0.0,0.0,2.281,2.3582,2.4312,2.4996,2.526,2.5315,2.5192,0.0,0.0,0.0,0.0,0.0,0.0,0.0,3.3135,3.7577,0.0,4.2238,4.4023,4.5628,4.665,0.0,0.0,4.9334,4.9031,5.0086,5.0949,5.1316,5.1004,5.1316,5.2491,5.2207,5.1803,5.1371,5.1767,5.0996,4.8921,5.0096,5.028,4.9434,4.9077,4.8903,4.8875,4.8489,4.8296,4.8296,0.0,4.8296,4.8333,4.8728,4.8903,4.8903,4.8903,4.9197,4.961,4.961,4.961,4.9766,0.0,0.0,0.0,0.0,0.0,0.0,0.0,0.0,0.0,0.0,0.0,0.0,0.0,0.0,0.0,0.0,0.0,0.0,0.0,0.0,0.8229,0.8424,0.9278,0.9687,0.9579,1.0817,1.1564,1.1761,1.1605,1.1014,1.0039,0.8874,0.8284,0.8216,0.8716,0.8301,0.7222,0.7559,0.7173,0.6313,0.0,0.0,0.0,0.0,0.0,0.0,0.0,0.0,0.0,0.0,0.0,0.0,0.0,0.0,0.0,2.0442,2.0926,2.1605,2.2466,2.326,2.4042,2.4842,2.5207,2.5477,2.583,0.0,0.0,0.0,0.0,0.0,0.0,3.2227,0.0,4.0057,4.2029,4.3284,4.4244,4.5414,4.6331,4.6717,4.7515,4.8361,4.9215,4.9499,4.9884,5.0472,5.016,5.0453,5.1657,5.1528,5.1132,5.0545,5.1124,5.0417,4.8315,4.8783,4.8765,4.8296,4.8296,4.8296,4.8296,4.8296,4.8296,4.8296,4.8095,4.8131,4.8296,4.8095,4.8131,4.8296,4.8296,4.871,4.9307,4.9307,4.9307,4.9417,0.0,0.0,0.0,0.0,0.0,0.0,0.0,0.0,0.0,0.0,0.0,0.0,0.0,0.0,0.0,0.0,0.0,0.0,0.0,0.0,0.9191,0.9992,1.0694,1.0859,1.0425,1.1598,1.2235,1.2251,1.1804,1.0618,0.8743,0.8944,0.8827,0.8496,0.8897,0.8488,0.7454,0.7242,0.6972,0.6652,0.6527,0.0,0.0,0.0,0.0,0.0,0.0,0.0,0.0,0.0,0.0,0.0,0.0,0.0,2.0479,2.0419,2.0486,2.0752,2.1576,2.2412,2.3262,2.4088,2.4806,0.0,2.7354,2.7758,0.0,3.0441,0.0,0.0,0.0,3.5116,3.7768,3.9688,4.1939,4.3995,4.5544,0.0,4.7305,4.8065,4.758,4.7507,4.8324,4.7095,4.7214,4.9509,4.8251,4.8406,5.0765,5.0123,4.9674,4.9692,4.9739,4.9307,4.8315,4.7617,4.7617,4.8296,4.8296,4.8296,4.8296,4.8296,4.8296,4.826,4.7498,4.7617,4.8241,4.748,4.7636,4.8296,4.8296,4.8333,4.8388,4.8388,4.8388,4.8526,0.0,0.0,0.0,0.0,0.0,0.0,0.0,0.0,0.0,0.0,0.0,0.0,0.0,0.0,0.0,0.0,0.0,0.0,0.0,0.8784,0.9217,0.9918,1.0547,1.0968,1.1118,1.1842,1.2629,1.3425,1.2198,1.1039,0.9958,0.95,0.9236,0.9138,0.9669,0.9107,0.7767,0.8001,0.765,0.6947,0.689,0.7655,0.0,0.0,0.0,0.0,0.0,0.0,0.0,0.0,1.6909,1.7825,1.8792,1.9746,2.0505,2.0462,2.0425,2.0682,2.2113,2.3085,2.3871,2.4679,0.0,0.0,0.0,2.9296,3.0291,3.1714,3.3634,0.0,0.0,0.0,3.9669,4.1799,4.3314,4.4635,4.5736,4.6279,4.6483,4.6323,4.6456,4.6483,4.6323,4.6065,4.6287,4.7232,4.7177,4.7718,4.9169,4.9454,4.9564,4.961,4.961,4.894,4.7571,4.7241,4.7012,4.6819,4.6819,4.6819,4.6819,4.7324,4.7287,4.6856,4.7544,4.7452,4.6819,4.7021,4.7278,4.759,4.8095,4.8296,4.8296,4.8296,4.8296,4.8406,0.0,0.0,0.0,0.0,0.0,0.0,0.0,0.0,0.0,0.0,0.0,0.0,0.0,0.0,0.0,0.0,0.0,0.0,0.8634,0.9099,0.9719,1.0485,1.1076,1.1695,1.2308,1.2197,1.2575,1.3494,1.1996,1.1164,1.0973,1.0122,0.9828,1.005,1.0311,0.9792,0.8724,0.8825,0.8478,0.7875,0.7794,0.8488,0.0,0.0,0.0,0.0,0.0,0.0,0.0,0.0,1.686,1.7585,1.8789,1.9603,2.0163,2.0369,2.0572,2.1007,2.223,2.3304,2.43,0.0,0.0,0.0,3.0302,3.1226,3.21,3.4164,3.5804,0.0,0.0,0.0,0.0,0.0,4.3461,4.4545,4.5168,4.5378,4.5312,4.4864,4.5209,4.5374,4.5118,4.5139,4.536,4.5865,4.6168,4.67,4.7498,4.8114,4.8426,4.8426,4.8426,4.7875,4.6737,4.647,4.6076,4.5516,4.5259,4.5406,4.592,4.6461,4.6425,4.5957,4.6792,4.6691,4.592,4.6223,4.6489,4.681,4.7617,4.7911,4.7948,4.8205,4.8296,4.8388,0.0,0.0,0.0,0.0,0.0,0.0,0.0,0.0,0.7914,0.7899,0.7724,0.0,0.0,0.0,0.0,0.0,0.0,0.0,0.9091,0.9912,1.0907,1.2056,1.2604,1.3254,1.4072,1.2719,1.2067,1.2195,1.1079,1.083,1.1406,1.0729,1.0702,1.1195,1.0718,1.051,1.0446,0.9583,0.9362,0.9587,0.9308,0.9687,1.0446,0.0,0.0,0.0,0.0,0.0,0.0,0.0,1.659,1.6985,1.8605,1.9193,1.945,2.0119,2.098,2.1691,2.1645,2.2833,2.4298,0.0,0.0,0.0,3.3783,3.3605,3.3686,3.8193,0.0,3.7768,3.8579,0.0,0.0,3.9798,4.1946,4.3578,4.3856,4.3886,4.3965,4.415,4.4003,4.4203,4.5009,4.4117,4.4167,4.5755,4.514,4.5048,4.5847,4.5902,4.5902,4.5902,4.5902,4.5902,4.5883,4.5104,4.47,4.4681,4.3883,4.4332,4.5883,4.5883,4.5883,4.5828,4.5048,4.514,4.581,4.503,4.5159,4.5975,4.6773,4.7094,4.7204,4.7984,4.8296,4.8296,0.0,0.0,0.0,0.0,0.0,0.0,0.0,0.0,0.8432,0.7959,0.7724,0.0,0.0,0.0,0.0,0.0,0.0,0.0,0.9331,0.9996,1.0793,1.171,1.1487,1.1929,1.3162,1.3041,1.2756,1.2262,1.2265,1.2465,1.2852,1.1894,1.162,1.1895,1.1754,1.1257,1.0485,1.0216,1.0019,0.9873,0.9801,1.0272,1.109,0.0,0.0,0.0,0.0,0.0,0.0,0.0,0.0,0.0,1.8839,2.0007,2.1046,2.128,2.1883,2.2617,2.3255,2.4068,0.0,2.6498,0.0,0.0,0.0,3.4353,0.0,0.0,3.9805,3.9614,4.0983,0.0,0.0,4.1552,4.2662,4.3395,4.3095,4.3138,4.302,4.2579,4.2917,4.326,4.3395,4.347,4.369,4.4185,4.4525,4.4792,4.503,4.559,4.5902,4.5902,4.5902,4.5626,4.5048,4.4828,4.4415,4.3846,4.3616,4.3745,4.4222,4.48,4.4745,4.4259,4.5149,4.5039,4.424,4.4571,4.4847,4.514,4.5929,4.6608,4.7131,4.7369,4.7819,4.8296,0.0,0.0,0.0,0.0,0.0,0.0,0.0,0.0,0.9148,0.875,0.8404,0.8313,0.0,0.0,0.0,0.0,0.0,0.0,0.9305,0.9979,1.0714,1.1455,1.141,1.1688,1.235,1.3232,1.3187,1.2178,1.2754,1.3205,1.3527,1.2497,1.2199,1.2505,1.2307,1.1882,1.1323,1.1217,1.0981,1.0687,1.0828,1.1105,1.1535,0.0,0.0,0.0,0.0,0.0,0.0,0.0,0.0,0.0,1.879,2.0105,2.1284,2.1614,2.2435,2.3351,2.3938,2.496,0.0,2.7911,2.9873,3.2304,3.5849,0.0,0.0,0.0,0.0,4.0763,4.2066,4.2047,0.0,4.2249,4.2992,4.3303,4.2779,4.2774,4.2575,4.1885,4.2398,4.2783,4.2709,4.3187,4.3506,4.3506,4.3956,4.4213,4.4213,4.4672,4.4956,4.4956,4.4956,4.4709,4.4232,4.4213,4.3975,4.3506,4.3506,4.3506,4.3524,4.3993,4.3956,4.3543,4.4534,4.4406,4.3543,4.4011,4.4213,4.4305,4.5112,4.5911,4.6663,4.6984,4.7617,4.8296,0.0,0.0,1.236,1.148,0.0,0.0,0.0,0.0,0.9965,0.9909,0.9428,0.9115,0.0,0.0,0.0,0.8481,0.934,0.9698,0.9208,0.9943,1.0675,1.1275,1.1993,1.2127,1.1591,1.3164,1.3346,1.2067,1.2806,1.3345,1.3646,1.2755,1.26,1.3016,1.2514,1.2421,1.2604,1.2357,1.2066,1.1806,1.2107,1.2046,1.1865,1.2632,0.0,0.0,0.0,0.0,0.0,0.0,0.0,0.0,1.8535,1.9788,2.0869,2.1506,2.2764,2.3976,2.4028,0.0,0.0,2.9251,3.2089,0.0,3.8231,4.0616,4.2396,4.3139,0.0,4.1544,4.2268,4.1801,4.1562,4.2286,4.3029,4.3303,4.2779,4.2711,4.249,4.1948,4.2362,4.2731,4.2769,4.3214,4.347,4.3427,4.3462,4.347,4.3427,4.347,4.3506,4.3506,4.3506,4.3506,4.3506,4.3506,4.3506,4.3506,4.3506,4.3506,4.3506,4.3506,4.3506,4.3506,4.3506,4.3506,4.3506,4.3506,4.3506,4.3561,4.4305,4.5076,4.5883,4.6599,4.7397,4.8076,0.0,0.0,1.2776,1.2364,0.0,0.0,0.0,0.0,0.0,0.0,0.0,0.0,0.0,0.0,0.0,0.9529,0.9767,0.9855,0.9736,1.0152,1.0675,1.1275,1.1915,1.1786,1.0784,1.2273,1.2926,1.2633,1.338,1.385,1.4058,1.3705,1.3477,1.3372,1.316,1.298,1.2812,1.2609,1.2464,1.2409,1.2474,1.2464,1.2467,1.3007,1.3405,0.0,0.0,0.0,0.0,0.0,0.0,0.0,1.8052,2.014,2.2461,2.2457,2.3417,2.4544,2.5025,2.6042,0.0,0.0,3.3687,3.7703,4.0048,4.0993,4.1415,4.158,4.2359,4.3047,4.3212,4.3102,4.3047,4.3212,4.3396,4.3303,4.2779,4.2711,4.2645,4.2519,4.2616,4.2864,4.3295,4.3427,4.3339,4.2902,4.3259,4.3322,4.2892,4.3268,4.3506,4.3506,4.3506,4.3506,4.3506,4.3506,4.3506,4.3506,4.3506,4.3506,4.3506,4.3506,4.3506,4.3506,4.3506,4.3506,4.3506,4.3506,4.3506,4.3524,4.369,4.425,4.4975,4.5159,4.5727,4.6416,0.0,0.0,0.0,0.0,0.0,0.0,0.0,0.0,0.0,0.0,0.0,0.0,0.0,0.9983,0.0,0.0,0.9905,0.9905,0.9905,1.0065,1.0367,1.0796,1.1346,1.1167,1.019,1.1739,1.2505,1.2379,1.3463,1.4255,1.4767,1.4731,1.4607,1.4417,1.454,1.4139,1.3414,1.3984,1.3755,1.3103,1.3907,1.4,1.3731,1.4413,1.4908,1.5293,1.5739,0.0,0.0,0.0,0.0,0.0,0.0,0.0,2.2414,2.2554,2.3197,2.3967,2.4611,0.0,0.0,3.2133,0.0,3.8874,4.0359,4.0918,4.1095,4.1095,4.1764,4.2598,4.3359,4.3194,4.3047,4.3433,4.3506,4.3401,4.3133,4.2759,4.2514,4.2514,4.2168,4.2193,4.2856,4.258,4.2551,4.306,4.2992,4.2972,4.3087,4.3357,4.3506,4.3506,4.3139,4.2937,4.2937,4.2543,4.2543,4.2937,4.2937,4.3139,4.3506,4.3506,4.3506,4.3506,4.3506,4.3506,4.3506,4.3506,4.3506,4.3506,4.3506,4.3993,4.47,4.47,4.5214,4.5902,0.0,0.0,0.0,0.0,0.0,0.0,0.0,0.0,0.0,0.0,0.0,0.0,0.0,1.0629,1.0291,0.0,0.0,0.0,0.9905,0.9951,1.0071,1.0255,1.0688,1.0616,0.9919,1.1425,1.2165,1.2022,1.3439,1.4703,1.5772,1.5716,1.5701,1.5764,1.6053,1.554,1.4533,1.5654,1.5341,1.4194,1.5579,1.5742,1.5221,1.6052,0.0,0.0,0.0,1.7466,1.776,1.8651,0.0,0.0,0.0,0.0,2.1802,2.2482,2.2794,2.3071,2.3847,0.0,2.9071,3.405,3.6693,0.0,3.9518,4.0079,4.0465,4.0886,4.1027,4.1507,4.2837,4.2543,4.2304,4.2992,4.3084,4.3139,4.3267,4.2598,4.2139,4.2286,4.158,4.136,4.2029,4.1617,4.1749,4.2853,4.2537,4.2472,4.2917,4.3041,4.3084,4.3084,4.2433,4.2084,4.2084,4.1434,4.1401,4.1956,4.2103,4.2493,4.3102,4.3378,4.3506,4.3506,4.3506,4.3506,4.3506,4.3506,4.3506,4.3506,4.3506,4.3901,4.448,4.448,4.4911,4.5489,0.0,0.0,0.0,0.0,0.0,0.0,0.0,0.0,0.0,0.0,1.1507,1.1293,1.1259,1.0742,1.0378,1.0334,1.0072,0.9905,0.9905,0.0,0.0,1.0134,1.0472,1.0555,1.0324,1.1389,1.2136,1.2516,1.3689,1.5311,0.0,0.0,0.0,1.7134,0.0,1.6855,1.668,1.6688,1.6551,1.6389,1.6607,1.6625,1.6567,0.0,0.0,0.0,0.0,0.0,1.7807,1.795,1.8529,0.0,0.0,0.0,2.1831,2.3012,2.2983,2.2816,0.0,0.0,2.8553,0.0,3.3183,3.4564,0.0,0.0,3.7957,0.0,4.0771,4.1177,4.1379,4.1342,4.1305,4.1397,4.1415,4.1654,4.2359,4.1764,4.1525,4.2213,4.158,4.114,4.125,4.1782,4.1714,4.0709,4.1663,4.1815,4.07,4.1142,4.1415,4.1415,4.1323,4.1268,4.1268,4.115,4.0921,4.0583,4.127,4.154,4.147,4.2855,4.3506,4.3506,4.3506,4.3506,4.3506,4.3506,4.3506,4.3506,4.3506,4.3561,4.3653,4.3653,4.3726,4.3818,0.0,0.0,0.0,0.0,0.0,0.0,0.0,0.0,0.0,0.0,0.0,1.2071,1.1881,1.1146,1.0593,1.0428,1.0097,0.9905,0.9905,1.004,1.0,0.9721,1.0104,1.0201,0.996,1.1227,1.2175,1.2705,1.3774,1.5445,0.0,1.7201,1.7439,0.0,0.0,0.0,0.0,1.8133,1.7963,1.7211,1.8129,1.8217,0.0,0.0,0.0,0.0,0.0,0.0,0.0,2.0714,2.0996,2.1283,2.1082,0.0,0.0,0.0,2.279,0.0,2.4574,2.5747,2.7199,0.0,3.1479,3.2865,3.4562,0.0,3.6727,3.8065,3.8859,3.967,4.0871,4.0736,4.0579,4.103,4.1095,4.1232,4.158,4.092,4.0561,4.091,4.0249,3.9929,4.0369,4.0341,4.0398,4.0682,4.086,4.0874,4.071,4.0969,4.1095,4.1095,4.0663,4.0432,4.0432,3.9984,3.9859,4.008,4.0582,4.0915,4.1113,4.1819,4.2396,4.2845,4.3304,4.3506,4.3506,4.3506,4.3506,4.3506,4.3506,4.3506,4.3506,4.3506,4.3506,4.3506,0.0,0.0,0.0,0.0,0.0,0.0,0.0,0.0,0.0,0.0,0.0,1.2894,1.2466,0.0,0.0,0.0,1.0347,1.01,1.01,0.9981,0.9824,0.9665,1.0076,1.0244,1.0146,1.1452,1.2468,1.3104,1.4181,1.5712,1.7683,1.8123,1.8768,0.0,2.0544,0.0,0.0,0.0,0.0,0.0,0.0,0.0,0.0,0.0,0.0,0.0,0.0,0.0,0.0,0.0,0.0,2.2859,2.212,2.2343,0.0,0.0,0.0,0.0,0.0,0.0,2.5656,2.7645,2.9239,3.0602,0.0,0.0,3.5083,0.0,3.6961,3.8297,3.9891,3.9863,3.979,4.0388,4.0498,4.0498,4.0498,3.979,3.9376,3.9578,3.8872,3.8707,3.9523,3.9239,3.9415,4.0424,4.012,4.0065,4.0479,4.0498,4.0498,4.0498,3.9918,3.9596,3.9596,3.8855,3.8881,3.9606,3.9872,4.018,4.049,4.0912,4.1323,4.1754,4.2753,4.3194,4.3212,4.3414,4.3506,4.3506,4.3506,4.3506,4.3506,4.3506,4.3506,4.3506,0.0,0.0,0.0,0.0,0.0,0.0,0.0,0.0,0.0,0.0,0.0,1.3504,1.2846,1.2211,1.1785,1.1643,1.1034,1.0663,1.0663,1.0188,1.0034,1.0332,1.0687,0.0,1.1585,1.2411,1.3203,1.394,1.5205,1.6434,1.7647,1.9304,2.05,2.1245,2.0624,2.0303,2.0259,0.0,0.0,0.0,0.0,0.0,0.0,0.0,0.0,0.0,0.0,0.0,0.0,0.0,0.0,0.0,0.0,0.0,0.0,0.0,0.0,0.0,0.0,2.3392,0.0,2.4639,2.5344,0.0,0.0,0.0,3.2133,3.3566,3.5816,3.7562,3.7669,3.8274,3.8773,3.8817,3.8828,3.8828,3.8828,3.8127,3.7915,3.867,3.8054,3.787,3.8689,3.9405,3.9551,3.8891,3.9496,3.9588,3.8865,3.8828,3.8828,3.8828,3.8773,3.8755,3.8755,3.821,3.8218,3.8773,3.9037,3.9035,3.8883,4.0406,4.07,4.011,4.168,4.2359,4.2415,4.3194,4.3506,4.3506,4.3506,4.3506,4.3506,4.3506,4.3506,4.3506,0.0,0.0,0.0,0.0,0.0,0.0,0.0,0.0,0.0,0.0,0.0,0.0,0.0,1.3302,1.268,1.2368,1.1694,1.1274,1.1274,1.1105,1.0865,1.0601,1.112,1.1414,1.1443,1.2398,1.3503,1.4768,1.5496,1.6704,1.8378,1.9016,1.9709,2.0452,2.0834,2.1344,2.1891,2.1342,0.0,0.0,0.0,0.0,0.0,0.0,0.0,0.0,0.0,0.0,0.0,0.0,0.0,0.0,0.0,0.0,0.0,0.0,0.0,0.0,0.0,0.0,0.0,2.4162,2.4633,2.5227,2.6522,2.8576,3.0618,3.1991,3.3962,3.571,3.6571,3.7393,3.7925,3.7925,3.7503,3.7165,3.7165,3.6916,3.6842,3.7129,3.7356,3.7621,3.7907,3.8652,3.9019,3.8718,3.8495,3.8219,3.7944,3.7441,3.7165,3.7165,3.7165,3.7165,3.7165,3.6634,3.6634,3.7158,3.6906,3.6922,3.7202,3.8293,3.8623,3.8439,4.0055,4.1056,4.158,4.2396,4.2433,4.2066,4.3102,4.3176,4.279,4.3304,4.3506,4.3506,0.0,0.0,0.0,0.0,0.0,1.6184,1.5856,1.5799,1.5799,0.0,0.0,0.0,0.0,0.0,1.3407,1.2847,1.2342,1.2076,1.2076,1.1896,1.1673,1.1428,1.205,1.2361,1.2282,1.3394,1.4555,1.574,1.6458,1.748,1.8775,1.9014,1.9527,2.0226,2.0907,2.1621,0.0,0.0,0.0,2.2127,0.0,0.0,2.2538,0.0,0.0,0.0,0.0,0.0,0.0,0.0,0.0,0.0,0.0,0.0,0.0,0.0,0.0,0.0,2.4313,0.0,0.0,0.0,0.0,2.4113,2.4971,0.0,2.8621,3.0156,3.2205,3.4073,3.5244,3.6119,3.6769,3.7052,3.6659,3.6193,3.5892,3.5855,3.5855,3.5855,3.634,3.6787,3.7063,3.7815,3.8303,3.8303,3.7797,3.7492,3.7492,3.6732,3.631,3.631,3.631,3.631,3.631,3.5956,3.5956,3.6303,3.593,3.5964,3.6328,3.7118,3.7492,3.7566,3.8917,3.9955,4.0755,4.1562,4.158,4.1232,4.2561,4.2763,4.2396,4.3194,4.3506,4.3506,0.0,0.0,1.7678,1.7004,1.6588,1.6243,1.5937,1.5887,1.5887,0.0,0.0,0.0,0.0,0.0,0.0,1.3172,1.308,1.3067,1.3046,1.2557,1.2438,1.2823,1.3468,1.3946,1.4218,1.5463,1.6343,1.6857,1.8159,1.8785,1.8797,0.0,2.0192,2.083,2.0832,2.1109,2.1546,0.0,2.2118,2.3011,0.0,2.3502,2.4191,0.0,0.0,0.0,2.5567,2.5556,0.0,2.5588,0.0,0.0,0.0,0.0,0.0,0.0,0.0,0.0,0.0,0.0,0.0,0.0,0.0,0.0,2.402,0.0,2.6103,2.7941,3.0546,3.2729,3.3537,3.4344,3.5169,3.5995,3.6193,3.5936,3.5078,3.4961,3.4961,3.4961,3.4979,3.5334,3.6174,3.6989,3.7456,3.7456,3.7437,3.7437,3.7437,3.6659,3.6218,3.62,3.6211,3.6211,3.62,3.6211,3.6237,3.6237,3.6237,3.6237,3.6255,3.7088,3.7456,3.7474,3.8303,3.9111,3.989,4.0718,4.104,4.1122,4.1929,4.2268,4.2359,4.3176,4.3469,4.3506,0.0,1.8165,1.8078,1.8657,1.8036,1.7611,1.8054,1.8103,1.8103,0.0,0.0,0.0,0.0,0.0,0.0,1.5307,1.4977,1.4598,1.4118,1.3948,1.3851,1.3812,1.4227,1.4584,1.4857,1.5666,1.6723,1.8035,1.8548,1.9457,0.0,0.0,0.0,0.0,2.1674,2.209,2.2803,2.2914,0.0,2.3481,2.4079,2.4178,0.0,0.0,0.0,0.0,0.0,2.5525,2.5493,0.0,2.5477,2.5365,0.0,0.0,0.0,0.0,0.0,0.0,2.4628,0.0,0.0,0.0,0.0,0.0,2.3442,2.4337,2.5415,2.6513,2.8464,3.0149,3.0681,3.1652,3.2396,3.2397,3.3565,3.4412,3.4167,3.413,3.413,3.413,3.4656,3.5089,3.5334,3.6138,3.6622,0.0,3.6046,3.569,3.569,3.4926,3.4229,3.3635,3.4192,3.4211,3.3635,3.4192,3.4486,3.4486,3.4486,3.4486,3.4541,3.598,3.6285,3.5782,3.721,3.797,3.8264,3.9669,3.9882,3.9507,4.0883,4.1434,4.1525,4.2341,4.301,4.3506,1.9435,1.9167,1.9086,1.9435,1.8985,1.8662,1.8962,1.9006,1.9006,0.0,0.0,0.0,0.0,0.0,0.0,0.0,1.6846,1.6535,1.6152,1.6123,1.6204,1.6397,1.6735,1.7092,1.7472,1.7818,1.8508,1.9576,1.9819,0.0,0.0,0.0,0.0,0.0,2.2425,2.2823,0.0,0.0,0.0,0.0,2.46,0.0,0.0,2.4845,2.507,0.0,0.0,0.0,2.582,2.5492,2.5396,0.0,0.0,0.0,0.0,0.0,0.0,0.0,0.0,0.0,0.0,0.0,0.0,0.0,2.3582,2.4026,2.4675,2.5605,2.698,2.8131,2.8552,2.9482,3.0198,3.0189,3.1268,3.2379,3.3181,3.3311,3.3421,3.3752,3.3617,3.3763,3.4435,3.4963,3.5404,3.5727,3.5298,3.4704,3.4025,3.3562,3.2919,3.2118,3.254,3.2724,3.2601,3.3066,3.3476,3.3807,3.3807,3.3807,3.3862,3.5539,3.5819,3.5107,3.7129,3.7815,3.7603,3.888,3.9129,3.8865,4.0479,4.1095,4.1242,4.2378,4.3184,4.3685,0.0,2.0374,2.0423,1.9909,1.9734,1.9623,1.9395,1.9369,1.9369,0.0,0.0,0.0,0.0,0.0,0.0,0.0,1.8676,1.8658,1.8579,1.8579,1.8898,1.9607,1.9934,2.0355,2.0933,2.0842,0.0,0.0,0.0,0.0,0.0,0.0,0.0,0.0,2.3206,2.345,2.3466,0.0,0.0,2.4734,2.4734,2.4749,0.0,0.0,2.4782,2.4803,2.4807,2.5407,2.6109,2.5397,2.5339,0.0,0.0,0.0,0.0,0.0,2.5135,0.0,0.0,0.0,0.0,0.0,2.4108,0.0,2.4178,2.403,2.414,2.5037,2.5855,2.6514,2.685,2.7602,2.83,2.8678,2.91,3.0096,3.2131,3.2435,3.2773,3.3568,3.2327,3.1996,3.3513,3.3587,3.3825,3.4546,3.4601,3.3977,3.2534,3.2479,3.21,3.1299,3.136,3.1696,3.2326,3.2417,3.2864,3.3678,3.3678,3.3715,3.3844,3.544,3.5672,3.5004,3.7397,3.8036,3.7437,3.823,3.8608,3.8828,4.0278,4.0901,4.1158,4.2671,4.3482,4.379,2.1103,2.1012,2.1201,2.1672,2.1258,2.1043,2.1579,2.1656,2.1656,2.1656,0.0,0.0,0.0,0.0,0.0,0.0,0.0,2.0252,1.9715,1.9687,1.9942,2.0514,2.0601,2.1015,2.1833,2.1928,2.213,0.0,0.0,0.0,0.0,0.0,0.0,0.0,2.4496,2.4429,0.0,0.0,0.0,2.4321,2.4321,0.0,2.4569,2.4569,2.4658,2.4804,2.4802,2.4935,2.5086,2.4929,2.5326,2.5788,0.0,0.0,0.0,2.5306,0.0,0.0,0.0,0.0,0.0,0.0,2.5122,0.0,2.4474,2.4656,2.4868,2.4169,2.467,2.5097,2.4649,2.5446,2.61,2.5929,2.6711,2.8268,3.0869,3.1463,3.1935,3.2736,3.199,3.1776,3.2736,3.2247,3.1923,3.2082,3.2106,3.1978,3.1647,3.1629,3.128,3.0467,3.106,3.117,3.0662,3.1311,3.2045,3.2821,3.2821,3.3176,3.3825,3.4809,3.4809,3.4137,3.5973,3.667,3.6604,3.7393,3.8127,3.8718,3.9048,3.957,4.0249,4.1213,4.2024,4.2746,2.1785,2.1549,2.1597,2.2184,2.1982,2.187,2.2236,2.2412,2.25,2.25,0.0,0.0,0.0,0.0,0.0,0.0,0.0,0.0,0.0,0.0,2.2132,2.2584,2.2601,2.2933,2.3636,2.3328,2.326,0.0,0.0,0.0,0.0,0.0,0.0,0.0,0.0,0.0,0.0,0.0,2.4194,2.4194,2.4194,0.0,2.4903,2.4491,2.466,2.5058,2.4634,2.4574,2.4722,2.5224,2.5669,0.0,2.5529,2.623,2.6968,0.0,2.5545,2.5516,0.0,0.0,0.0,2.4805,2.5094,0.0,0.0,2.4805,2.4702,2.4339,2.4271,2.4228,2.3946,2.4071,2.4331,2.4733,2.5143,2.6146,2.8259,2.902,2.9722,3.0699,2.9923,2.9856,3.1274,3.0861,3.0744,3.1347,3.139,3.1225,3.0815,3.0803,3.043,2.9635,2.9983,3.021,3.021,3.1005,3.1806,3.2601,3.3011,3.3421,3.3825,3.4637,3.4564,3.3917,3.5998,3.6677,3.6384,3.7595,3.834,3.8744,3.9148,3.9533,4.0055,4.125,4.2059,4.2688,2.224,2.1996,2.1868,2.2294,2.2374,2.2402,2.247,2.2686,0.0,0.0,0.0,0.0,0.0,0.0,0.0,0.0,0.0,0.0,0.0,0.0,2.4236,2.4531,2.4559,2.4779,2.5246,2.4613,2.4346,2.4449,0.0,0.0,0.0,0.0,0.0,0.0,0.0,0.0,0.0,0.0,0.0,2.4415,0.0,2.4672,2.5324,2.4677,2.4824,2.5306,2.4653,2.464,2.5038,2.5845,2.622,2.6326,2.6162,2.6768,0.0,0.0,0.0,0.0,0.0,0.0,0.0,0.0,0.0,2.4947,0.0,0.0,0.0,2.4462,2.397,0.0,0.0,0.0,0.0,2.3926,0.0,0.0,0.0,2.6041,0.0,2.8403,2.7586,2.7657,2.9594,2.9342,2.959,3.0846,3.0736,3.0418,2.9983,2.9965,2.9671,2.9018,2.8999,2.9317,2.9965,3.076,3.1574,3.2387,3.3176,3.3642,3.3825,3.4472,3.4399,3.3917,3.6071,3.6751,3.642,3.7863,3.856,3.8755,3.9423,3.9669,3.9863,4.1479,4.2239,4.2631,2.2289,2.2261,2.2308,2.2595,2.2643,2.2746,2.3057,2.3268,0.0,0.0,0.0,0.0,0.0,0.0,0.0,0.0,0.0,0.0,2.6973,0.0,0.0,2.51,2.5104,2.5214,2.5465,2.5388,2.5348,2.5354,0.0,0.0,0.0,0.0,0.0,0.0,2.4663,0.0,0.0,0.0,2.4617,0.0,2.4488,2.4672,0.0,2.5306,2.5324,2.5398,2.5306,2.5738,2.6379,0.0,2.7014,2.7474,0.0,2.7569,2.8502,2.6985,0.0,0.0,0.0,0.0,0.0,0.0,2.6403,2.6856,2.48,0.0,2.4549,2.3572,0.0,0.0,0.0,0.0,0.0,0.0,0.0,0.0,2.3043,2.3167,2.4161,2.6746,2.6292,2.6427,2.8095,2.7571,2.7725,2.9166,2.8342,2.8167,2.9085,2.9133,2.9097,2.8999,2.8999,2.9042,2.9133,2.9928,3.0742,3.1556,3.235,3.3103,3.3807,3.3899,3.3899,3.3862,3.4839,3.5672,3.6365,3.7272,3.8054,3.8707,3.8799,3.8828,3.903,4.0645,4.1264,4.1545,2.2296,2.2426,2.2602,2.2829,2.3069,2.3316,2.3578,0.0,0.0,0.0,0.0,0.0,0.0,0.0,0.0,0.0,0.0,2.6745,0.0,0.0,0.0,2.5301,2.5321,2.5371,2.5497,2.5495,2.5484,2.5447,2.5402,0.0,0.0,0.0,0.0,0.0,2.4765,0.0,2.5498,0.0,2.5081,0.0,0.0,2.6489,0.0,2.5765,2.5686,2.6104,2.6104,2.6319,2.6607,0.0,2.7126,0.0,0.0,0.0,0.0,2.764,0.0,0.0,0.0,0.0,0.0,0.0,0.0,0.0,2.5136,0.0,2.4431,2.4179,0.0,0.0,0.0,0.0,0.0,0.0,2.2715,0.0,0.0,0.0,2.3038,2.454,0.0,0.0,2.6219,2.6186,2.6553,2.7641,2.7275,2.7483,2.8585,2.8651,2.8761,2.8999,2.8999,2.9225,2.969,3.0485,3.1078,3.1409,3.2687,3.3231,3.3121,3.3587,3.3807,3.3844,3.4656,3.5206,3.5617,3.645,3.7008,3.7349,3.7815,3.8285,3.8828,3.9974,4.0396,4.068,2.261,0.0,2.2896,2.3249,2.356,2.3965,2.4474,0.0,0.0,0.0,0.0,0.0,2.782,2.8783,0.0,0.0,2.9497,2.8656,0.0,0.0,2.6165,2.5469,2.5662,2.5699,2.5485,2.5461,2.5442,2.5368,2.5312,0.0,0.0,0.0,0.0,0.0,0.0,2.5319,2.5742,0.0,2.6054,2.6146,2.7095,2.7609,2.7664,2.6494,2.6416,2.6924,2.6924,2.7066,2.7268,2.7268,2.7653,2.8136,2.8136,2.8534,2.8895,0.0,0.0,0.0,2.7359,0.0,0.0,0.0,0.0,0.0,2.5172,2.4727,2.4418,2.4481,2.4163,0.0,0.0,0.0,0.0,0.0,0.0,2.2814,0.0,2.3042,0.0,0.0,0.0,0.0,0.0,2.4915,2.5493,2.6721,2.6504,2.69,2.8179,2.8355,2.854,2.8827,2.894,2.928,2.9873,3.0668,3.1078,3.1097,3.2706,3.3176,3.2619,3.3433,3.3807,3.3825,3.4417,3.4795,3.5052,3.5672,3.6083,3.6384,3.7199,3.7852,3.8505,3.9523,3.9908,4.0157,2.3354,2.3202,0.0,0.0,2.4186,2.4728,2.6027,0.0,0.0,0.0,0.0,0.0,0.0,0.0,0.0,0.0,0.0,3.1342,3.1719,0.0,2.8079,0.0,0.0,2.6326,2.5418,2.5408,2.5373,2.5293,2.5111,0.0,0.0,0.0,0.0,0.0,0.0,2.6539,2.6607,2.7383,2.7719,2.7664,2.6924,2.7108,2.7792,0.0,2.7737,2.7756,2.7756,2.8259,2.8932,2.8932,2.8944,2.8968,2.8968,2.8987,2.8981,2.8963,0.0,0.0,2.8712,2.835,2.7572,2.6791,2.6589,2.6148,2.4593,2.4574,2.4665,2.3896,2.4086,0.0,0.0,0.0,0.0,0.0,0.0,0.0,0.0,0.0,0.0,0.0,0.0,0.0,0.0,2.3699,2.4399,0.0,2.5774,2.5953,2.7816,2.823,2.8414,2.8426,2.8809,2.9005,2.9042,2.9837,3.0246,3.0265,3.1873,3.2619,3.2619,3.3433,3.3807,3.3807,3.3825,3.4277,3.4997,3.5034,3.5536,3.6384,3.7199,3.7529,3.7731,3.9321,3.9908,4.0128,2.4012,0.0,0.0,0.0,2.4686,2.523,2.6213,2.7098,2.8173,2.9605,3.0906,3.232,3.3952,3.5107,3.5811,3.5931,3.5084,3.4128,3.3155,3.1005,0.0,2.8516,2.7566,2.6921,2.6599,2.6072,2.6043,2.6564,0.0,0.0,0.0,0.0,0.0,0.0,0.0,2.6906,0.0,0.0,0.0,0.0,0.0,2.8998,3.0014,2.8417,2.8136,2.8589,2.8589,2.8767,2.8999,2.8999,2.8999,2.8999,2.8999,2.8999,2.8999,2.8999,2.8803,2.8656,2.8932,2.8803,2.8405,2.7603,2.7087,2.6523,2.5435,2.5851,2.61,2.4712,2.5324,2.5705,0.0,0.0,0.0,0.0,0.0,0.0,0.0,0.0,2.3075,0.0,0.0,0.0,0.0,0.0,0.0,0.0,2.4638,0.0,2.6707,2.7607,2.817,2.8401,2.8785,2.9262,2.9782,3.0063,3.0467,3.1005,3.2094,3.2601,3.2619,3.3433,3.3807,3.3807,3.3807,3.3954,3.4204,3.4204,3.4376,3.478,3.6163,3.6714,3.6898,3.8505,3.9111,3.9278,2.4563,2.4992,2.5197,2.4875,2.5497,2.6427,2.7501,2.9037,3.0559,3.1892,3.3417,3.5074,3.6975,3.7895,3.8326,3.819,3.7868,3.6733,3.459,3.3496,3.2139,3.0365,2.9699,2.8952,0.0,2.755,2.7257,0.0,0.0,2.6294,0.0,0.0,0.0,0.0,0.0,2.758,2.7829,2.8417,2.8484,0.0,0.0,2.961,0.0,2.8815,2.8901,2.9782,2.9207,2.8999,2.8999,2.8999,2.8999,2.8999,2.8999,2.8999,2.8999,2.8999,2.8999,2.8999,2.8999,2.8999,2.8803,2.7994,2.7511,2.6946,2.5935,2.6463,2.6793,2.5488,2.5987,2.6288,0.0,0.0,0.0,0.0,0.0,0.0,0.0,2.3409,0.0,2.291,2.2623,0.0,0.0,0.0,0.0,0.0,0.0,0.0,0.0,2.7543,2.8177,2.8401,2.8785,2.9244,2.9763,2.9763,3.002,3.0558,3.1653,3.2167,3.2204,3.3293,3.3807,3.3807,3.3807,3.3807,3.3807,3.3807,3.3807,3.3972,3.5649,3.631,3.6494,3.812,3.8891,3.9223,2.5091,2.5891,2.6287,2.5542,2.6659,2.8182,2.9783,3.1657,3.3233,3.4222,3.5601,3.6806,3.7694,3.8476,3.9338,4.0281,4.0407,3.9195,3.6282,3.7453,3.612,0.0,3.2596,3.2235,2.9805,0.0,0.0,0.0,0.0,0.0,0.0,0.0,0.0,0.0,2.8326,0.0,2.7958,2.9494,2.9708,2.8999,2.8999,2.9054,2.9115,2.9078,3.002,3.1188,2.958,2.8999,2.8999,2.8999,2.8999,2.8999,2.8999,2.8999,2.8999,2.8999,2.8999,2.8999,2.8999,2.8999,2.8822,2.8049,2.784,2.7469,2.6126,2.646,2.6863,2.6204,2.6137,2.6112,0.0,0.0,0.0,0.0,0.0,0.0,0.0,0.0,2.3177,2.3195,2.2923,0.0,0.0,0.0,0.0,0.0,0.0,0.0,0.0,2.7984,2.8394,2.8461,2.8895,2.9097,2.906,2.9097,2.9115,2.9133,3.0705,3.1482,3.158,3.3091,3.3807,3.3807,3.3807,3.3807,3.3807,3.3807,3.3807,3.3972,3.5649,3.634,3.6604,3.8138,3.9203,3.9908,2.6288,2.7314,2.8234,2.8434,2.8321,2.869,3.0155,3.169,3.363,3.6302,3.8015,3.9743,4.1744,4.2148,4.2061,4.1522,4.1908,4.1642,4.041,3.941,3.8034,3.6161,3.5112,3.3708,3.1881,3.0655,2.9848,2.9429,0.0,0.0,2.8458,0.0,0.0,0.0,0.0,2.8895,2.8712,2.9133,2.9189,2.8999,2.8999,2.9726,3.073,3.0118,3.0522,3.1188,2.958,2.8999,2.8999,2.8999,2.8999,2.8999,2.8999,2.8999,2.8999,2.8999,2.8999,2.8999,2.8999,2.8999,2.895,2.873,2.8352,2.7939,2.7571,2.8417,2.8863,2.7407,2.815,2.8458,2.6493,0.0,0.0,0.0,0.0,0.0,0.0,0.0,0.0,2.3165,2.3123,2.3069,0.0,0.0,0.0,0.0,0.0,0.0,2.6827,2.7669,2.8465,2.9275,3.027,3.0503,2.9892,3.0485,3.0785,3.0803,3.18,3.2607,3.3208,3.3605,3.3807,3.3807,3.3807,3.3807,3.3807,3.3807,3.3807,3.3972,3.5649,3.7019,3.8131,3.856,3.9203,3.9908,2.7576,2.9038,3.0519,3.145,3.182,3.2136,3.2573,3.3542,3.5257,3.8164,3.9643,4.1075,4.279,4.3286,4.3249,4.2652,4.2906,4.2653,4.1623,4.1217,4.0348,3.8838,3.7724,3.6222,3.4266,3.2607,0.0,3.021,0.0,0.0,2.8981,0.0,0.0,0.0,0.0,2.9525,2.9525,2.9525,2.9922,3.0509,2.9812,3.0283,0.0,3.0503,3.0485,3.0705,2.9445,2.8999,2.8999,2.8999,2.8999,2.8999,2.8999,2.8999,2.8999,2.8999,2.8999,2.8999,2.8999,2.8999,2.8999,2.8999,2.9008,2.8855,2.8244,2.8951,2.9393,2.8146,2.84,2.8465,2.7301,2.6324,0.0,0.0,0.0,0.0,0.0,0.0,0.0,2.3159,2.3195,2.3323,2.3604,2.3493,2.3748,0.0,0.0,0.0,0.0,2.8244,2.9081,2.9324,3.1015,3.1201,2.969,3.0815,3.1225,3.0895,3.1696,3.2497,3.3286,3.3642,3.3807,3.3807,3.3807,3.3807,3.3807,3.3807,3.4002,3.4497,3.6163,3.7595,3.8699,3.8699,3.9203,3.9853,2.9248,3.1007,3.2783,3.3949,3.56,3.6623,3.6206,3.6687,3.7811,3.9828,4.096,4.1776,4.2293,4.3041,4.3506,4.3506,4.3506,4.2919,4.1507,4.2708,4.2515,4.0312,4.011,3.8935,3.6512,3.4706,3.2669,0.0,0.0,0.0,0.0,0.0,0.0,0.0,0.0,0.0,0.0,3.0265,3.1103,3.2161,3.0883,3.0785,3.1323,3.0613,3.0283,3.0112,2.9409,2.9097,2.8999,2.8999,2.8999,2.8999,2.8999,2.8999,2.8999,2.8999,2.8999,2.8999,2.8999,2.8999,2.8999,2.8999,2.9598,2.9883,2.8651,2.8971,2.9346,2.8808,2.8096,2.7671,2.8077,2.6893,0.0,0.0,0.0,0.0,0.0,0.0,0.0,0.0,2.3366,0.0,2.4176,2.3952,2.4078,2.4824,2.5442,2.6224,2.723,2.8895,2.9618,2.917,3.128,3.1488,2.9495,3.0742,3.1152,3.0687,3.128,3.1971,3.2791,3.3476,3.3807,3.3807,3.3807,3.3862,3.3972,3.3972,3.4497,3.5463,3.6824,3.7907,3.8699,3.8699,3.9297,4.0013,3.2158,3.3296,3.4109,3.3898,3.5977,3.8219,3.9843,4.0758,4.1209,4.1144,4.2849,4.3706,4.2738,4.3141,4.3506,4.3506,4.3506,4.3378,4.3102,4.3341,4.301,4.1937,4.1232,3.9772,3.7345,3.5007,3.2944,0.0,0.0,0.0,0.0,0.0,0.0,0.0,0.0,0.0,2.9299,3.0632,3.0968,3.0644,3.1042,3.1262,3.1378,3.1244,3.0785,3.0173,3.0038,2.9555,2.8999,2.8999,2.8999,2.8999,2.8999,2.8999,2.8999,2.8999,2.8999,2.8999,2.8999,2.8999,2.8999,2.8999,2.9598,3.0148,2.9883,3.0235,3.0532,3.0263,2.9841,2.9277,2.8491,2.7441,2.6471,0.0,0.0,0.0,2.4642,2.3861,0.0,0.0,2.4248,2.4378,2.4447,2.4238,2.4433,2.5238,2.4579,2.5174,2.757,2.7778,2.8482,2.9941,3.1035,3.1733,3.1977,3.1586,3.1996,3.3164,3.2644,3.2809,3.3587,3.3733,3.3807,3.3807,3.3807,3.4185,3.4784,3.4784,3.569,3.7026,3.6659,3.7404,3.8699,3.8699,3.9808,4.1281,3.4323,3.5002,3.5805,3.6791,3.8744,4.0677,4.2124,4.4103,4.4702,4.275,4.3047,4.32,4.255,4.3092,4.3506,4.3506,4.3506,4.3506,4.3506,4.3506,4.3322,4.2937,4.2543,4.123,3.8788,3.5917,3.3837,3.2632,0.0,0.0,0.0,0.0,0.0,0.0,0.0,3.1335,0.0,3.2057,3.2277,3.2656,3.2204,3.2265,3.2602,3.2173,3.1782,3.1396,3.0962,3.0577,3.0118,2.928,2.928,2.961,2.961,2.961,2.9708,3.0118,2.9947,2.961,2.961,2.9928,3.013,2.9726,3.0534,3.1341,3.0925,3.1426,3.1716,3.0783,3.0556,3.0061,2.8519,2.7758,2.7093,2.6239,2.5643,2.5289,2.5359,2.4894,2.471,0.0,0.0,0.0,2.4944,2.4505,2.4578,2.5495,2.543,2.6077,2.7719,2.8443,2.9034,2.9555,3.1568,3.2228,3.136,3.221,3.2816,3.3176,3.3213,3.3433,3.3825,3.4688,3.4853,3.4417,3.4417,3.4901,3.5708,3.6112,3.6769,3.7492,3.7533,3.8028,3.8699,3.8699,3.978,4.1215,3.631,3.6705,3.7287,3.8417,4.0615,4.2519,4.337,4.6232,4.7315,4.4534,4.3424,4.2749,4.2354,4.3034,4.3506,4.3506,4.3506,4.3506,4.3506,4.3506,4.3506,4.3506,4.3506,4.2368,3.9945,3.6865,3.4791,3.3807,3.1549,3.0785,0.0,0.0,0.0,0.0,0.0,3.3206,3.4179,3.325,3.3482,3.4399,3.3305,3.3231,3.3715,3.2919,3.2601,3.2491,3.1684,3.139,3.1207,2.9947,2.9928,3.043,3.024,3.032,3.0577,3.1207,3.095,3.0467,3.0467,3.0913,3.1244,3.0613,3.1543,3.2387,3.1574,3.2264,3.267,3.1155,3.1062,3.0673,2.8736,2.8399,2.8051,2.6986,2.6547,2.6327,2.6206,2.6003,2.5966,0.0,0.0,0.0,2.5733,2.5093,2.51,2.6197,2.6465,2.6933,2.7767,2.9163,2.9726,2.9262,3.188,3.2467,3.0736,3.243,3.3238,3.3115,3.3415,3.3715,3.41,3.5422,3.5745,3.5279,3.5279,3.5764,3.6604,3.7235,3.7603,3.7797,3.8267,3.856,3.8718,3.8891,3.99,4.1133,3.8442,3.8746,3.8044,3.4916,3.8624,4.2354,4.3356,4.6232,4.7838,4.6562,4.548,4.4218,4.256,4.3051,4.3506,4.3506,4.3506,4.3506,4.3506,4.3506,4.3506,4.3506,4.3506,4.2368,3.9945,3.7467,3.5404,3.3807,3.2106,3.1335,3.139,0.0,0.0,0.0,3.224,3.2277,3.1813,3.3128,3.3341,3.2876,3.3451,3.3733,3.3715,3.2919,3.2601,3.2491,3.1684,3.139,3.1378,3.1225,3.1225,3.1152,3.043,3.0705,3.1299,3.1378,3.136,3.128,3.128,3.1335,3.1378,3.1317,3.1953,3.2387,3.1574,3.2419,3.3042,3.191,3.1899,3.1516,2.9635,2.9859,3.0067,2.9234,2.8012,2.7417,2.8039,2.7301,2.6783,2.706,0.0,0.0,2.699,2.6467,2.667,2.8035,2.6525,2.6208,2.7719,2.8626,2.9409,3.0075,3.1097,3.1861,3.2369,3.188,3.2687,3.4759,3.3371,3.3482,3.4887,3.5059,3.55,3.6174,3.6174,3.6641,3.7382,3.7474,3.7925,3.8524,3.787,3.8054,3.8799,3.9523,4.0726,4.2088,3.8701,3.9184,3.9593,3.8653,3.9497,4.168,4.5754,4.748,4.7462,4.5094,4.5241,4.4949,4.3242,4.3321,4.3506,4.3506,4.3506,4.3506,4.3506,4.3506,4.3506,4.3506,4.3506,4.2827,4.1368,3.8982,3.7191,3.6016,3.4376,3.3562,3.3562,0.0,3.3311,3.2852,3.3183,3.3146,3.2871,3.3532,3.3605,3.3341,3.3678,3.3807,3.3752,3.344,3.3323,3.3275,3.2963,3.2841,3.2761,3.2284,3.2118,3.2057,3.1745,3.1855,3.2228,3.2694,3.2504,3.2118,3.2118,3.2467,3.2724,3.2247,3.2724,3.3238,3.2908,3.3541,3.3913,3.2965,3.2462,3.2019,3.143,3.0793,3.0304,3.0152,2.9104,2.842,2.8731,2.8522,2.8401,2.8507,2.7854,2.7535,2.7947,2.718,2.6885,2.7467,2.7301,2.7599,2.8459,2.9286,2.9873,3.0185,3.1451,3.2277,3.2601,3.2761,3.3562,3.4997,3.4883,3.5158,3.58,3.6791,3.7147,3.7052,3.7533,3.765,3.7547,3.8017,3.8414,3.8726,3.888,3.9137,3.9515,4.0314,4.143,4.259,3.9979,4.0528,4.1736,4.3286,4.2632,4.332,4.7641,4.8296,4.715,4.3928,4.4497,4.4754,4.3616,4.3506,4.3506,4.3506,4.3506,4.3506,4.3506,4.3506,4.3506,4.3506,4.3506,4.3121,4.2323,4.0406,3.9019,3.8208,3.656,3.5745,3.5727,3.5488,3.5085,3.4548,3.4548,3.4548,3.4548,3.4548,3.4394,3.4149,3.4149,3.4002,3.3807,3.3807,3.3807,3.3807,3.3807,3.3807,3.3715,3.314,3.3121,3.3225,3.2748,3.2754,3.3066,3.3623,3.3396,3.2956,3.2956,3.336,3.366,3.3084,3.3378,3.3733,3.3495,3.4016,3.4327,3.3551,3.3284,3.3025,3.2564,3.1628,3.0844,3.0626,2.9776,2.9089,2.9017,2.9167,2.9278,2.9278,2.8533,2.8206,2.8723,2.7843,2.7457,2.7955,2.8657,2.9132,2.9346,3.0118,3.0668,3.0901,3.224,3.2846,3.2601,3.3635,3.4435,3.5016,3.5881,3.642,3.6696,3.8065,3.8395,3.787,3.845,3.8377,3.7907,3.8469,3.8828,3.9111,3.9688,4.0037,4.0359,4.1158,4.2018,4.2886,4.2987,4.3442,4.447,4.7663,4.8204,4.8213,4.8296,4.8296,4.715,4.3928,4.3524,4.3524,4.3506,4.3506,4.3506,4.3506,4.3506,4.3506,4.3506,4.3506,4.3506,4.3506,4.3506,4.3121,4.2323,4.1489,4.0681,3.9871,3.8264,3.7474,3.7456,3.6659,3.6273,3.6266,3.6266,3.6266,3.6266,3.6266,3.5764,3.4979,3.4979,3.4509,3.3807,3.3807,3.3807,3.3807,3.3807,3.3807,3.3807,3.3788,3.4307,3.4685,3.3096,3.314,3.3788,3.3807,3.3788,3.3788,3.3788,3.3788,3.3807,3.3788,3.3788,3.3587,3.2803,3.3451,3.405,3.3519,3.4489,3.4794,3.2612,3.2414,3.2134,3.0818,2.9918,2.9304,2.9045,2.9005,2.9011,2.9011,2.8282,2.8225,2.9294,2.8603,2.877,3.0426,3.0575,3.0452,3.0203,3.095,3.1751,3.2546,3.3366,3.3396,3.2601,3.4197,3.4997,3.5016,3.5881,3.6714,3.7511,3.8322,3.8681,3.8689,3.8699,3.8681,3.8689,3.8699,3.9166,3.989,3.9908,4.0396,4.1168,4.1984,4.2498,4.296,4.1036,4.4191,4.7095,4.8113,4.8296,4.7572,4.5351,4.503,4.4663,4.3635,4.3506,4.3506,4.3506,4.3506,4.3506,4.3506,4.3506,4.3506,4.3506,4.3506,4.3506,4.3506,4.3506,4.3378,4.3121,4.2323,4.1525,4.0718,4.0204,3.9662,3.9119,3.8303,3.7643,3.7088,3.6549,3.631,3.631,3.631,3.6138,3.5899,3.5899,3.5378,3.4674,3.5275,3.5147,3.4619,3.4619,3.4993,3.5404,3.4828,3.5176,3.5807,3.5275,3.5293,3.5495,3.5495,3.5085,3.4619,3.4619,3.4222,3.3807,3.3807,3.3807,3.3733,3.3476,3.4283,3.5084,3.5103,3.5461,3.5609,3.5091,3.3832,3.2604,3.1812,3.0719,2.9727,2.909,2.9162,2.9322,2.9465,2.961,2.998,3.0628,3.0653,3.0613,3.0607,3.111,3.1299,3.1036,3.1788,3.2332,3.2583,3.3903,3.4509,3.4234,3.5341,3.6156,3.6714,3.7167,3.7809,3.8593,3.867,3.8699,3.8718,3.9276,3.9523,3.9523,3.9523,3.9787,4.0229,4.0833,4.1215,4.1649,4.3265,4.3758,4.374,4.0316,4.3774,4.691,4.691,4.691,4.5855,4.2701,4.2959,4.3506,4.3506,4.3506,4.3506,4.3506,4.3506,4.3506,4.3506,4.3506,4.3506,4.3506,4.3506,4.3506,4.3506,4.3506,4.3506,4.3506,4.301,4.2506,4.2002,4.169,4.114,4.0341,3.9837,3.9323,3.8825,3.8322,3.8094,3.8083,3.7771,3.7485,3.7165,3.6879,3.6248,3.5562,3.6083,3.5965,3.5488,3.5488,3.5837,3.6218,3.5672,3.6046,3.6751,3.6751,3.6971,3.7019,3.6094,3.5426,3.4997,3.4997,3.4399,3.3862,3.4185,3.4259,3.4332,3.4669,3.5368,3.5994,3.6178,3.6283,3.6313,3.6169,3.4747,3.3358,3.2618,3.1538,3.0597,2.9983,3.0055,3.02,3.0312,3.0753,3.1122,3.1313,3.1883,3.1996,3.1395,3.2377,3.2798,3.2333,3.2779,3.3195,3.3482,3.4784,3.554,3.5647,3.6382,3.7122,3.785,3.8481,3.8857,3.8959,3.9403,3.9433,3.9192,4.0134,4.0462,4.0346,4.03,4.066,4.1285,4.1651,4.2166,4.288,4.413,4.4447,4.4304,4.0959,4.2672,4.4615,4.4615,4.4748,4.3847,4.0866,4.2218,4.3588,4.3588,4.3529,4.3506,4.3506,4.3506,4.3506,4.3506,4.3506,4.3506,4.3506,4.3506,4.3506,4.3506,4.3506,4.3506,4.3506,4.3506,4.3506,4.3506,4.2745,4.2002,4.126,4.1205,4.1168,4.1168,4.1113,4.1095,4.104,4.0304,3.9551,3.8791,3.8054,3.7228,3.6475,3.653,3.6475,3.6384,3.6384,3.642,3.645,3.6395,3.6953,3.7676,3.7676,3.8182,3.8314,3.5958,3.5224,3.5162,3.5162,3.4589,3.4156,3.4894,3.5092,3.534,3.6144,3.6559,3.6788,3.6762,3.6962,3.6932,3.619,3.5313,3.4349,3.3319,3.245,3.1807,3.1477,3.1446,3.1458,3.1428,3.1744,3.1862,3.1624,3.2524,3.3055,3.2865,3.4197,3.4692,3.4009,3.4082,3.4406,3.4979,3.5892,3.6498,3.6751,3.7305,3.7895,3.8503,3.9718,3.9791,3.8894,4.0412,4.0697,4.0071,4.1148,4.1475,4.1238,4.1059,4.1738,4.2831,4.2385,4.3183,4.4556,4.4638,4.4651,4.4676,4.367,4.411,4.4615,4.4615,4.6178,4.6547,4.3938,4.3986,4.434,4.434,4.3852,4.3506,4.3506,4.3506,4.3506,4.3506,4.3506,4.3506,4.3506,4.3506,4.3506,4.3506,4.3506,4.3506,4.3506,4.3506,4.3506,4.3506,4.3304,4.3121,4.291,4.2304,4.2021,4.1984,4.1379,4.1095,4.1085,4.0901,4.0718,4.0516,4.0314,3.9405,3.8193,3.8807,3.8293,3.7217,3.7217,3.7613,3.8046,3.7412,3.8153,3.9321,3.9321,3.9467,3.9376,3.8186,3.7386,3.6916,3.6916,3.6328,3.5752,3.5936,3.6159,3.6352,3.6556,3.7128,3.7555,3.7342,3.7512,3.7704,3.7728,3.6567,3.5385,3.4717,3.371,3.2705,3.1838,3.1888,3.1935,3.1732,3.285,3.3606,3.3536,3.4139,3.4781,3.5374,3.5151,3.5206,3.5679,3.6872,3.6754,3.5052,3.6431,3.7261,3.7311,3.8044,3.8716,3.9322,3.9979,4.031,4.032,4.0865,4.1148,4.1215,4.1484,4.2051,4.2724,4.209,4.2514,4.3551,4.3507,4.3694,4.4094,4.5014,4.5206,4.5036,4.4327,4.4615,4.4615,4.4615,4.5711,4.6149,4.48,4.4615,4.4998,4.6136,4.4956,4.3869,4.3539,4.3506,4.3506,4.3506,4.3506,4.3506,4.3506,4.3506,4.3506,4.3506,4.3506,4.3506,4.3506,4.3506,4.3506,4.3506,4.3506,4.3506,4.3488,4.3047,4.2845,4.2818,4.2396,4.2194,4.2176,4.1801,4.1654,4.1617,4.125,4.0589,3.9837,4.0286,3.9688,3.8594,3.8594,3.888,3.9184,3.8733,3.9431,4.0451,4.0451,4.0451,4.0359,3.9929,3.8707,3.7492,3.7492,3.6898,3.6427,3.6916,3.7565,3.8164,3.8539,3.8964,3.9227,3.9083,3.8731,3.8464,3.8523,3.7291,3.6123,3.5718,3.4722,3.3796,3.3221,3.3122,3.32,3.3466,3.4592,3.5436,3.5676,3.6745,3.7259,3.6875,3.7433,3.7353,3.634,3.8524,3.8846,3.6765,3.7936,3.8843,3.9379,4.0078,4.0457,4.0534,4.1462,4.1632,4.1189,4.204,4.2242,4.1934,4.2228,4.2851,4.3552,4.2849,4.3278,4.4377,4.4163,4.4303,4.471,4.5349,4.549,4.5352,4.4022,4.4615,4.4615,4.4615,4.4615,4.4615,4.4615,4.4615,4.5346,4.747,4.5518,4.3672,4.3061,4.3395,4.3825,4.4196,4.4222,4.4222,4.4222,4.4222,4.4002,4.3524,4.3506,4.3506,4.3506,4.3506,4.3506,4.3506,4.3506,4.3506,4.3506,4.3506,4.3506,4.3506,4.3506,4.3506,4.3451,4.2763,4.2488,4.2415,4.1746,4.1397,4.1287,4.1287,4.0773,4.0084,4.0084,4.0084,4.0084,4.0084,4.0616,4.1287,4.1287,4.1287,4.1287,4.1287,3.9735,3.8025,3.7896,3.7408,3.7197,3.8326,3.9385,4.0329,4.0993,4.1164,4.1146,4.108,4.0165,3.9321,3.9197,3.7893,3.6765,3.6598,3.5557,3.4758,3.4718,3.467,3.4875,3.5547,3.6583,3.7418,3.7816,3.929,3.9667,3.8341,3.99,3.9837,3.7331,3.98,4.0645,3.9294,3.979,4.0563,4.1592,4.2214,4.2259,4.1766,4.3137,4.3128,4.1906,4.3338,4.347,4.2574,4.3023,4.3542,4.403,4.3444,4.3944,4.5066,4.4646,4.4955,4.5594,4.5594,4.5594,4.5594,4.4022,4.4615,4.4615,4.4615,4.4615,4.4615,4.4615,4.4615,4.4734,4.5115,4.2623,4.0756,4.0645,4.2894,4.5264,4.7364,4.7572,4.7572,4.7572,4.7572,4.6342,4.3616,4.3506,4.3506,4.3506,4.3506,4.3506,4.3506,4.3506,4.3506,4.3506,4.3506,4.3506,4.3506,4.3506,4.3506,4.3488,4.3378,4.3304,4.3304,4.3176,4.2708,4.2113,4.2113,4.1599,4.092,4.092,4.092,4.092,4.092,4.1452,4.2113,4.2113,4.2113,4.2113,4.2113,4.1368,4.0388,3.9706,3.9649,4.0096,4.1517,4.2008,4.2191,4.2301,4.2339,4.2251,4.1965,4.1222,4.0688,4.0875,3.8961,3.7452,3.7694,3.6217,3.4958,3.4724,3.5832,3.6519,3.6201,3.8296,3.9677,3.9535,3.979,4.0404,4.1468,4.0634,4.0451,4.1313,4.1846,4.1992,4.1754,4.1195,4.1135,4.1597,4.2255,4.2545,4.246,4.3376,4.3525,4.3062,4.3709,4.3896,4.3694,4.3141,4.3507,4.4465,4.3925,4.4246,4.5123,4.5323,4.5475,4.5594,4.5594,4.5594,4.5594,4.4327,4.4615,4.4615,4.4615,4.4615,4.4615,4.4615,4.4615,4.5092,4.6425,4.5367,4.4522,4.4522,4.5765,4.7044,4.8201,4.8296,4.8296,4.8296,4.6673,4.5048,4.3561,4.3506,4.3763,4.435,4.4213,4.4158,4.4158,4.3708,4.3506,4.3506,4.3506,4.3506,4.3506,4.3506,4.3506,4.3506,4.3506,4.3506,4.3506,4.3506,4.3286,4.2947,4.2947,4.2451,4.1746,4.1746,4.1746,4.1746,4.1746,4.2286,4.2947,4.2947,4.2947,4.2947,4.2947,4.2066,4.106,4.0877,4.1059,4.1481,4.2156,4.2924,4.3479,4.3288,4.3393,4.3465,4.3329,4.2503,4.1911,4.222,4.0277,3.8872,3.9654,3.7385,3.5797,3.6535,3.6768,3.7113,3.7732,3.9546,4.092,4.1411,4.1855,4.2244,4.2558,4.2281,4.1968,4.167,4.2488,4.2745,4.2304,4.2535,4.2532,4.2257,4.3386,4.3949,4.3949,4.4315,4.4423,4.4255,4.4074,4.411,4.4266,4.323,4.3486,4.4562,4.4024,4.4304,4.5123,4.5476,4.5594,4.5594,4.5594,4.5594,4.5594,4.3552,4.4124,4.4615,4.4615,4.4615,4.4786,4.5372,4.5464,4.6136,4.8055,4.8296,4.8296,4.8296,4.8296,4.8296,4.8296,4.8296,4.8296,4.8296,4.5993,4.4626,4.4626,4.4387,4.4571,4.5268,4.4902,4.47,4.47,4.3892,4.3506,4.3506,4.3506,4.3506,4.3506,4.3506,4.3506,4.3506,4.3506,4.3506,4.3506,4.3506,4.3506,4.3506,4.3506,4.3121,4.258,4.258,4.258,4.258,4.258,4.2992,4.3506,4.3506,4.3506,4.3506,4.3506,4.2635,4.1734,4.2066,4.2271,4.2429,4.2636,4.3586,4.4398,4.4056,4.4187,4.4379,4.4379,4.35,4.2845,4.3092,4.1363,4.0166,4.1035,3.8623,3.7084,3.8313,3.8057,3.8178,3.9425,4.0879,4.211,4.2995,4.3714,4.3841,4.3126,4.3644,4.3311,4.1734,4.2901,4.3377,4.2855,4.3677,4.3883,4.334,4.4583,4.5217,4.5217,4.5217,4.518,4.508,4.4503,4.438,4.4561,4.3629,4.369,4.4431,4.411,4.4376,4.5024,4.5347,4.5522,4.5586,4.5508,4.5527,4.5586,4.0434,4.2685,4.4615,4.4615,4.4615,4.5372,4.7677,4.8035,4.8094,4.8277,4.8296,4.8296,4.8296,4.8296,4.8296,4.8296,4.8296,4.8296,4.8296,4.8076,4.7948,4.7948,4.6985,4.6269,4.5847,4.5085,4.47,4.47,4.3892,4.3506,4.3506,4.3506,4.3506,4.3506,4.3506,4.3506,4.3506,4.3506,4.3506,4.3506,4.3506,4.3506,4.3506,4.3506,4.3451,4.3414,4.3414,4.3414,4.3414,4.3414,4.3451,4.3506,4.3506,4.3506,4.3506,4.3506,4.3414,4.3406,4.3734,4.3521,4.3416,4.4215,4.4721,4.4957,4.4625,4.455,4.4588,4.4588,4.3876,4.3265,4.3284,4.1876,4.0747,4.0828,3.9738,3.8909,3.9021,4.0037,4.0824,4.0934,4.264,4.3829,4.3897,4.4294,4.4375,4.3946,4.3971,4.3794,4.3348,4.3722,4.4106,4.4432,4.4503,4.4682,4.4935,4.5357,4.5568,4.5568,4.5568,4.5405,4.5096,4.5033,4.4872,4.4593,4.451,4.4315,4.4065,4.4405,4.4568,4.4663,4.5019,4.5327,4.5564,4.5248,4.5332,4.5559,4.2533,4.2313,4.2398,4.4276,4.587,4.7216,4.8162,4.8296,4.8296,4.8296,4.8296,4.8296,4.8296,4.8296,4.8296,4.8296,4.8296,4.8296,4.8296,4.8296,4.8296,4.8296,4.7921,4.7599,4.7388,4.6608,4.5948,4.5443,4.4635,4.3993,4.3506,4.3506,4.3506,4.3506,4.3506,4.3506,4.3506,4.3506,4.3506,4.3506,4.3506,4.3506,4.3506,4.3506,4.3506,4.3506,4.3506,4.3506,4.3506,4.3506,4.3506,4.3506,4.3506,4.3506,4.3506,4.3506,4.3506,4.3531,4.3654,4.3709,4.3814,4.4151,4.4502,4.4688,4.4311,4.4426,4.4593,4.4593,4.4341,4.4108,4.4108,4.2976,4.22,4.271,4.0992,3.9936,4.0943,4.1262,4.1593,4.2094,4.3466,4.4448,4.4663,4.4818,4.4757,4.4394,4.4359,4.4216,4.3836,4.4172,4.4547,4.4902,4.4908,4.4966,4.5096,4.5429,4.5594,4.559,4.5395,4.5332,4.54,4.4977,4.4948,4.5206,4.4775,4.4514,4.4394,4.4757,4.4794,4.4651,4.5206,4.549,4.5581,4.5467,4.5495,4.5581,4.2787,4.2279,4.2178,4.4242,4.5824,4.7131,4.8159,4.8296,4.8296,4.8296,4.9196,4.9452,4.8406,4.8296,4.8296,4.8296,4.8296,4.8296,4.8296,4.8296,4.8296,4.8296,4.8296,4.8296,4.8296,4.7498,4.6819,4.6278,4.5471,4.48,4.4259,4.4002,4.3883,4.3873,4.3616,4.3506,4.3506,4.3506,4.3506,4.3506,4.3506,4.3506,4.3506,4.3506,4.3506,4.3506,4.3506,4.3506,4.3543,4.38,4.3708,4.3543,4.38,4.3708,4.3506,4.3506,4.3506,4.3506,4.3506,4.367,4.3833,4.3833,4.4136,4.4304,4.3935,4.4065,4.4252,4.4252,4.4252,4.4252,4.4252,4.3584,4.3208,4.3749,4.2345,4.1559,4.2676,4.2668,4.2758,4.3294,4.4189,4.4855,4.508,4.5201,4.5118,4.4769,4.477,4.4644,4.4348,4.4618,4.4914,4.5243,4.5253,4.5253,4.5253,4.549,4.5555,4.5438,4.5211,4.5175,4.5273,4.4919,4.5005,4.5424,4.508,4.4842,4.4763,4.5013,4.496,4.4793,4.5258,4.5504,4.5577,4.5362,4.5424,4.5573,4.013,4.255,4.4615,4.4615,4.401,4.4607,4.7801,4.8296,4.8315,4.8333,5.1159,5.1911,4.8663,4.8296,4.8296,4.8296,4.8296,4.8296,4.8296,4.8296,4.8296,4.8296,4.8296,4.8296,4.8296,4.7516,4.7113,4.7094,4.6296,4.5902,4.5883,4.5085,4.4718,4.4663,4.3873,4.3506,4.3506,4.3506,4.3506,4.3506,4.3506,4.3506,4.3506,4.3506,4.3506,4.3506,4.3506,4.3506,4.3635,4.4443,4.4176,4.3653,4.4443,4.4158,4.3506,4.3506,4.3506,4.3506,4.3506,4.3506,4.3506,4.3506,4.3758,4.392,4.359,4.3506,4.3506,4.3524,4.3506,4.3506,4.3506,4.3506,4.3506,4.3506,4.378,4.4009,4.4009,4.4357,4.4612,4.4612,4.4902,4.5121,4.5121,4.541,4.5452,4.5137,4.5096,4.5096,4.5096,4.5096,4.5272,4.5586,4.5594,4.5594,4.5594,4.559,4.5429,4.5096,4.5096,4.4919,4.4606,4.4943,4.5096,4.5107,4.5443,4.541,4.5096,4.5096,4.5096,4.5096,4.5096,4.5312,4.5517,4.4842,4.5022,4.5504,4.2838,4.3988,4.4615,4.4615,4.5871,4.7186,4.815,4.8296,4.9122,5.1434,5.0572,4.9379,4.8406,4.8296,4.8296,4.8296,4.8296,4.8296,4.8296,4.8296,4.8296,4.8296,4.8296,4.8296,4.8296,4.8058,4.7672,4.7094,4.6856,4.6443,4.5883,4.5645,4.5232,4.47,4.4443,4.403,4.3506,4.3506,4.3506,4.3506,4.3506,4.3506,4.3506,4.3506,4.3846,4.4342,4.4342,4.4709,4.5223,4.5461,4.5369,4.5131,4.4792,4.4158,4.3506,4.3506,4.3506,4.3616,4.4195,4.4342,4.4213,4.3635,4.3572,4.3778,4.4239,4.3901,4.3818,4.4956,4.4727,4.4342,4.4342,4.4342,4.4158,4.3598,4.405,4.4383,4.4045,4.5315,4.6169,4.5824,4.6122,4.6359,4.6359,4.5892,4.5452,4.5137,4.5096,4.5096,4.5096,4.5322,4.5499,4.559,4.5594,4.5594,4.5594,4.5381,4.5201,4.5096,4.4866,4.4707,4.4593,4.4695,4.4738,4.4776,4.5102,4.5063,4.4794,4.5253,4.5317,4.5118,4.5352,4.5508,4.5577,4.5371,4.5429,4.5573,4.5503,4.6068,4.6068,4.6068,4.7302,4.8296,4.8296,4.8296,4.9012,5.0994,4.9526,4.8296,4.8296,4.8296,4.8296,4.8296,4.8296,4.8296,4.8296,4.8296,4.8443,4.8802,4.8489,4.8296,4.8296,4.8296,4.8058,4.7571,4.7571,4.7324,4.6838,4.6516,4.6113,4.5636,4.5324,4.4911,4.4461,4.4461,4.4277,4.3993,4.4314,4.4259,4.4011,4.4332,4.4745,4.5159,4.5159,4.5498,4.5957,4.6269,4.637,4.6223,4.5434,4.4837,4.4461,4.4461,4.4461,4.4571,4.5039,4.5159,4.5057,4.4562,4.4461,4.4589,4.5057,4.48,4.4736,4.57,4.5516,4.5159,4.5159,4.5159,4.5021,4.4534,4.4968,4.5323,4.5204,4.6351,4.7149,4.7037,4.7223,4.737,4.737,4.6894,4.6507,4.6294,4.6278,4.6278,4.6278,4.6181,4.6105,4.6105,4.5782,4.5594,4.5594,4.5277,4.5041,4.4902,4.4707,4.4447,4.4176,4.4308,4.4353,4.438,4.4896,4.4996,4.4849,4.5371,4.5485,4.5322,4.5517,4.5594,4.5581,4.5443,4.549,4.5577,4.7848,4.8296,4.8296,4.8296,4.8296,4.8296,4.8296,4.8296,4.8296,4.8296,4.8296,4.8296,4.8296,4.8296,4.8296,4.8296,4.8296,4.8351,4.8517,4.8489,4.882,4.9665,4.8948,4.848,4.8406,4.8333,4.8296,4.8296,4.8296,4.8296,4.8278,4.7562,4.7168,4.7076,4.6333,4.5975,4.5902,4.5902,4.548,4.4865,4.5608,4.5461,4.4883,4.5626,4.5938,4.6012,4.6012,4.6049,4.6232,4.6957,4.7168,4.6966,4.625,4.5957,4.5902,4.5902,4.5902,4.592,4.5993,4.6012,4.6012,4.6104,4.6104,4.6104,4.6012,4.5957,4.5938,4.6085,4.6067,4.6012,4.6012,4.6012,4.5975,4.5902,4.622,4.6587,4.6902,4.7333,4.7758,4.8126,4.8164,4.8174,4.8216,4.8139,4.8101,4.8101,4.8101,4.8101,4.8101,4.7408,4.7005,4.7005,4.6244,4.5821,4.5821,4.5513,4.5124,4.4638,4.4606,4.4294,4.3698,4.3957,4.408,4.4199,4.4818,4.5096,4.5137,4.5452,4.5594,4.5594,4.5594,4.5594,4.5568,4.5348,4.5395,4.5559,4.8191,4.8296,4.8296,4.8296,4.8296,4.8296,4.8296,4.8296,4.8296,4.8296,4.8296,4.8296,4.8296,4.8296,4.8296,4.8296,4.8296,4.8847,5.0178,4.9866,4.9903,5.0508,5.0362,4.9958,4.9325,4.8655,4.8296,4.8296,4.8296,4.8296,4.8296,4.8113,4.7709,4.7094,4.692,4.6498,4.5902,4.5902,4.5792,4.5663,4.5828,4.5792,4.5663,4.5828,4.6287,4.6847,4.6847,4.725,4.7801,4.7984,4.7617,4.7076,4.6902,4.6406,4.5902,4.5902,4.5902,4.6049,4.6663,4.6847,4.6994,4.7617,4.7792,4.7599,4.6975,4.6351,4.625,4.7517,4.7287,4.6847,4.6847,4.6847,4.6627,4.5993,4.6489,4.6851,4.6571,4.771,4.8617,4.8642,4.8653,4.8766,4.9087,4.8509,4.8101,4.8101,4.8101,4.8101,4.8101,4.7928,4.7832,4.7832,4.7663,4.7567,4.7567,4.7496,4.6629,4.4983,4.4739,4.4853,4.5291,4.4722,4.4812,4.5411,4.5185,4.5096,4.5137,4.5452,4.5594,4.5594,4.5594,4.5594,4.5663,4.6277,4.6118,4.5682,4.8296,4.8296,4.8296,4.8296,4.8296,4.8296,4.8296,4.8296,4.8296,4.8296,4.8296,4.8296,4.8296,4.8296,4.8296,4.8296,4.904,4.9866,5.0747,5.0545,5.0674,5.1334,5.1004,5.06,5.0188,4.9344,4.8728,4.8296,4.8296,4.8296,4.8296,4.8296,4.8076,4.7672,4.7672,4.7434,4.704,4.704,4.681,4.6516,4.6893,4.6819,4.6516,4.6911,4.7305,4.7672,4.7672,4.7948,4.8296,4.8296,4.8021,4.7672,4.7672,4.7379,4.704,4.704,4.704,4.715,4.7562,4.7672,4.7874,4.871,4.8618,4.8186,4.7764,4.7342,4.7278,4.8141,4.7966,4.7672,4.7672,4.7672,4.7526,4.7113,4.7397,4.7657,4.7603,4.8348,4.9034,4.9378,4.9413,4.958,4.999,4.961,4.9336,4.9336,4.9336,4.9336,4.9336,4.8753,4.8527,4.8716,4.8129,4.7913,4.8101,4.8101,4.7578,4.652,4.6186,4.6171,4.6406,4.599,4.5795,4.5808,4.5715,4.5674,4.5677,4.5625,4.584,4.622,4.622,4.622,4.6317,4.7158,4.7182,4.6855,4.8296,4.8296,4.8296,4.8296,4.8296,4.8296,4.8296,4.8296,4.8498,4.9049,4.914,4.892,4.8351,4.8296,4.8296,4.8296,5.0076,5.1206,5.1206,5.1206,5.1444,5.1987,5.1481,5.1022,5.06,5.0078,4.9307,4.8296,4.8296,4.8296,4.8296,4.8296,4.8296,4.8296,4.8296,4.8296,4.8296,4.8296,4.7911,4.7351,4.8021,4.7911,4.7369,4.8058,4.8296,4.8315,4.8471,4.8526,4.8508,4.8351,4.8296,4.8296,4.8296,4.8296,4.8296,4.8296,4.8296,4.8333,4.8489,4.8526,4.8691,4.9427,4.9068,4.8526,4.8526,4.8416,4.8296,4.8296,4.8406,4.8526,4.8526,4.8526,4.8581,4.871,4.848,4.8522,4.9134,4.9121,4.9297,5.0113,5.02,5.0393,5.086,5.0784,5.0765,5.0899,5.0784,5.0707,5.0707,4.9699,4.9289,4.9601,4.861,4.8211,4.8543,4.8548,4.8548,4.8543,4.8268,4.792,4.7492,4.7334,4.6967,4.6417,4.6548,4.6538,4.6363,4.5989,4.6163,4.6697,4.6831,4.6908,4.7005,4.7793,4.8197,4.8312,4.8296,4.8296,4.8296,4.8296,4.8296,4.8296,4.8296,4.8296,4.9324,5.2168,5.2535,5.1453,4.8608,4.8296,4.8296,4.8296,5.1104,5.2884,5.2884,5.2884,5.2609,5.2024,5.2564,5.1875,4.9719,5.0306,4.9866,4.8296,4.8296,4.8296,4.8296,4.8296,4.8296,4.8296,4.8296,4.8296,4.8296,4.8296,4.8241,4.815,4.826,4.8223,4.815,4.826,4.8296,4.8398,4.9142,4.9417,4.9307,4.8545,4.8296,4.8296,4.8296,4.8296,4.8296,4.8296,4.8296,4.8471,4.9215,4.9417,4.9445,4.9574,4.9519,4.9417,4.9417,4.8838,4.8296,4.8296,4.8903,4.9417,4.9417,4.9417,4.9656,5.0343,4.926,4.8821,5.0322,4.9937,4.9777,5.0523,5.0616,5.0917,5.1654,5.1106,5.0996,5.1697,5.1087,5.0707,5.0707,5.0538,5.048,5.0515,5.0365,5.0288,5.0341,5.0341,5.0341,5.0341,5.0293,4.9855,4.9066,4.8312,4.8312,4.8874,4.8155,4.7458,4.6805,4.6741,4.6355,4.584,4.6601,4.6908,4.7005,4.7793,4.8586,4.9221,4.8296,4.8296,4.8296,4.8296,4.8296,4.8296,4.8296,4.8296,4.881,5.026,5.0462,4.9911,4.8462,4.8296,4.903,5.0884,5.2352,5.3196,5.3196,5.3196,5.2829,5.2042,5.2344,5.1591,4.9601,4.9931,4.9536,4.8296,4.8296,4.8296,4.8296,4.8296,4.8296,4.8296,4.8296,4.8296,4.8296,4.8296,4.8296,4.8296,4.8296,4.86,4.8967,4.8489,4.8884,4.9682,4.9619,4.961,4.9472,4.86,4.8296,4.8296,4.8296,4.8296,4.8296,4.8296,4.8636,4.9105,4.95,4.9931,5.039,5.083,5.061,5.039,5.083,5.0478,4.9973,4.9741,4.9994,5.028,5.028,5.028,5.038,5.0747,5.0168,4.9948,5.071,5.0681,5.0895,5.1675,5.1955,5.2241,5.2582,5.2299,5.2241,5.2601,5.1851,5.1375,5.1375,5.052,5.0243,5.0683,5.026,5.0249,5.0707,5.0707,5.0707,5.0707,5.0707,5.0495,5.013,5.0197,4.9928,4.9413,4.951,4.9067,4.8221,4.7293,4.6947,4.7028,4.7408,4.8163,4.9067,4.9413,4.9803,5.013]}]]